Date StartTime U_cm/s V_cm/s W_cm/s Ustd_cm/s Vstd_cm/s Wstd_cm/s Uvar_(cm/s)^2 Vvar_(cm/s)^2 Wvar_(cm/s)^2 KE_(m/s)^2 TurbulentKE_(m/s)^2 HorizWindSpeed_cm/s FrictionSpeec_cm/s DragCoef SpeedOfSound_m/s SonicTemperature_C Pressure_mb 
09/24/2014  00:00:00     -138.862     -115.695        2.094       80.167       60.051       39.207     6426.671     3606.094     1537.197        2.212        0.578      180.743       40.244        0.050      344.190       20.831      861.097
09/24/2014  00:01:00     -123.698      -93.860        0.725       78.507       73.348       41.906     6163.380     5379.975     1756.118        1.870        0.665      155.277       36.559        0.055      344.152       20.767      861.085
09/24/2014  00:02:00     -133.320      -66.209       -0.018       68.354       50.844       34.609     4672.279     2585.087     1197.796        1.531        0.423      148.855       32.871        0.049      344.148       20.760      861.086
09/24/2014  00:03:00      -73.677        3.699       -2.069       43.263       36.988       29.092     1871.671     1368.113      846.370        0.477        0.204       73.770       10.272        0.019      344.090       20.662      861.091
09/24/2014  00:04:00      -50.225      -17.374        6.134       46.316       40.327       31.184     2145.179     1626.244      972.425        0.380        0.237       53.145       24.614        0.215      344.043       20.581      861.078
09/24/2014  00:05:00      -54.407      -51.711       -8.246       69.728       33.359       28.102     4862.034     1112.814      789.738        0.623        0.338       75.060       25.316        0.114      344.168       20.795      861.082
09/24/2014  00:06:00       23.486      -36.518        1.496       23.089       16.675       23.084      533.118      278.040      532.885        0.162        0.067       43.418       12.680        0.085      344.081       20.646      861.090
09/24/2014  00:07:00       15.649      -52.323        3.694       33.730       49.986       26.959     1137.727     2498.572      726.791        0.368        0.218       54.613       25.489        0.218      344.140       20.748      861.102
09/24/2014  00:08:00       -7.271       43.649       10.746       44.873       43.288       32.370     2013.628     1873.878     1047.799        0.350        0.247       44.251       20.151        0.207      343.911       20.356      861.090
09/24/2014  00:09:00       63.327       72.379       47.033       69.637       42.557       41.187     4849.307     1811.099     1696.337        0.991        0.418       96.171       28.416        0.087      343.705       20.004      861.103
09/24/2014  00:10:00      183.145      132.655       77.109       63.170       46.601       49.976     3990.398     2171.680     2497.555        3.287        0.433      226.141       29.397        0.017      343.193       19.130      861.094
09/24/2014  00:11:00       94.516       71.082       57.010       44.976       43.334       42.987     2022.800     1877.858     1847.882        1.149        0.287      118.262       23.070        0.038      342.942       18.706      861.106
09/24/2014  00:12:00       89.522      129.548      144.120      103.367       91.642       70.900    10684.654     8398.323     5026.813        3.483        1.205      157.470       73.186        0.216      342.788       18.437      861.088
09/24/2014  00:13:00      118.538       49.115       81.117       84.702       73.657       63.001     7174.496     5425.361     3969.140        1.980        0.828      128.310       53.212        0.172      342.580       18.088      861.114
09/24/2014  00:14:00       52.340        2.096       29.246       48.448       66.980       39.558     2347.203     4486.348     1564.801        0.600        0.420       52.382       24.899        0.226      342.554       18.044      861.131
09/24/2014  00:15:00       34.914      -50.389        3.386       28.043       48.408       35.627      786.424     2343.332     1269.278        0.408        0.220       61.303       17.321        0.080      342.541       18.022      861.162
09/24/2014  00:16:00       63.806       34.582        6.110       36.941       35.061       30.515     1364.652     1229.298      931.172        0.441        0.176       72.575       32.011        0.195      342.554       18.045      861.179
09/24/2014  00:17:00      173.664       85.619       30.782       54.912       56.120       38.296     3015.370     3149.431     1466.586        2.303        0.382      193.622       31.732        0.027      342.722       18.328      861.153
09/24/2014  00:18:00      133.227       71.294       62.855       77.984       55.850       46.162     6081.562     3119.268     2130.951        1.906        0.567      151.104       40.955        0.073      342.608       18.135      861.134
09/24/2014  00:19:00      157.283       56.179        3.465       61.789       47.317       45.419     3817.932     2238.903     2062.869        1.801        0.406      167.015       36.540        0.048      342.486       17.928      861.138
09/24/2014  00:20:00       80.229       36.025       40.073       76.061       50.680       46.893     5785.325     2568.490     2198.994        0.994        0.528       87.946       39.190        0.199      342.341       17.682      861.132
09/24/2014  00:21:00        2.175        7.647       -2.989       60.617       41.582       27.891     3674.418     1729.027      777.904        0.313        0.309        7.951       15.419        3.761      342.307       17.626      861.153
09/24/2014  00:22:00      -43.366       -7.653      -15.933       35.097       32.102       12.857     1231.766     1030.564      165.308        0.231        0.121       44.036        8.592        0.038      342.362       17.719      861.189
09/24/2014  00:23:00      -98.905        2.606      -11.588       25.276       17.836       16.724      638.898      318.140      279.695        0.558        0.062       98.940       11.106        0.013      342.406       17.793      861.228
09/24/2014  00:24:00       29.936        7.487       15.849       63.846       36.851       32.799     4076.341     1357.988     1075.768        0.386        0.326       30.858       35.806        1.346      342.488       17.932      861.259
09/24/2014  00:25:00       37.177      -75.461       -4.091       29.129       51.046       35.811      848.501     2605.674     1282.396        0.591        0.237       84.122       30.298        0.130      342.655       18.216      861.241
09/24/2014  00:26:00       28.013      -18.827       19.732       37.486       47.516       36.172     1405.174     2257.750     1308.380        0.325        0.249       33.752       37.543        1.237      342.796       18.456      861.192
09/24/2014  00:27:00       88.816       69.921       43.512       72.873       47.788       41.301     5310.474     2283.710     1705.751        1.198        0.465      113.036       32.557        0.083      342.596       18.115      861.115
09/24/2014  00:28:00       88.134       54.617       28.836       50.710       41.653       47.706     2571.500     1734.990     2275.829        0.908        0.329      103.685       23.154        0.050      342.711       18.311      861.078
09/24/2014  00:29:00      -54.457       13.335      -10.075       34.619       32.983       17.107     1198.489     1087.901      292.651        0.291        0.129       56.066       15.630        0.078      342.569       18.072      861.117
09/24/2014  00:30:00      -63.434      -25.025      -13.553       27.332       34.460       14.079      747.025     1187.517      198.205        0.348        0.107       68.192       13.969        0.042      342.509       17.970      861.149
09/24/2014  00:31:00        2.922      -23.235       -4.192       15.708       32.862       16.436      246.735     1079.919      270.127        0.108        0.080       23.418        7.586        0.105      342.668       18.239      861.155
09/24/2014  00:32:00       51.677      105.732       72.128       57.388       54.927       38.647     3293.375     3016.954     1493.580        1.343        0.390      117.685       34.724        0.087      342.614       18.146      861.118
09/24/2014  00:33:00       95.069       73.240       58.232       70.007       45.507       45.300     4901.001     2070.842     2052.125        1.341        0.451      120.009       37.850        0.099      342.768       18.408      861.099
09/24/2014  00:34:00       -2.111       55.645       84.044       18.382       57.103       36.392      337.915     3260.796     1324.363        0.754        0.246       55.685       40.791        0.537      342.669       18.240      861.114
09/24/2014  00:35:00      -13.570       -0.262        8.517       15.804       27.798       21.345      249.777      772.720      455.610        0.087        0.074       13.572        9.598        0.500      342.630       18.172      861.149
09/24/2014  00:36:00       12.947      -34.295       -2.333       26.996       22.231       17.902      728.801      494.228      320.465        0.145        0.077       36.658       12.629        0.119      342.727       18.339      861.144
09/24/2014  00:37:00       15.714      -21.033        6.343       20.138       40.414       17.762      405.540     1633.322      315.472        0.154        0.118       26.255       14.977        0.325      342.672       18.245      861.148
09/24/2014  00:38:00       29.758       13.629       33.373       25.110       52.433       20.287      630.524     2749.199      411.581        0.299        0.190       32.731       28.314        0.748      342.607       18.135      861.154
09/24/2014  00:39:00       68.917       23.571       16.665       26.958       33.279       20.883      726.722     1107.462      436.117        0.393        0.114       72.837       14.126        0.038      342.604       18.131      861.149
09/24/2014  00:40:00       -1.963      -21.074       -4.841        9.987       12.784       13.293       99.747      163.428      176.694        0.046        0.022       21.166        8.553        0.163      342.565       18.064      861.169
09/24/2014  00:41:00      -17.651      -23.247       -7.815       27.578       17.816       14.498      760.563      317.402      210.179        0.110        0.064       29.189       11.240        0.148      342.721       18.330      861.185
09/24/2014  00:42:00       14.499       16.562       13.129       30.873       24.804       15.823      953.138      615.218      250.374        0.124        0.091       22.012       23.386        1.129      342.822       18.500      861.179
09/24/2014  00:43:00      -37.155       -6.805        4.005       27.089       19.104       17.442      733.824      364.964      304.230        0.142        0.070       37.773       16.160        0.183      342.846       18.544      861.166
09/24/2014  00:44:00        2.460      -17.334        0.207       57.490       27.754       25.225     3305.091      770.291      636.303        0.251        0.236       17.508       22.269        1.618      342.762       18.399      861.183
09/24/2014  00:45:00        9.989       44.503       62.506       43.998       45.542       26.179     1935.838     2074.034      685.346        0.534        0.235       45.610       22.489        0.243      342.555       18.047      861.153
09/24/2014  00:46:00       -1.611       55.499       95.323       31.892       51.977       31.742     1017.123     2701.573     1007.541        0.845        0.236       55.522       26.175        0.222      342.580       18.088      861.155
09/24/2014  00:47:00      -25.661       -4.256       23.625       22.834       31.959       20.532      521.411     1021.401      421.554        0.160        0.098       26.011       11.310        0.189      342.551       18.040      861.172
09/24/2014  00:48:00      -11.558       51.143       -4.077       19.170       51.462       10.944      367.502     2648.342      119.770        0.295        0.157       52.432       10.428        0.040      342.513       17.975      861.201
09/24/2014  00:49:00      -66.843       95.854       -9.956       26.368       37.926       20.272      695.293     1438.417      410.947        0.815        0.127      116.859       13.845        0.014      342.546       18.032      861.208
09/24/2014  00:50:00      -48.040       27.481       -9.944       28.396       23.973       16.748      806.306      574.697      280.487        0.241        0.083       55.345       18.051        0.106      342.947       18.713      861.190
09/24/2014  00:51:00        6.509       26.865        0.578       20.463       17.851       14.004      418.720      318.641      196.099        0.085        0.047       27.642       10.197        0.136      342.775       18.421      861.171
09/24/2014  00:52:00       55.672       35.014        5.610       21.721       20.186       13.518      471.793      407.464      182.732        0.271        0.053       65.767       14.011        0.045      342.726       18.339      861.163
09/24/2014  00:53:00       44.655       25.506       19.455       32.747       22.304       18.405     1072.349      497.449      338.730        0.247        0.095       51.426       13.476        0.069      342.704       18.299      861.142
09/24/2014  00:54:00        0.297       18.403       23.223       14.970       16.747       13.641      224.104      280.470      186.080        0.078        0.035       18.405        9.748        0.281      342.524       17.995      861.129
09/24/2014  00:55:00      -41.259      -34.759       -6.386       34.141       20.048       12.072     1165.611      401.905      145.724        0.233        0.086       53.949       10.336        0.037      342.611       18.142      861.143
09/24/2014  00:56:00      -83.849       -4.599      -15.336       13.205       25.913       12.984      174.379      671.486      168.584        0.415        0.051       83.975        3.728        0.002      342.429       17.831      861.177
09/24/2014  00:57:00      -62.217       12.985      -16.211       27.200        9.107        8.417      739.842       82.930       70.854        0.260        0.045       63.557        5.136        0.007      342.478       17.915      861.209
09/24/2014  00:58:00      -19.918       -4.663       -4.076       15.043        5.985        4.323      226.296       35.826       18.691        0.036        0.014       20.457        4.618        0.051      342.639       18.188      861.226
09/24/2014  00:59:00       -5.692        0.294        4.549        5.554       11.149        7.245       30.844      124.293       52.496        0.013        0.010        5.700        2.743        0.232      342.691       18.276      861.231
09/24/2014  01:00:00       -4.660       -3.774       16.268       22.471       34.498       15.322      504.960     1190.144      234.776        0.111        0.096        5.997       10.083        2.827      342.705       18.302      861.219
09/24/2014  01:01:00        7.698       -6.764       11.244       22.069       20.954       10.657      487.062      439.065      113.566        0.064        0.052       10.247        8.001        0.610      342.535       18.012      861.202
09/24/2014  01:02:00       27.589      -48.295       -8.846       13.160       13.559        9.995      173.175      183.835       99.903        0.181        0.023       55.619        6.688        0.014      342.668       18.239      861.194
09/24/2014  01:03:00       10.652      -45.469        4.700       19.851       27.732       13.561      394.060      769.067      183.911        0.177        0.067       46.701        8.387        0.032      342.676       18.252      861.186
09/24/2014  01:04:00      -18.287      -10.146        3.836       25.029       14.104       10.631      626.436      198.911      113.015        0.070        0.047       20.913        3.746        0.032      342.504       17.960      861.185
09/24/2014  01:05:00      -46.980       15.573       -2.898        5.485       12.141        8.860       30.087      147.406       78.495        0.136        0.013       49.494        4.818        0.009      342.580       18.090      861.189
09/24/2014  01:06:00      -16.406       42.843       -0.093       19.085       15.445       11.246      364.218      238.545      126.475        0.142        0.036       45.877       10.933        0.057      342.696       18.288      861.200
09/24/2014  01:07:00       -0.217       15.701       -5.671       15.547        9.387        6.352      241.724       88.117       40.351        0.032        0.019       15.703        7.170        0.208      342.888       18.612      861.209
09/24/2014  01:08:00       18.561      -12.797       -1.500        9.890       11.949        5.735       97.806      142.769       32.889        0.039        0.014       22.545        6.494        0.083      342.750       18.380      861.214
09/24/2014  01:09:00      -18.575       -9.580       -4.657       24.267        8.893        4.976      588.872       79.083       24.765        0.058        0.035       20.900        3.629        0.030      342.708       18.308      861.233
09/24/2014  01:10:00     -111.469      -18.906       -8.641       19.693       19.183       11.798      387.826      367.998      139.196        0.688        0.045      113.061        6.355        0.003      342.166       17.385      861.243
09/24/2014  01:11:00     -125.214       -7.758      -10.768       27.949       18.460        9.870      781.173      340.786       97.409        0.854        0.061      125.455       10.859        0.007      342.330       17.663      861.236
09/24/2014  01:12:00      -58.341       18.985       -5.401       10.696        5.121        4.655      114.407       26.229       21.668        0.198        0.008       61.353        3.260        0.003      342.707       18.305      861.214
09/24/2014  01:13:00      -64.001      -16.882       -6.348       16.200       20.530        7.796      262.439      421.482       60.775        0.258        0.037       66.190        5.565        0.007      342.468       17.899      861.207
09/24/2014  01:14:00      -67.415      -25.809       -4.120       31.170       17.034       15.263      971.593      290.161      232.966        0.336        0.075       72.187        9.650        0.018      342.171       17.393      861.216
09/24/2014  01:15:00      -97.601      -15.726       -8.470       23.215       13.265       13.976      538.936      175.951      195.332        0.538        0.046       98.860       13.846        0.020      342.105       17.282      861.229
09/24/2014  01:16:00      -95.540      -29.425       -9.236       22.187       24.935       15.280      492.283      621.774      233.492        0.571        0.067       99.969       11.307        0.013      342.043       17.177      861.230
09/24/2014  01:17:00      -42.355       -5.550       -8.534       19.651       11.439        7.950      386.146      130.850       63.200        0.124        0.029       42.717        8.582        0.040      342.023       17.142      861.214
09/24/2014  01:18:00      -55.618       -5.345       -5.753       26.254       24.149       15.074      689.298      583.190      227.238        0.233        0.075       55.874       13.265        0.056      342.025       17.148      861.200
09/24/2014  01:19:00      -66.212       12.285       -4.891       28.296       27.973       20.648      800.671      782.470      426.336        0.328        0.100       67.342       14.914        0.049      341.972       17.055      861.194
09/24/2014  01:20:00      -50.208       -4.671       -9.758       12.965       25.821        8.227      168.088      666.729       67.678        0.177        0.045       50.425        6.075        0.015      342.216       17.470      861.210
09/24/2014  01:21:00      -91.476      -53.561      -16.371       25.219       21.547       14.293      636.006      464.288      204.288        0.640        0.065      106.003        5.117        0.002      341.896       16.927      861.221
09/24/2014  01:22:00     -100.487      -45.701      -14.621       35.905       34.155       21.629     1289.138     1166.573      467.804        0.766        0.146      110.391        9.529        0.007      341.819       16.795      861.231
09/24/2014  01:23:00     -159.966      -80.812       -9.734       34.352       33.474       23.239     1180.065     1120.540      540.068        1.753        0.142      179.219       11.345        0.004      341.722       16.631      861.251
09/24/2014  01:24:00     -105.636      -29.940       -3.089       31.872       40.728       18.004     1015.807     1658.792      324.137        0.753        0.150      109.797       16.498        0.023      341.804       16.772      861.248
09/24/2014  01:25:00     -137.685       32.176      -13.510       29.542       22.992       14.496      872.705      528.617      210.146        1.089        0.081      141.395        9.625        0.005      341.781       16.731      861.233
09/24/2014  01:26:00     -129.457       42.405      -10.356       49.759       24.718       21.600     2475.977      610.980      466.560        1.111        0.178      136.225       18.984        0.019      341.811       16.782      861.222
09/24/2014  01:27:00     -146.696       58.558      -10.789       60.946       31.156       29.512     3714.417      970.671      870.944        1.531        0.278      157.951       23.356        0.022      341.834       16.820      861.225
09/24/2014  01:28:00     -117.798       49.783       -8.733       47.182       27.468       24.509     2226.149      754.505      600.703        1.001        0.179      127.885       21.928        0.029      341.987       17.082      861.225
09/24/2014  01:29:00      -93.845       40.672      -18.870       19.891       45.877       14.909      395.671     2104.671      222.277        0.677        0.136      102.280       15.072        0.022      342.098       17.271      861.221
09/24/2014  01:30:00     -168.102       31.532      -18.135       35.945       29.564       22.571     1292.062      874.053      509.440        1.613        0.134      171.034       14.718        0.007      341.887       16.911      861.230
09/24/2014  01:31:00     -119.699       30.796      -17.859       49.942       37.885       20.036     2494.218     1435.250      401.458        0.996        0.217      123.597       12.319        0.010      341.722       16.633      861.223
09/24/2014  01:32:00      -94.589       -9.060      -19.607       40.190       24.129       14.046     1615.223      582.226      197.293        0.590        0.120       95.022       13.555        0.020      341.655       16.519      861.222
09/24/2014  01:33:00     -135.235       34.316      -15.083       52.003       50.146       26.801     2704.330     2514.627      718.275        1.281        0.297      139.521       20.316        0.021      341.570       16.374      861.217
09/24/2014  01:34:00      -69.358        7.773       -2.106       40.457       25.346       20.077     1636.778      642.404      403.102        0.378        0.134       69.792       15.454        0.049      341.607       16.438      861.204
09/24/2014  01:35:00      -47.428      -16.024       -8.130       22.505       28.914       16.041      506.483      836.006      257.307        0.209        0.080       50.061       10.480        0.044      341.626       16.470      861.203
09/24/2014  01:36:00      -27.224      -26.481        0.518       40.828       17.769       18.371     1666.941      315.727      337.510        0.188        0.116       37.979       14.330        0.142      341.617       16.454      861.213
09/24/2014  01:37:00      -29.034      -12.190        3.192       19.100       27.610       16.031      364.818      762.334      256.978        0.119        0.069       31.490       10.714        0.116      341.526       16.299      861.208
09/24/2014  01:38:00     -130.602      -30.611      -14.377       33.344       17.005       10.205     1111.811      289.176      104.142        0.985        0.075      134.141        9.432        0.005      341.471       16.207      861.210
09/24/2014  01:39:00     -120.578      -32.465      -16.938       25.175       21.560       14.971      633.775      464.820      224.130        0.860        0.066      124.872       10.713        0.007      341.469       16.203      861.222
09/24/2014  01:40:00      -89.865      -31.119      -10.708       20.328       25.525       10.773      413.234      651.520      116.052        0.517        0.059       95.101        8.343        0.008      341.517       16.283      861.209
09/24/2014  01:41:00      -99.950      -17.929      -11.742       30.689       20.036       18.407      941.806      401.435      338.835        0.607        0.084      101.545       19.029        0.035      341.505       16.263      861.193
09/24/2014  01:42:00      -88.661       -0.305       -9.447       26.186       19.209       15.311      685.703      368.981      234.441        0.462        0.064       88.662       15.483        0.030      341.454       16.179      861.186
09/24/2014  01:43:00      -83.691       -5.473      -11.381       13.079       12.777       11.252      171.051      163.250      126.616        0.381        0.023       83.870        8.941        0.011      341.423       16.126      861.176
09/24/2014  01:44:00      -14.289        3.749        1.243       36.942       23.036       13.243     1364.700      530.672      175.367        0.114        0.104       14.773       14.068        0.907      341.410       16.103      861.177
09/24/2014  01:45:00       98.144       59.131       20.688       47.022       31.537       43.878     2211.044      994.566     1925.249        0.934        0.257      114.581       18.594        0.026      341.263       15.856      861.187
09/24/2014  01:46:00       74.252       37.087       11.522       31.005       22.542       19.338      961.285      508.129      373.961        0.443        0.092       82.999        5.361        0.004      341.093       15.567      861.190
09/24/2014  01:47:00       49.905       32.484        1.614       32.071       18.762       17.224     1028.574      352.015      296.661        0.261        0.084       59.546       11.830        0.039      341.034       15.467      861.196
09/24/2014  01:48:00       14.714       33.499       -0.929       26.562       19.510       17.201      705.539      380.652      295.887        0.136        0.069       36.588       11.479        0.098      341.115       15.603      861.185
09/24/2014  01:49:00       -2.480        9.546       -2.167       19.618        9.828        6.220      384.854       96.592       38.683        0.031        0.026        9.862        6.257        0.402      341.232       15.802      861.203
09/24/2014  01:50:00      -44.205        0.232       -6.348       16.826        9.063        9.479      283.108       82.139       89.849        0.122        0.023       44.205        9.205        0.043      341.138       15.644      861.229
09/24/2014  01:51:00      -60.614       -8.540       -6.470        8.372        8.079        5.642       70.097       65.276       31.829        0.198        0.008       61.213        2.416        0.002      341.144       15.654      861.232
09/24/2014  01:52:00      -75.354        4.504       -9.029       22.968       14.728        8.485      527.507      216.920       71.992        0.330        0.041       75.489        5.164        0.005      341.085       15.551      861.220
09/24/2014  01:53:00      -56.160       34.570      -12.954       16.852       20.093       12.556      283.988      403.729      157.643        0.268        0.042       65.947        8.694        0.017      341.077       15.540      861.216
09/24/2014  01:54:00      -40.727       54.697       -9.225       15.020       11.743        8.807      225.586      137.893       77.562        0.259        0.022       68.195        7.175        0.011      341.381       16.054      861.200
09/24/2014  01:55:00      -71.691       14.552      -14.701       21.698       36.432        9.044      470.815     1327.298       81.797        0.372        0.094       73.153        8.077        0.012      341.379       16.051      861.179
09/24/2014  01:56:00      -70.490      -31.014       -6.514       21.821       23.175       13.408      476.134      537.092      179.762        0.358        0.060       77.012        8.329        0.012      341.254       15.839      861.182
09/24/2014  01:57:00      -34.197      -24.963       -1.538       46.131       16.220       16.197     2128.102      263.101      262.337        0.222        0.133       42.339       20.456        0.233      341.197       15.742      861.184
09/24/2014  01:58:00       -3.217       17.720       27.558       13.813       16.793       19.242      190.793      282.018      370.243        0.096        0.042       18.010       16.745        0.864      341.117       15.608      861.178
09/24/2014  01:59:00      -19.685       -1.214       16.329       11.046       12.379       11.928      122.005      153.249      142.266        0.054        0.021       19.723        9.184        0.217      341.166       15.690      861.176
09/24/2014  02:00:00        4.726        9.858        5.026       10.516       11.552        8.025      110.588      133.455       64.405        0.023        0.015       10.932        4.371        0.160      341.164       15.687      861.175
09/24/2014  02:01:00      -39.411       -4.816       -7.856       19.577        7.886        5.974      383.256       62.194       35.686        0.106        0.024       39.704        8.575        0.047      341.184       15.721      861.162
09/24/2014  02:02:00      -89.379        4.137      -12.407       17.646       11.371        8.224      311.378      129.292       67.638        0.433        0.025       89.475        8.148        0.008      341.184       15.722      861.133
09/24/2014  02:03:00      -61.879        8.121      -14.833       20.438        9.593        8.519      417.692       92.026       72.575        0.235        0.029       62.410       10.454        0.028      341.155       15.670      861.126
09/24/2014  02:04:00      -35.659       11.935       -9.315       15.315        9.407        8.374      234.541       88.493       70.118        0.095        0.020       37.604        3.538        0.009      341.353       16.008      861.112
09/24/2014  02:05:00      -20.790       10.260       -8.970        8.390       10.927        4.999       70.394      119.389       24.988        0.042        0.011       23.184        1.735        0.006      341.734       16.652      861.111
09/24/2014  02:06:00      -70.845      -22.015      -10.407       26.502        9.137        8.608      702.333       83.482       74.098        0.324        0.043       74.187       11.519        0.024      341.511       16.273      861.122
09/24/2014  02:07:00     -159.343       -6.141      -22.145       41.209       20.972       16.281     1698.212      439.836      265.061        1.416        0.120      159.462       13.771        0.007      341.141       15.648      861.130
09/24/2014  02:08:00     -117.806        6.395      -12.220       70.998       25.859       26.829     5040.720      668.671      719.784        1.025        0.321      117.980       34.848        0.087      340.922       15.279      861.118
09/24/2014  02:09:00      -46.335        6.430       -9.658       50.040       34.056       26.327     2504.017     1159.796      693.117        0.332        0.218       46.779       25.509        0.297      340.879       15.204      861.112
09/24/2014  02:10:00      -24.077        1.252        3.846       39.761       36.253       21.106     1580.971     1314.286      445.445        0.197        0.167       24.109        9.625        0.159      340.981       15.378      861.103
09/24/2014  02:11:00      -43.162       -7.667       -1.954       34.362       21.015       17.608     1180.779      441.615      310.041        0.193        0.097       43.838       17.155        0.153      341.158       15.678      861.098
09/24/2014  02:12:00      -93.173      -51.901       -8.611       55.513       41.057       21.163     3081.735     1685.656      447.890        0.833        0.261      106.653       22.936        0.046      341.134       15.636      861.096
09/24/2014  02:13:00     -114.860      -29.481       -4.737       54.525       47.623       23.317     2972.956     2267.986      543.663        0.993        0.289      118.583       19.276        0.026      340.947       15.320      861.080
09/24/2014  02:14:00      -55.016       12.530       -3.145       32.148       22.282       20.272     1033.492      496.466      410.940        0.257        0.097       56.425       14.746        0.068      340.925       15.282      861.050
09/24/2014  02:15:00      -62.335       26.368      -14.474       23.032       30.072       14.413      530.495      904.335      207.723        0.322        0.082       67.682       11.176        0.027      341.349       16.000      861.035
09/24/2014  02:16:00      -45.735       -5.401       -2.593       20.290       17.248       11.125      411.700      297.511      123.762        0.148        0.042       46.052        9.559        0.043      341.281       15.884      861.035
09/24/2014  02:17:00      -70.744      -35.756      -13.995       12.774       14.853        8.539      163.166      220.624       72.922        0.347        0.023       79.267        6.633        0.007      341.223       15.789      861.041
09/24/2014  02:18:00      -71.000      -32.410      -13.058       20.417       18.751       12.675      416.865      351.614      160.652        0.360        0.046       78.047       11.105        0.020      341.320       15.951      861.053
09/24/2014  02:19:00      -75.374      -20.506      -10.612       28.651       22.317       15.091      820.874      498.028      227.736        0.388        0.077       78.113       14.497        0.034      341.078       15.542      861.076
09/24/2014  02:20:00      -52.613      -11.675       -1.860       26.491       20.771       13.673      701.771      431.417      186.962        0.211        0.066       53.893       11.330        0.044      341.069       15.528      861.082
09/24/2014  02:21:00       -9.035        4.759       -6.982       17.019       11.599       12.745      289.636      134.531      162.447        0.037        0.029       10.211        7.548        0.546      341.191       15.731      861.065
09/24/2014  02:22:00      -18.749       -3.864       -5.386       12.354       16.133        9.695      152.633      260.273       94.003        0.045        0.025       19.143        9.161        0.229      341.261       15.852      861.060
09/24/2014  02:23:00      -22.574      -28.620       -5.044       13.704       15.381       11.687      187.812      236.588      136.591        0.096        0.028       36.451        8.555        0.055      341.195       15.740      861.046
09/24/2014  02:24:00      -14.810      -17.838       -6.371       11.320       12.196        6.826      128.139      148.753       46.598        0.045        0.016       23.185        4.536        0.038      341.357       16.013      861.035
09/24/2014  02:25:00      -16.997      -16.873       -4.009       14.156       11.915        7.437      200.389      141.977       55.303        0.049        0.020       23.950        3.696        0.024      341.380       16.051      861.029
09/24/2014  02:26:00      -28.091      -18.207       -7.861       13.016        9.765       10.181      169.425       95.347      103.643        0.078        0.018       33.475        4.905        0.021      341.431       16.137      861.037
09/24/2014  02:27:00      -28.736       -5.466        1.252       29.830       25.478       22.077      889.852      649.109      487.379        0.144        0.101       29.251       21.534        0.542      341.186       15.723      861.054
09/24/2014  02:28:00      -13.047      -16.808        0.088       21.022       18.037       12.835      441.909      325.322      164.726        0.069        0.047       21.277       12.679        0.355      341.149       15.663      861.068
09/24/2014  02:29:00      -45.665      -31.024       -9.110       21.999       11.292        7.772      483.938      127.511       60.400        0.190        0.034       55.207        6.345        0.013      341.241       15.817      861.077
09/24/2014  02:30:00      -45.918      -18.786       -8.416       10.654       11.105        5.648      113.513      123.313       31.903        0.140        0.013       49.613        3.282        0.004      341.358       16.015      861.077
09/24/2014  02:31:00       -0.754       18.259       -1.382       20.890        8.418        9.382      436.386       70.857       88.030        0.047        0.030       18.274       10.735        0.345      341.915       16.959      861.070
09/24/2014  02:32:00       60.412       68.286       67.614       59.647       43.511       50.283     3557.762     1893.168     2528.418        1.043        0.399       91.173       30.136        0.109      341.212       15.768      861.080
09/24/2014  02:33:00       32.134       -1.831       24.419       29.492       50.236       24.678      869.778     2523.621      609.005        0.282        0.200       32.186       27.568        0.734      340.899       15.238      861.109
09/24/2014  02:34:00       68.448      -61.865      -16.337       44.193       42.959       27.004     1953.048     1845.466      729.236        0.665        0.226       92.263       21.352        0.054      341.013       15.431      861.123
09/24/2014  02:35:00       37.700      -61.542       -1.625       34.755       33.683       28.206     1207.910     1134.563      795.598        0.417        0.157       72.172       25.407        0.124      341.126       15.622      861.127
09/24/2014  02:36:00       17.290      -25.583       -0.464       27.979       32.103       18.226      782.838     1030.631      332.185        0.155        0.107       30.878       18.381        0.354      341.168       15.695      861.113
09/24/2014  02:37:00        7.475      -15.554        7.418       13.696       24.563       18.691      187.593      603.329      349.353        0.075        0.057       17.257       17.352        1.011      341.127       15.624      861.108
09/24/2014  02:38:00      -44.789       -9.719       -3.710       52.805       16.921       11.308     2788.339      286.310      127.872        0.266        0.160       45.831       18.085        0.156      341.271       15.866      861.108
09/24/2014  02:39:00      -99.883      -22.895      -15.260       17.213       19.451       10.105      296.287      378.330      102.112        0.576        0.039      102.473        2.965        0.001      341.227       15.794      861.116
09/24/2014  02:40:00      -88.881      -30.714       -4.449       22.757       16.420        9.026      517.883      269.611       81.476        0.487        0.043       94.039        3.188        0.001      341.241       15.816      861.133
09/24/2014  02:41:00      -37.971      -11.992       -4.405        6.989        6.806        4.067       48.847       46.327       16.541        0.086        0.006       39.820        1.498        0.001      341.360       16.018      861.147
09/24/2014  02:42:00      -54.294      -18.842       -7.843       18.952        7.846        6.571      359.160       61.556       43.177        0.191        0.023       57.471        5.622        0.010      341.306       15.926      861.155
09/24/2014  02:43:00      -62.288      -16.543      -11.891       11.050       10.839        8.663      122.100      117.476       75.050        0.230        0.016       64.447        5.540        0.007      341.223       15.787      861.155
09/24/2014  02:44:00      -26.653      -44.029       -7.487       22.618       11.380        7.512      511.585      129.512       56.427        0.170        0.035       51.468        6.569        0.016      341.206       15.758      861.154
09/24/2014  02:45:00      -38.814      -31.898      -12.324       19.676       31.318       11.994      387.131      980.795      143.852        0.209        0.076       50.239       16.391        0.106      341.193       15.736      861.176
09/24/2014  02:46:00     -125.437      -23.727      -19.154       16.660       16.730       10.722      277.541      279.883      114.955        0.867        0.034      127.661        9.997        0.006      341.211       15.768      861.192
09/24/2014  02:47:00     -110.714      -30.853       -4.555       25.841       24.918       15.210      667.732      620.886      231.332        0.737        0.076      114.933       12.311        0.011      341.153       15.669      861.185
09/24/2014  02:48:00      -76.699      -11.190       -9.583       29.574       12.842       10.922      874.593      164.922      119.300        0.363        0.058       77.511       12.741        0.027      341.054       15.499      861.171
09/24/2014  02:49:00      -86.311       -6.108       -7.024       23.632       14.975       13.050      558.459      224.241      170.292        0.424        0.048       86.526       12.869        0.022      340.965       15.351      861.156
09/24/2014  02:50:00      -73.956      -20.424       -1.242       13.346       10.125        8.600      178.111      102.516       73.960        0.312        0.018       76.724        7.360        0.009      340.979       15.374      861.156
09/24/2014  02:51:00      -71.839      -33.632        0.726       12.676       22.298        8.816      160.674      497.186       77.725        0.351        0.037       79.322        9.702        0.015      341.069       15.525      861.150
09/24/2014  02:52:00     -100.072      -59.118      -15.507       16.554       17.713        8.139      274.033      313.756       66.244        0.720        0.033      116.229        6.795        0.003      341.496       16.248      861.148
09/24/2014  02:53:00     -109.320      -10.615      -14.094       12.596       17.642       10.437      158.657      311.241      108.932        0.642        0.029      109.834       11.311        0.011      341.507       16.268      861.142
09/24/2014  02:54:00      -22.744      -16.639        4.628       33.166       18.440       14.909     1099.995      340.021      222.286        0.124        0.083       28.181       13.813        0.240      341.294       15.906      861.153
09/24/2014  02:55:00       58.198       64.170       -0.128       39.211       30.117       22.902     1537.497      907.056      524.481        0.524        0.148       86.630       17.854        0.042      340.978       15.371      861.152
09/24/2014  02:56:00       36.910       71.903      -11.683       37.294       26.647       19.648     1390.862      710.040      386.027        0.458        0.124       80.823       17.010        0.044      340.823       15.110      861.138
09/24/2014  02:57:00      -55.993       58.415      -21.981       27.394       18.653       11.406      750.425      347.936      130.104        0.413        0.061       80.916       11.511        0.020      341.012       15.430      861.107
09/24/2014  02:58:00      -34.114       18.891       -3.567       36.575       17.525       14.661     1337.732      307.113      214.947        0.170        0.093       38.995       18.669        0.229      340.890       15.223      861.106
09/24/2014  02:59:00        5.575       26.725       21.493       15.175       24.469       27.769      230.291      598.753      771.143        0.140        0.080       27.300       19.698        0.521      340.792       15.058      861.125
09/24/2014  03:00:00        6.493       18.564       41.257       21.859       37.172       18.608      477.811     1381.724      346.250        0.215        0.110       19.667       19.642        0.998      340.789       15.053      861.117
09/24/2014  03:01:00        2.769      -12.718       21.157       10.754       19.466       14.354      115.652      378.918      206.045        0.066        0.035       13.016       14.153        1.182      340.871       15.190      861.113
09/24/2014  03:02:00      -24.339       18.993       -0.678       15.082       14.920        6.503      227.457      222.607       42.289        0.072        0.025       30.873        8.143        0.070      340.907       15.253      861.135
09/24/2014  03:03:00      -45.746      -20.765       -5.001       16.456       12.573        9.857      270.809      158.084       97.152        0.154        0.026       50.238        9.145        0.033      340.888       15.220      861.174
09/24/2014  03:04:00      -45.996      -26.832        1.250       23.608       13.290       14.331      557.354      176.612      205.383        0.189        0.047       53.250       16.270        0.093      340.749       14.984      861.176
09/24/2014  03:05:00      -70.882      -33.296       -5.147       18.377       22.402       15.186      337.707      501.851      230.622        0.361        0.054       78.313        9.048        0.013      340.806       15.083      861.149
09/24/2014  03:06:00      -50.773      -26.232       -2.025       20.886       18.716       12.710      436.235      350.300      161.554        0.211        0.047       57.149        9.441        0.027      340.742       14.974      861.138
09/24/2014  03:07:00      -40.643      -28.849        1.382       22.790       19.077       12.657      519.394      363.929      160.193        0.176        0.052       49.841       12.972        0.068      340.699       14.899      861.136
09/24/2014  03:08:00      -24.253      -26.496       -1.465       14.945        9.865        8.623      223.341       97.328       74.357        0.084        0.020       35.920        2.893        0.006      340.749       14.985      861.147
09/24/2014  03:09:00      -46.920      -10.654       -3.573        7.878        8.246        6.850       62.061       68.005       46.927        0.125        0.009       48.114        4.349        0.008      340.868       15.186      861.155
09/24/2014  03:10:00      -29.992       -0.148       -3.967       14.248       11.941        9.423      203.016      142.598       88.790        0.067        0.022       29.993        6.106        0.041      340.853       15.161      861.148
09/24/2014  03:11:00      -27.512       19.414       -7.414       19.887        7.998        7.908      395.476       63.975       62.530        0.086        0.026       33.672        9.998        0.088      340.802       15.074      861.133
09/24/2014  03:12:00      -93.708       24.197      -14.067       25.251       12.555        7.759      637.621      157.627       60.199        0.521        0.043       96.781        3.642        0.001      340.782       15.041      861.118
09/24/2014  03:13:00     -141.607      -10.296      -11.528       18.244       32.006       16.604      332.843     1024.384      275.694        1.096        0.082      141.981       11.839        0.007      340.544       14.636      861.117
09/24/2014  03:14:00     -136.223      -35.162      -11.229       29.470       24.274       16.955      868.493      589.236      287.477        1.083        0.087      140.688       13.371        0.009      340.418       14.424      861.114
09/24/2014  03:15:00      -91.610       11.272       -9.316       34.743       23.275       19.114     1207.094      541.746      365.361        0.536        0.106       92.301       17.940        0.038      340.622       14.769      861.105
09/24/2014  03:16:00      -43.279       -3.055       -3.490       25.763       18.867       14.841      663.723      355.965      220.250        0.157        0.062       43.387       15.942        0.135      340.668       14.846      861.059
09/24/2014  03:17:00      -12.926      -17.414      -11.633       11.004       17.282        6.027      121.079      298.682       36.325        0.053        0.023       21.687        4.144        0.037      340.690       14.885      861.044
09/24/2014  03:18:00       -5.375      -78.392      -12.671       18.618       28.277       20.642      346.627      799.569      426.073        0.395        0.079       78.576       13.040        0.028      340.641       14.802      861.085
09/24/2014  03:19:00     -100.323      -72.705      -23.777       36.576       35.652       19.376     1337.818     1271.070      375.413        0.945        0.149      123.898       13.362        0.012      340.548       14.645      861.145
09/24/2014  03:20:00     -127.062      -29.083      -17.798       24.941       18.018       14.259      622.067      324.641      203.321        0.923        0.058      130.347       12.528        0.009      340.571       14.684      861.144
09/24/2014  03:21:00      -95.416      -37.858       -5.220       20.236       15.236       16.250      409.498      232.148      264.072        0.574        0.045      102.652       14.030        0.019      340.565       14.674      861.098
09/24/2014  03:22:00      -94.644      -14.294      -15.281       18.520       14.657       13.197      342.983      214.823      174.167        0.506        0.037       95.717       12.937        0.018      340.549       14.647      861.042
09/24/2014  03:23:00      -71.225      -20.747      -15.733       18.356       16.070        9.185      336.933      258.234       84.367        0.322        0.034       74.185        7.029        0.009      340.536       14.624      861.025
09/24/2014  03:24:00      -86.961      -63.388      -17.200       27.048       21.467       18.568      731.571      460.839      344.779        0.671        0.077      107.612       10.511        0.010      340.479       14.529      861.045
09/24/2014  03:25:00      -98.186      -69.784       -4.443       47.237       43.064       30.672     2231.323     1854.482      940.790        0.978        0.251      120.459       26.170        0.047      340.410       14.413      861.075
09/24/2014  03:26:00      -80.356      -47.670        1.120       49.310       37.552       29.470     2431.481     1410.123      868.455        0.672        0.236       93.431       27.522        0.087      340.377       14.356      861.084
09/24/2014  03:27:00      -88.946      -11.019       -7.274       45.112       31.926       23.014     2035.086     1019.241      529.655        0.583        0.179       89.625       22.890        0.065      340.404       14.400      861.072
09/24/2014  03:28:00      -90.351      -59.337       -4.798       40.095       44.205       24.496     1607.592     1954.038      600.043        0.793        0.208      108.093       20.565        0.036      340.502       14.567      861.054
09/24/2014  03:29:00     -128.915      -97.651       -5.938       33.958       49.447       28.597     1153.147     2444.989      817.772        1.530        0.221      161.725       16.729        0.011      340.386       14.371      861.037
09/24/2014  03:30:00     -139.418      -86.830       -6.980       37.189       39.803       27.957     1383.014     1584.262      781.596        1.539        0.187      164.247       17.980        0.012      340.283       14.196      861.028
09/24/2014  03:31:00     -124.990      -40.747       -3.719       51.032       32.600       21.980     2604.302     1062.739      483.132        1.072        0.208      131.464       24.144        0.034      340.265       14.167      861.027
09/24/2014  03:32:00      -91.122      -20.514       -3.011       34.837       24.835       19.188     1213.611      616.774      368.178        0.547        0.110       93.403       17.134        0.034      340.244       14.130      861.045
09/24/2014  03:33:00      -78.020      -28.852      -10.504       23.173       15.654       15.077      536.975      245.043      227.328        0.402        0.050       83.184       13.432        0.026      340.239       14.120      861.073
09/24/2014  03:34:00      -91.244      -51.096        0.714       32.905       24.953       20.914     1082.763      622.652      437.399        0.654        0.107      104.576       13.997        0.018      340.250       14.140      861.098
09/24/2014  03:35:00      -81.572      -41.529       -3.086       40.773       28.357       17.270     1662.398      804.107      298.250        0.558        0.138       91.535       20.658        0.051      340.262       14.160      861.115
09/24/2014  03:36:00     -109.253      -25.138      -16.205       23.164       13.600       10.811      536.548      184.968      116.876        0.683        0.042      112.107       10.426        0.009      340.304       14.230      861.126
09/24/2014  03:37:00     -152.606      -15.305      -17.519       47.113       28.390       24.114     2219.641      806.011      581.487        1.372        0.180      153.372       27.524        0.032      340.311       14.244      861.101
09/24/2014  03:38:00     -167.235       -7.183      -19.198       38.849       24.741       22.127     1509.278      612.093      489.597        1.550        0.131      167.389       23.216        0.019      340.336       14.286      861.063
09/24/2014  03:39:00      -90.833       -0.864      -10.371       27.359       19.352       17.803      748.531      374.511      316.961        0.490        0.072       90.837       13.754        0.023      340.452       14.480      861.035
09/24/2014  03:40:00     -106.676        7.931      -18.256       19.573       10.291        7.947      383.087      105.902       63.159        0.616        0.028      106.970        6.647        0.004      340.647       14.812      861.038
09/24/2014  03:41:00     -168.918       33.982      -15.317       75.321       41.657       23.853     5673.315     1735.282      568.980        1.895        0.399      172.303       22.431        0.017      340.462       14.497      861.066
09/24/2014  03:42:00     -144.515      -40.346      -11.625       59.359       56.162       36.218     3523.473     3154.143     1311.757        1.532        0.399      150.041       30.533        0.041      340.536       14.624      861.078
09/24/2014  03:43:00      -88.157      -19.116       -3.424       41.994       44.997       24.051     1763.490     2024.715      578.460        0.626        0.218       90.206       18.377        0.042      340.537       14.626      861.057
09/24/2014  03:44:00      -35.241       23.141        2.388       44.423       37.952       22.708     1973.436     1440.341      515.638        0.286        0.196       42.159       23.617        0.314      340.695       14.894      861.016
09/24/2014  03:45:00      -12.261       57.117       -0.496       41.732       37.542       20.274     1741.590     1409.384      411.027        0.349        0.178       58.418       11.586        0.039      341.009       15.424      861.016
09/24/2014  03:46:00      -60.927      -31.283       -4.633       22.930       23.033       14.911      525.764      530.500      222.329        0.300        0.064       68.489       15.075        0.048      340.693       14.890      861.041
09/24/2014  03:47:00      -98.902      -51.423      -19.280       39.525       26.806       15.002     1562.217      718.548      225.059        0.765        0.125      111.472       12.470        0.013      340.548       14.645      861.057
09/24/2014  03:48:00     -115.736      -67.308       -9.923       32.347       27.584       17.235     1046.341      760.852      297.051        1.006        0.105      133.885       10.626        0.006      340.432       14.449      861.052
09/24/2014  03:49:00      -88.741      -46.569       -5.141       16.109       14.248       11.580      259.489      202.992      134.103        0.533        0.030      100.218        7.954        0.006      340.446       14.470      861.016
09/24/2014  03:50:00      -38.542       -5.832       -0.102       25.371       29.595       14.713      643.700      875.878      216.462        0.163        0.087       38.981        9.569        0.060      340.400       14.396      860.982
09/24/2014  03:51:00      -66.227      -18.151       -1.376       34.616       45.739       16.401     1198.243     2092.048      268.986        0.414        0.178       68.670       17.528        0.065      340.482       14.533      860.977
09/24/2014  03:52:00       -5.781      -10.348       -3.873       13.375        7.869       11.677      178.892       61.913      136.357        0.027        0.019       11.853        7.845        0.438      340.493       14.551      860.997
09/24/2014  03:53:00       20.320      -36.381      -10.568       21.034       27.313       13.794      442.445      745.979      190.273        0.161        0.069       41.671       11.486        0.076      340.715       14.928      861.015
09/24/2014  03:54:00       31.088       -0.462       -3.146       17.326       26.390       14.232      300.178      696.426      202.542        0.109        0.060       31.091       14.472        0.217      340.870       15.190      861.017
09/24/2014  03:55:00       38.681       44.904       14.018       27.471        9.071       12.121      754.649       82.274      146.917        0.235        0.049       59.267       14.996        0.064      340.740       14.970      860.996
09/24/2014  03:56:00        5.461       72.334       -8.951        9.551       23.864        8.431       91.218      569.474       71.078        0.304        0.037       72.539        5.583        0.006      340.795       15.061      860.991
09/24/2014  03:57:00      -13.992      -12.296        0.320       52.662       23.190       22.747     2773.315      537.796      517.439        0.209        0.191       18.627       14.674        0.621      340.625       14.775      861.023
09/24/2014  03:58:00     -141.348     -101.520        2.237       56.662       45.257       34.526     3210.610     2048.186     1192.062        1.837        0.323      174.028       32.229        0.034      340.426       14.436      861.049
09/24/2014  03:59:00      -23.265      -23.413        2.835       59.743       46.092       15.814     3569.257     2124.488      250.082        0.352        0.297       33.007        9.294        0.079      340.593       14.721      861.046
09/24/2014  04:00:00       19.686       22.675       23.061       47.637       24.617       18.327     2269.300      606.014      335.862        0.232        0.161       30.028       12.901        0.185      340.464       14.503      861.014
09/24/2014  04:01:00      -70.905        2.407      -14.636       17.764       27.187        9.284      315.547      739.111       86.188        0.319        0.057       70.946        4.726        0.004      340.497       14.560      861.066
09/24/2014  04:02:00      -25.154      -45.789        8.827       52.185       18.298       21.156     2723.302      334.802      447.560        0.316        0.175       52.244       23.255        0.198      340.445       14.471      861.109
09/24/2014  04:03:00       14.036      -12.947       -2.234       12.283       11.241        8.486      150.883      126.355       72.009        0.036        0.017       19.096        5.000        0.069      340.801       15.073      861.108
09/24/2014  04:04:00       -3.487       -8.246      -10.435       14.328       13.377        5.487      205.301      178.932       30.109        0.030        0.021        8.952        4.753        0.282      340.652       14.819      861.102
09/24/2014  04:05:00      -55.066      -31.739       -8.254       13.514        7.966       10.593      182.627       63.461      112.212        0.223        0.018       63.558        7.191        0.013      340.809       15.084      861.111
09/24/2014  04:06:00      -33.980       -9.378        1.077       15.765        9.314        6.269      248.538       86.755       39.296        0.081        0.019       35.250        2.228        0.004      340.618       14.765      861.126
09/24/2014  04:07:00        8.705      -24.443       -2.317        7.644       18.474        6.334       58.437      341.293       40.125        0.056        0.022       25.947        7.037        0.074      340.788       15.051      861.138
09/24/2014  04:08:00      -18.042      -54.346      -14.775       40.040       34.903       16.271     1603.194     1218.186      264.758        0.329        0.154       57.263       17.938        0.098      340.578       14.696      861.154
09/24/2014  04:09:00     -105.549      -33.919       -7.855       22.893       14.311        9.182      524.087      204.806       84.317        0.658        0.041      110.866        5.096        0.002      340.580       14.698      861.152
09/24/2014  04:10:00      -58.552      -20.427       -8.009        8.922       11.827        6.892       79.604      139.884       47.497        0.209        0.013       62.013        3.290        0.003      340.627       14.779      861.144
09/24/2014  04:11:00      -82.969        7.133       -5.078       13.549       13.132        5.271      183.566      172.461       27.783        0.367        0.019       83.275        3.023        0.001      340.621       14.768      861.127
09/24/2014  04:12:00      -66.536        8.306      -10.880       27.035       15.840       14.258      730.901      250.892      203.294        0.290        0.059       67.052       14.537        0.047      340.434       14.452      861.118
09/24/2014  04:13:00      -78.218      -21.214       -9.655       12.335       12.964        6.420      152.160      168.058       41.222        0.351        0.018       81.044        4.501        0.003      340.492       14.550      861.108
09/24/2014  04:14:00     -102.302        7.977      -11.570       36.994       18.507       12.493     1368.567      342.500      156.082        0.626        0.093      102.613       12.174        0.014      340.462       14.499      861.120
09/24/2014  04:15:00      -43.296      -25.759        3.062       35.194       24.243       19.796     1238.635      587.726      391.878        0.238        0.111       50.379       10.917        0.047      340.347       14.305      861.152
09/24/2014  04:16:00      -11.776      -34.245        5.631       18.179       18.278       17.372      330.494      334.097      301.803        0.115        0.048       36.213       12.753        0.124      340.295       14.217      861.157
09/24/2014  04:17:00       -2.166       16.299       -1.487        9.647       15.574        5.767       93.065      242.552       33.258        0.032        0.018       16.442        5.079        0.095      340.311       14.244      861.167
09/24/2014  04:18:00       35.285       29.953       -0.503       16.138       12.613       15.351      260.423      159.097      235.661        0.140        0.033       46.284        8.588        0.034      340.146       13.966      861.158
09/24/2014  04:19:00       23.958      -22.059       -8.025       16.088       13.268        9.414      258.817      176.036       88.629        0.082        0.026       32.566        9.685        0.088      340.262       14.161      861.129
09/24/2014  04:20:00      -38.094       -1.862        0.967       25.137       29.351       17.554      631.848      861.452      308.132        0.163        0.090       38.140       16.380        0.184      340.298       14.223      861.133
09/24/2014  04:21:00      -23.692       30.041       -1.328       33.427       23.234       16.133     1117.334      539.828      260.279        0.169        0.096       38.259       20.118        0.276      339.917       13.578      861.167
09/24/2014  04:22:00       52.419       48.558       29.969       32.752       32.589       23.279     1072.674     1062.045      541.933        0.434        0.134       71.453       29.035        0.165      339.960       13.651      861.176
09/24/2014  04:23:00       45.613       73.920       55.000       26.613       21.225       16.463      708.249      450.482      271.027        0.600        0.071       86.860        9.363        0.012      340.077       13.850      861.151
09/24/2014  04:24:00       39.024       38.002       25.138       28.087       25.588       27.761      788.890      654.730      770.673        0.291        0.111       54.470       17.729        0.106      340.021       13.754      861.120
09/24/2014  04:25:00       45.075       16.870        0.510       24.722       16.659       11.596      611.154      277.524      134.464        0.167        0.051       48.128        8.592        0.032      340.005       13.727      861.108
09/24/2014  04:26:00      -55.867       -1.691       -8.476       39.484       20.646        9.925     1559.009      426.237       98.505        0.264        0.104       55.893       16.070        0.083      340.028       13.764      861.120
09/24/2014  04:27:00      -91.009      -22.756       -9.727       23.182       40.733       10.884      537.411     1659.179      118.470        0.560        0.116       93.811       15.618        0.028      340.120       13.919      861.137
09/24/2014  04:28:00      -51.370       37.411       -8.901       17.396        7.390        7.382      302.611       54.619       54.493        0.226        0.021       63.549        7.039        0.012      340.071       13.839      861.139
09/24/2014  04:29:00      -44.884       -0.878      -10.340        9.750       18.786        5.541       95.059      352.901       30.698        0.130        0.024       44.892        3.863        0.007      340.025       13.760      861.120
09/24/2014  04:30:00      -11.522      -27.656       -1.341       13.995        8.336        8.517      195.872       69.485       72.543        0.062        0.017       29.960        5.720        0.036      340.015       13.743      861.130
09/24/2014  04:31:00       -5.141      -16.294        1.902        8.007       11.272        7.809       64.119      127.064       60.983        0.027        0.013       17.086        5.398        0.100      340.100       13.889      861.148
09/24/2014  04:32:00       17.393       57.480       49.261       31.443       26.587       31.926      988.671      706.885     1019.256        0.437        0.136       60.054       22.249        0.137      339.890       13.534      861.172
09/24/2014  04:33:00        9.582       14.039       31.078       24.769       40.287       24.028      613.518     1623.070      577.357        0.203        0.141       16.997       21.156        1.549      339.862       13.487      861.173
09/24/2014  04:34:00      -19.984      -12.573        4.936       26.205       14.936       11.746      686.707      223.086      137.963        0.081        0.052       23.610        9.265        0.154      340.020       13.754      861.166
09/24/2014  04:35:00      -11.848       -6.878        1.514       24.458       12.119        8.966      598.202      146.869       80.384        0.051        0.041       13.700        9.999        0.533      339.904       13.557      861.168
09/24/2014  04:36:00        4.923       -9.881       -7.628        7.018       10.584        4.582       49.252      112.029       20.998        0.018        0.009       11.039        3.346        0.092      340.015       13.745      861.175
09/24/2014  04:37:00        8.983      -20.742      -11.743        8.104        8.563        7.290       65.669       73.331       53.138        0.042        0.010       22.603        2.195        0.009      340.102       13.889      861.179
09/24/2014  04:38:00       -0.598      -33.996      -15.170       15.101       18.150       10.022      228.048      329.411      100.447        0.102        0.033       34.001       10.020        0.087      340.095       13.880      861.181
09/24/2014  04:39:00      -54.336       -2.875       -5.011       15.441       11.532        7.856      238.434      132.998       61.719        0.171        0.022       54.412        6.516        0.014      340.089       13.867      861.179
09/24/2014  04:40:00      -50.402      -16.493       -5.493       20.442       10.712        9.198      417.866      114.750       84.611        0.173        0.031       53.032        8.193        0.024      339.922       13.587      861.173
09/24/2014  04:41:00       -8.134      -17.362       -5.030       15.241       10.998        5.547      232.283      120.956       30.772        0.039        0.019       19.173        4.487        0.055      340.022       13.755      861.149
09/24/2014  04:42:00      -40.436       -1.191      -14.621       18.210        6.794        5.680      331.600       46.153       32.257        0.113        0.021       40.454        1.421        0.001      340.033       13.776      861.142
09/24/2014  04:43:00      -80.804      -12.833       -3.597       20.516       15.174        9.812      420.915      230.254       96.270        0.373        0.037       81.817        9.252        0.013      339.918       13.581      861.165
09/24/2014  04:44:00      -19.389      -34.999       -2.860       24.293       15.629       13.334      590.149      244.264      177.796        0.131        0.051       40.011        8.112        0.041      339.892       13.536      861.202
09/24/2014  04:45:00      -47.306      -15.668        0.631       12.648        9.456        6.950      159.983       89.423       48.301        0.139        0.015       49.834        7.043        0.020      339.933       13.608      861.204
09/24/2014  04:46:00        2.388        9.047       10.979       26.188        7.496       11.899      685.819       56.184      141.581        0.055        0.044        9.357       16.470        3.098      339.865       13.490      861.184
09/24/2014  04:47:00       31.019       37.553        1.256       11.607       12.919       15.114      134.723      166.899      228.447        0.145        0.027       48.707        8.273        0.029      339.956       13.646      861.158
09/24/2014  04:48:00      -30.360       36.117      -14.156       32.589       13.087        9.353     1062.069      171.265       87.487        0.187        0.066       47.182        8.180        0.030      340.035       13.779      861.148
09/24/2014  04:49:00      -70.081       40.666      -18.846       18.211       27.821       11.315      331.623      773.996      128.031        0.408        0.062       81.025       11.130        0.019      339.940       13.618      861.153
09/24/2014  04:50:00      -51.027       45.246      -12.441        5.893       12.929        8.200       34.723      167.159       67.232        0.254        0.013       68.198        6.342        0.009      340.164       13.996      861.172
09/24/2014  04:51:00      -37.836       -1.939       -3.572       13.350       17.603        6.448      178.228      309.853       41.574        0.099        0.026       37.885        6.169        0.027      340.058       13.816      861.175
09/24/2014  04:52:00      -41.716      -24.184       -3.589       14.057       15.946       13.003      197.594      254.276      169.080        0.148        0.031       48.219        9.194        0.036      339.745       13.290      861.169
09/24/2014  04:53:00      -34.808      -12.536        0.524       23.528       13.653       12.655      553.562      186.396      160.149        0.113        0.045       36.996        8.894        0.058      339.563       12.982      861.164
09/24/2014  04:54:00      -46.892      -17.236       -7.341        8.533        8.417        6.234       72.813       70.845       38.866        0.137        0.009       49.960        3.823        0.006      339.656       13.139      861.166
09/24/2014  04:55:00      -27.767      -25.728        1.324       27.675       11.804        9.207      765.926      139.341       84.763        0.121        0.050       37.855       11.358        0.090      339.621       13.082      861.167
09/24/2014  04:56:00      -14.023      -13.765       -0.479       11.581        9.603       13.154      134.120       92.209      173.036        0.039        0.020       19.650        5.875        0.089      339.573       12.998      861.176
09/24/2014  04:57:00      -41.733      -20.579       -7.760       15.612        7.426       12.836      243.726       55.148      164.773        0.134        0.023       46.531       11.491        0.061      339.549       12.958      861.179
09/24/2014  04:58:00      -44.165      -19.009       -9.963       12.209        8.289        8.703      149.056       68.704       75.744        0.135        0.015       48.082        5.644        0.014      339.678       13.177      861.193
09/24/2014  04:59:00      -38.602      -13.710      -10.514        8.783       10.204        7.705       77.138      104.124       59.368        0.101        0.012       40.964        6.649        0.026      339.693       13.203      861.216
09/24/2014  05:00:00      -79.722      -19.120      -13.876       21.255       14.122        9.886      451.792      199.436       97.732        0.383        0.037       81.982       10.556        0.017      339.572       12.997      861.235
09/24/2014  05:01:00     -107.960        4.363      -17.427       25.415       13.467       13.265      645.926      181.349      175.972        0.649        0.050      108.048        9.949        0.008      339.498       12.871      861.250
09/24/2014  05:02:00      -91.668       -6.580      -17.396       30.864       17.673       15.181      952.599      312.329      230.450        0.512        0.075       91.904       15.139        0.027      339.487       12.855      861.262
09/24/2014  05:03:00      -73.349      -15.601      -11.203       19.297       15.226       12.150      372.364      231.831      147.621        0.325        0.038       74.989        9.894        0.017      339.423       12.747      861.272
09/24/2014  05:04:00      -71.503       16.005      -15.512       11.753       12.229        9.637      138.143      149.551       92.878        0.299        0.019       73.273        7.473        0.010      339.547       12.955      861.263
09/24/2014  05:05:00      -58.766       21.501       -7.626        9.287       14.505        7.065       86.245      210.402       49.913        0.216        0.017       62.576        3.756        0.004      339.808       13.396      861.230
09/24/2014  05:06:00      -49.763       23.113       -7.826       10.033       12.451        6.420      100.660      155.025       41.222        0.168        0.015       54.868        5.669        0.011      339.807       13.394      861.231
09/24/2014  05:07:00      -29.753      -16.685       -2.714       12.185       23.318        8.647      148.467      543.737       74.762        0.097        0.038       34.112        6.483        0.036      339.668       13.159      861.264
09/24/2014  05:08:00      -21.495      -28.586       -3.507        8.840       11.504        6.562       78.145      132.342       43.061        0.077        0.013       35.766        5.828        0.027      339.668       13.159      861.297
09/24/2014  05:09:00      -23.573      -10.680       -1.760       11.805       11.843        9.776      139.354      140.265       95.578        0.052        0.019       25.880        7.661        0.088      339.719       13.245      861.306
09/24/2014  05:10:00      -51.950       -7.143       -9.806       11.083       10.924        8.332      122.824      119.325       69.414        0.158        0.016       52.439        5.937        0.013      339.773       13.337      861.298
09/24/2014  05:11:00      -75.886      -10.651       -9.924       13.227        7.664        6.655      174.962       58.736       44.295        0.312        0.014       76.630        5.215        0.005      339.633       13.101      861.286
09/24/2014  05:12:00      -86.918      -16.062      -18.480       14.537       13.370       11.391      211.324      178.760      129.752        0.434        0.026       88.389        8.521        0.009      339.396       12.700      861.262
09/24/2014  05:13:00      -78.785      -26.578       -9.656       16.030       15.576       11.824      256.966      242.625      139.803        0.382        0.032       83.147        6.743        0.007      339.158       12.299      861.252
09/24/2014  05:14:00      -93.852      -33.180      -12.201       34.793       28.207       18.811     1210.542      795.637      353.859        0.621        0.118       99.544       12.252        0.015      339.217       12.399      861.266
09/24/2014  05:15:00      -50.683      -27.974       -2.870       22.790       30.626       19.453      519.380      937.981      378.427        0.260        0.092       57.891       13.111        0.051      339.219       12.403      861.293
09/24/2014  05:16:00      -44.241      -25.114       -8.432       28.017       13.329       13.676      784.969      177.656      187.040        0.190        0.057       50.873       13.771        0.073      339.307       12.552      861.291
09/24/2014  05:17:00      -67.608        5.463       -9.360       10.111       11.702        9.138      102.238      136.937       83.500        0.251        0.016       67.828        3.155        0.002      339.487       12.853      861.259
09/24/2014  05:18:00      -70.536        5.422       -9.958       12.556       19.591        7.004      157.659      383.794       49.055        0.285        0.030       70.744        2.828        0.002      339.627       13.090      861.241
09/24/2014  05:19:00      -67.950      -42.043      -21.052       15.384       15.575       12.236      236.661      242.581      149.725        0.373        0.031       79.905        8.690        0.012      339.560       12.976      861.246
09/24/2014  05:20:00      -71.721      -37.956      -11.633       24.630       17.776       15.538      606.618      315.981      241.420        0.394        0.058       81.145        9.974        0.015      339.373       12.661      861.258
09/24/2014  05:21:00     -118.340      -57.663      -17.009       24.327       24.695       16.010      591.816      609.841      256.306        0.954        0.073      131.641        9.971        0.006      339.306       12.550      861.266
09/24/2014  05:22:00     -123.921      -45.274       -9.610       24.901       27.172       15.282      620.057      738.298      233.539        0.954        0.080      131.933       14.282        0.012      339.216       12.397      861.259
09/24/2014  05:23:00     -116.346      -15.081      -11.432       23.370       17.827       15.912      546.162      317.784      253.206        0.751        0.056      117.319       12.231        0.011      339.164       12.309      861.245
09/24/2014  05:24:00      -27.215        3.303        2.786       36.326       21.465       16.470     1319.553      460.747      271.248        0.141        0.103       27.415       16.599        0.367      339.061       12.137      861.226
09/24/2014  05:25:00      -54.867      -16.667       -6.524       24.890       21.515       13.834      619.497      462.878      191.382        0.230        0.064       57.342       10.472        0.033      339.216       12.398      861.236
09/24/2014  05:26:00      -77.902      -41.052        0.905       24.932       32.053       17.726      621.589     1027.404      314.222        0.486        0.098       88.056        9.918        0.013      339.334       12.596      861.272
09/24/2014  05:27:00      -64.842      -29.482        2.065       38.691       32.994       18.714     1497.027     1088.632      350.200        0.401        0.147       71.230       15.210        0.046      339.374       12.664      861.310
09/24/2014  05:28:00      -62.502       -9.992       -6.644       22.205       15.996       16.122      493.065      255.880      259.925        0.253        0.050       63.295       14.919        0.056      339.328       12.586      861.327
09/24/2014  05:29:00     -116.807       18.836      -14.546       42.557       32.774       18.615     1811.120     1074.121      346.515        0.872        0.162      118.316        8.361        0.005      339.378       12.671      861.317
09/24/2014  05:30:00      -55.079       22.099        0.356       33.947       21.936       20.252     1152.394      481.176      410.162        0.278        0.102       59.347       17.121        0.083      339.325       12.580      861.303
09/24/2014  05:31:00      -77.054      -11.087      -10.754       26.939       32.295       15.879      725.719     1042.981      252.155        0.410        0.101       77.848        9.762        0.016      339.440       12.775      861.284
09/24/2014  05:32:00      -91.305      -21.402      -14.024       22.179       24.601       14.711      491.893      605.204      216.424        0.515        0.066       93.779        8.421        0.008      339.300       12.539      861.302
09/24/2014  05:33:00      -82.572      -54.578      -13.402       55.751       24.869       18.680     3108.224      618.475      348.932        0.703        0.204       98.979       15.077        0.023      339.107       12.215      861.342
09/24/2014  05:34:00       23.766      -47.394       -5.250       23.119       23.183       21.617      534.471      537.457      467.294        0.219        0.077       53.019       14.689        0.077      339.122       12.240      861.369
09/24/2014  05:35:00        4.540      -14.564       -3.225       18.215       19.751       13.072      331.773      390.101      170.889        0.057        0.045       15.255        8.663        0.322      339.138       12.266      861.358
09/24/2014  05:36:00      -44.723      -22.266       -3.615       23.834       18.903       16.028      568.078      357.337      256.889        0.185        0.059       49.959       13.984        0.078      339.107       12.213      861.344
09/24/2014  05:37:00      -48.325       -2.526       -1.877       44.367       29.715       17.528     1968.401      882.964      307.246        0.275        0.158       48.391       14.412        0.089      339.168       12.316      861.333
09/24/2014  05:38:00      -44.530        0.114       -3.300       37.588       30.694       20.724     1412.852      942.111      429.486        0.239        0.139       44.530        8.771        0.039      339.275       12.496      861.306
09/24/2014  05:39:00      -82.815      -39.793      -11.497       30.636       25.259       21.443      938.560      638.024      459.781        0.530        0.102       91.880       13.622        0.022      339.215       12.395      861.309
09/24/2014  05:40:00      -60.995      -38.127        3.890       64.695       40.130       30.172     4185.437     1610.437      910.357        0.595        0.335       71.931       25.676        0.127      339.147       12.281      861.342
09/24/2014  05:41:00      -93.550      -12.866       -4.435       44.928       39.101       25.170     2018.569     1528.901      633.553        0.656        0.209       94.431       19.999        0.045      339.055       12.127      861.341
09/24/2014  05:42:00      -61.927      -26.368       -5.807       26.074       25.862       17.523      679.851      668.852      307.044        0.311        0.083       67.307       12.934        0.037      339.237       12.432      861.314
09/24/2014  05:43:00      -99.669      -11.545      -14.001       49.548       27.679       18.117     2455.034      766.130      328.235        0.691        0.177      100.335       17.512        0.030      339.288       12.518      861.306
09/24/2014  05:44:00     -148.441      -41.299      -11.745       46.069       36.392       22.634     2122.360     1324.402      512.316        1.392        0.198      154.079       19.664        0.016      339.111       12.220      861.314
09/24/2014  05:45:00     -160.962       49.035      -15.405       50.520       33.013       25.370     2552.222     1089.869      643.620        1.642        0.214      168.265       19.964        0.014      339.110       12.220      861.320
09/24/2014  05:46:00     -157.195       47.846      -11.490       55.985       29.264       25.506     3134.363      856.407      650.561        1.589        0.232      164.315       26.378        0.026      339.204       12.377      861.314
09/24/2014  05:47:00     -125.798       77.052      -13.349       37.929       39.943       22.692     1438.627     1595.468      514.916        1.274        0.177      147.520       22.007        0.022      339.539       12.942      861.319
09/24/2014  05:48:00     -129.346       75.556      -27.735       22.097       59.030       15.884      488.263     3484.509      252.286        1.372        0.211      149.797        8.524        0.003      339.844       13.456      861.315
09/24/2014  05:49:00      -87.095       26.283      -10.958       37.484       29.821       18.590     1405.022      889.302      345.594        0.552        0.132       90.974       17.633        0.038      339.830       13.432      861.331
09/24/2014  05:50:00      -88.935      -30.572       -4.956       43.702       29.034       20.026     1909.877      842.999      401.037        0.601        0.158       94.043       18.119        0.037      339.412       12.729      861.373
09/24/2014  05:51:00      -67.319       39.364       -8.498       54.558       28.113       19.964     2976.567      790.345      398.576        0.516        0.208       77.983       16.311        0.044      339.532       12.930      861.386
09/24/2014  05:52:00       -0.085       27.158        4.514       11.790       18.769       11.279      139.001      352.288      127.220        0.069        0.031       27.158       10.105        0.138      339.400       12.707      861.377
09/24/2014  05:53:00      -11.273        7.373       -0.036       18.480        6.546       10.253      341.528       42.849      105.123        0.034        0.024       13.471       10.780        0.640      339.438       12.770      861.374
09/24/2014  05:54:00      -39.415       -1.087       -8.046        9.081        6.641        5.688       82.470       44.101       32.349        0.089        0.008       39.430        3.897        0.010      339.389       12.690      861.381
09/24/2014  05:55:00      -87.510      -19.432      -16.883       17.610       11.440       10.116      310.127      130.864      102.325        0.443        0.027       89.642        8.599        0.009      339.228       12.417      861.378
09/24/2014  05:56:00     -101.508      -23.498      -11.532       36.832       22.023       19.333     1356.630      485.018      373.751        0.660        0.111      104.192       19.758        0.036      339.016       12.060      861.378
09/24/2014  05:57:00      -72.729        2.786      -13.213       35.318       29.565       18.282     1247.333      874.074      334.220        0.396        0.123       72.782       16.764        0.053      339.008       12.048      861.371
09/24/2014  05:58:00      -65.992        4.109      -15.845       26.639       25.945       19.086      709.612      673.120      364.278        0.318        0.087       66.119       14.583        0.049      339.222       12.406      861.357
09/24/2014  05:59:00      -96.195      -17.631      -14.877       30.212       33.312       20.623      912.782     1109.681      425.294        0.612        0.122       97.798       13.009        0.018      339.060       12.135      861.362
09/24/2014  06:00:00     -115.391      -35.661      -13.770       24.320       24.691       17.024      591.443      609.622      289.832        0.813        0.075      120.776       10.191        0.007      339.057       12.129      861.364
09/24/2014  06:01:00      -95.669      -27.861      -12.391       35.435       26.342       15.065     1255.626      693.927      226.959        0.613        0.109       99.643       13.201        0.018      339.036       12.094      861.369
09/24/2014  06:02:00      -63.182      -31.734       -9.733       28.033       21.020       21.366      785.834      441.835      456.517        0.339        0.084       70.704       10.760        0.023      339.079       12.166      861.371
09/24/2014  06:03:00      -18.464      -13.982        1.282       21.932       12.830       12.016      481.025      164.606      144.376        0.066        0.040       23.161        4.845        0.044      338.982       12.002      861.363
09/24/2014  06:04:00      -65.320      -17.814      -12.034       16.454       16.373       12.061      270.727      268.080      145.469        0.271        0.034       67.705        7.860        0.013      339.102       12.206      861.358
09/24/2014  06:05:00      -70.718      -22.152      -18.214       16.175       12.834       10.833      261.616      164.714      117.362        0.318        0.027       74.107        7.752        0.011      339.092       12.189      861.348
09/24/2014  06:06:00      -99.175      -30.314      -13.874       13.899       15.958       13.937      193.196      254.644      194.248        0.579        0.032      103.704        4.738        0.002      339.091       12.188      861.329
09/24/2014  06:07:00     -152.169       -7.707      -24.808       17.920       17.379       12.903      321.131      302.025      166.488        1.231        0.039      152.364       10.949        0.005      339.105       12.209      861.302
09/24/2014  06:08:00     -132.523      -27.756      -20.114       41.370       28.486       19.700     1711.442      811.435      388.106        1.082        0.146      135.398       18.629        0.019      339.135       12.259      861.300
09/24/2014  06:09:00      -45.230      -16.233        6.461       51.396       32.872       25.813     2641.547     1080.598      666.291        0.337        0.219       48.055       19.919        0.172      339.124       12.242      861.289
09/24/2014  06:10:00      -89.069      -26.565       -7.063       36.323       29.773       19.610     1319.361      886.423      384.564        0.564        0.130       92.946       16.797        0.033      339.035       12.091      861.269
09/24/2014  06:11:00     -110.411      -21.515      -14.995       42.694       37.110       22.470     1822.761     1377.128      504.883        0.829        0.185      112.487       17.561        0.024      339.054       12.123      861.259
09/24/2014  06:12:00     -129.757      -28.666      -12.058       46.919       42.674       29.370     2201.357     1821.107      862.620        1.134        0.244      132.886       23.845        0.032      339.004       12.041      861.269
09/24/2014  06:13:00      -41.656      -10.218        9.478       74.007       37.621       30.645     5477.056     1415.332      939.147        0.488        0.392       42.891       37.762        0.775      339.052       12.121      861.276
09/24/2014  06:14:00     -134.017      -31.740      -17.482       47.189       52.770       35.069     2226.792     2784.624     1229.832        1.276        0.312      137.724       28.993        0.044      339.474       12.831      861.280
09/24/2014  06:15:00     -121.438       -7.125       -2.656       95.381       48.723       39.833     9097.557     2373.974     1586.702        1.393        0.653      121.647       52.147        0.184      339.297       12.533      861.273
09/24/2014  06:16:00     -173.557       31.128      -20.970       61.822       47.496       34.721     3821.974     2255.875     1205.574        1.941        0.364      176.326       24.545        0.019      339.543       12.947      861.254
09/24/2014  06:17:00     -185.554       20.714      -22.771       62.841       64.715       30.974     3949.026     4188.041      959.403        2.224        0.455      186.706       24.295        0.017      339.373       12.660      861.259
09/24/2014  06:18:00     -149.114        2.713      -13.769       56.239       38.632       27.799     3162.834     1492.395      772.804        1.393        0.271      149.138       26.378        0.031      339.380       12.673      861.266
09/24/2014  06:19:00     -167.777      -27.787      -28.937       57.677       50.082       31.640     3326.592     2508.197     1001.089        1.830        0.342      170.062       28.937        0.029      339.212       12.389      861.278
09/24/2014  06:20:00     -207.287        3.023      -25.353       48.079       37.469       29.583     2311.606     1403.931      875.174        2.410        0.230      207.309       20.097        0.009      339.189       12.350      861.286
09/24/2014  06:21:00     -135.864      -25.434      -20.060       63.990       49.977       26.157     4094.733     2497.718      684.179        1.339        0.364      138.224       25.251        0.033      339.173       12.324      861.287
09/24/2014  06:22:00     -112.971       -6.981       -9.449       65.815       35.335       29.304     4331.652     1248.570      858.741        0.967        0.322      113.186       31.110        0.076      339.196       12.363      861.301
09/24/2014  06:23:00      -80.457        5.321       -0.380       67.920       40.762       29.108     4613.069     1661.559      847.261        0.681        0.356       80.633       26.550        0.108      339.381       12.674      861.287
09/24/2014  06:24:00     -157.093       -5.880      -19.575       69.874       31.276       26.667     4882.351      978.216      711.119        1.583        0.329      157.203       33.209        0.045      339.260       12.469      861.281
09/24/2014  06:25:00     -126.795        5.421       -3.226       68.736       54.471       32.223     4724.678     2967.106     1038.325        1.242        0.437      126.911       33.418        0.069      339.417       12.735      861.272
09/24/2014  06:26:00     -163.609       32.967      -13.600       82.438       53.283       34.228     6795.988     2839.027     1171.590        1.942        0.540      166.898       27.301        0.027      339.565       12.983      861.246
09/24/2014  06:27:00     -181.667      -14.221      -11.838       64.944       40.509       33.845     4217.749     1640.964     1145.485        2.017        0.350      182.222       37.314        0.042      339.589       13.024      861.269
09/24/2014  06:28:00     -188.694       -7.841      -18.966       69.882       50.434       29.632     4883.443     2543.621      878.073        2.216        0.415      188.857       32.120        0.029      339.464       12.813      861.286
09/24/2014  06:29:00     -138.710      -14.984       -7.596       69.677       46.349       35.846     4854.944     2148.240     1284.960        1.390        0.414      139.517       38.806        0.077      339.458       12.805      861.291
09/24/2014  06:30:00     -132.368      -11.235       -8.176       70.530       42.493       28.648     4974.487     1805.689      820.729        1.266        0.380      132.844       31.613        0.057      339.485       12.851      861.278
09/24/2014  06:31:00     -147.485      -17.604      -10.799       44.381       31.305       26.854     1969.713      979.974      721.161        1.292        0.184      148.532       24.662        0.028      339.681       13.180      861.279
09/24/2014  06:32:00     -120.117      -49.589       -1.402       44.755       37.166       25.207     2003.047     1381.341      635.405        1.045        0.201      129.951       15.306        0.014      339.380       12.674      861.290
09/24/2014  06:33:00     -137.992      -45.423      -19.829       26.936       27.098       15.128      725.549      734.292      228.857        1.159        0.084      145.275       10.525        0.005      339.489       12.856      861.276
09/24/2014  06:34:00     -120.221      -49.870       -9.938       26.704       32.449       18.218      713.082     1052.969      331.886        0.957        0.105      130.154       15.434        0.014      339.365       12.647      861.280
09/24/2014  06:35:00      -32.443      -35.081        5.855       35.274       29.188       18.385     1244.240      851.964      338.002        0.238        0.122       47.784       20.823        0.190      339.360       12.640      861.297
09/24/2014  06:36:00      -45.338      -28.738       -0.947       19.678       13.399       12.602      387.206      179.527      158.803        0.180        0.036       53.678        7.821        0.021      339.479       12.839      861.341
09/24/2014  06:37:00      -28.958      -32.557       -3.970       19.661       13.058        9.215      386.560      170.513       84.910        0.128        0.032       43.572       10.155        0.054      339.689       13.194      861.375
09/24/2014  06:38:00      -68.996      -30.479      -10.880       20.443       20.713       14.755      417.933      429.025      217.701        0.344        0.053       75.428        6.502        0.007      339.691       13.198      861.408
09/24/2014  06:39:00       10.077      -23.748        5.402       30.249       22.202       13.767      914.991      492.916      189.527        0.115        0.080       25.797        3.905        0.023      339.651       13.131      861.411
09/24/2014  06:40:00       30.919      -15.553        6.227       15.054       28.342       13.557      226.613      803.280      183.780        0.122        0.061       34.611        8.291        0.057      339.765       13.323      861.409
09/24/2014  06:41:00       69.906       47.005       10.864       47.701       35.931       23.322     2275.357     1291.039      543.932        0.566        0.206       84.239       19.745        0.055      339.357       12.633      861.440
09/24/2014  06:42:00       96.161      101.228       78.918       48.697       39.078       34.222     2371.386     1527.057     1171.137        1.540        0.253      139.621       20.593        0.022      339.070       12.152      861.451
09/24/2014  06:43:00      140.128       96.878       38.141       50.542       40.232       42.434     2554.450     1618.603     1800.652        1.822        0.299      170.356       20.817        0.015      338.918       11.895      861.460
09/24/2014  06:44:00      153.285       73.625       32.508       76.054       52.104       46.533     5784.194     2714.875     2165.365        2.032        0.533      170.050       42.576        0.063      338.895       11.856      861.453
09/24/2014  06:45:00      135.799       84.607       45.973       44.060       36.792       37.683     1941.319     1353.676     1419.995        1.621        0.236      159.999       21.887        0.019      339.006       12.044      861.434
09/24/2014  06:46:00       90.297       56.221       34.090       34.839       26.762       21.100     1213.769      716.196      445.197        0.743        0.119      106.369       16.467        0.024      339.117       12.230      861.438
09/24/2014  06:47:00       25.641       12.499       -1.424       28.977       21.143       12.428      839.649      447.006      154.446        0.113        0.072       28.525        6.906        0.059      338.839       11.764      861.434
09/24/2014  06:48:00      -19.639      -26.116       -6.702       14.124       18.071       10.806      199.497      326.549      116.776        0.088        0.032       32.676        8.258        0.064      339.126       12.245      861.445
09/24/2014  06:49:00      -20.885       -2.577        3.038       10.314        6.634        9.501      106.388       44.009       90.271        0.035        0.012       21.044        6.725        0.102      339.083       12.174      861.448
09/24/2014  06:50:00        9.863        8.473       12.180       12.387       16.324       14.127      153.450      266.479      199.581        0.047        0.031       13.002       11.753        0.817      339.031       12.084      861.431
09/24/2014  06:51:00       40.703       44.612       -0.538       18.685       16.767       15.269      349.131      281.125      233.140        0.226        0.043       60.390        8.572        0.020      339.171       12.321      861.388
09/24/2014  06:52:00       39.176       42.649       -1.430       25.957       28.283       23.635      673.762      799.925      558.626        0.269        0.102       57.911       12.445        0.046      338.885       11.841      861.378
09/24/2014  06:53:00      156.282       81.000       13.571       54.494       31.532       19.931     2969.542      994.247      397.240        1.776        0.218      176.026        5.810        0.001      338.748       11.609      861.367
09/24/2014  06:54:00      192.493       83.875       23.606       43.879       40.525       34.318     1925.394     1642.250     1177.740        2.469        0.237      209.973       18.077        0.007      338.754       11.618      861.346
09/24/2014  06:55:00       85.878       56.954       24.476       50.091       37.259       33.574     2509.116     1388.261     1127.229        0.812        0.251      103.047       25.286        0.060      338.505       11.202      861.371
09/24/2014  06:56:00      -19.683       75.098      -16.244       24.531       46.175       18.708      601.775     2132.092      349.997        0.469        0.154       77.635       23.842        0.094      338.571       11.312      861.387
09/24/2014  06:57:00       -2.977       73.665       -7.180       25.534       16.801       12.800      651.969      282.279      163.827        0.329        0.055       73.726       10.143        0.019      338.911       11.883      861.371
09/24/2014  06:58:00       11.506       16.366        5.218       18.913       19.855       13.310      357.690      394.208      177.148        0.068        0.046       20.006       10.548        0.278      338.911       11.884      861.366
09/24/2014  06:59:00        3.502      -56.139       -2.284       15.284       31.305       21.447      233.612      980.010      459.967        0.242        0.084       56.248        9.599        0.029      338.865       11.806      861.383
09/24/2014  07:00:00        6.338       12.092        4.656       21.498       22.872       16.032      462.156      523.113      257.041        0.072        0.062       13.652       12.575        0.848      338.948       11.948      861.403
09/24/2014  07:01:00       16.789       34.733       -6.755       12.222       20.603       10.862      149.385      424.477      117.985        0.111        0.035       38.578        9.958        0.067      338.855       11.790      861.436
09/24/2014  07:02:00       62.517       37.366       11.825       35.627       26.111       16.419     1269.298      681.776      269.572        0.383        0.111       72.833       22.307        0.094      338.853       11.786      861.459
09/24/2014  07:03:00       89.855       53.875        3.659       36.917       21.138       18.211     1362.836      446.794      331.631        0.657        0.107      104.769       16.438        0.025      338.806       11.708      861.448
09/24/2014  07:04:00       26.507       40.092        5.656       23.392       23.919       16.942      547.205      572.141      287.027        0.187        0.070       48.063       11.726        0.060      338.793       11.687      861.464
09/24/2014  07:05:00      117.417       60.309       21.502       35.570       23.611       33.578     1265.208      557.477     1127.459        1.042        0.148      132.000       15.608        0.014      338.810       11.715      861.490
09/24/2014  07:06:00       58.791       83.993       75.967       54.682       38.858       28.359     2990.153     1509.928      804.244        1.079        0.265      102.525       21.917        0.046      338.764       11.637      861.522
09/24/2014  07:07:00       11.077       55.122       70.854       32.836       42.554       29.880     1078.209     1810.836      892.789        0.598        0.189       56.224       28.909        0.264      338.752       11.615      861.561
09/24/2014  07:08:00      -11.288      -14.496       26.221       25.402       28.471       17.308      645.241      810.596      299.581        0.139        0.088       18.373       17.977        0.957      338.758       11.629      861.579
09/24/2014  07:09:00       24.280       15.503       19.937       20.760       20.314       18.257      430.969      412.645      333.323        0.120        0.059       28.807       12.484        0.188      338.750       11.613      861.568
09/24/2014  07:10:00       26.736       28.177       22.134       26.105       25.264       18.125      681.492      638.274      328.515        0.182        0.082       38.843       12.794        0.108      338.755       11.623      861.566
09/24/2014  07:11:00       34.704       47.482       31.535       37.039       38.073       24.025     1371.915     1449.566      577.194        0.393        0.170       58.813       18.140        0.095      338.749       11.612      861.586
09/24/2014  07:12:00       70.181       75.533       32.592       31.688       24.126       30.511     1004.139      582.061      930.927        0.710        0.126      103.105       19.816        0.037      338.705       11.538      861.580
09/24/2014  07:13:00       87.444       74.936       44.378       26.332       22.567       27.089      693.369      509.272      733.808        0.858        0.097      115.160       12.613        0.012      338.655       11.455      861.582
09/24/2014  07:14:00       16.985        8.365       34.676       32.487       36.291       21.260     1055.410     1317.030      451.976        0.219        0.141       18.933       13.853        0.535      338.735       11.588      861.610
09/24/2014  07:15:00       13.083       17.149       37.788       28.093       35.805       24.018      789.240     1282.028      576.841        0.227        0.132       21.570        8.345        0.150      338.798       11.693      861.652
09/24/2014  07:16:00       37.467       61.060       53.901       56.084       43.765       33.549     3145.374     1915.398     1125.529        0.711        0.309       71.638       22.148        0.096      338.732       11.584      861.646
09/24/2014  07:17:00      119.197       60.674       28.900       40.740       40.892       32.523     1659.753     1672.166     1057.752        1.156        0.219      133.751       21.450        0.026      338.624       11.402      861.615
09/24/2014  07:18:00      135.275       77.096       31.633       28.769       27.091       37.155      827.645      733.911     1380.521        1.409        0.147      155.702       17.598        0.013      338.650       11.445      861.620
09/24/2014  07:19:00       61.709       62.912       36.061       32.599       29.702       34.670     1062.690      882.194     1202.014        0.611        0.157       88.124       13.581        0.024      338.683       11.500      861.640
09/24/2014  07:20:00      102.393       49.810       18.040       18.775       25.042       24.029      352.490      627.103      577.416        0.742        0.078      113.866       12.421        0.012      338.736       11.589      861.639
09/24/2014  07:21:00      123.318       62.745        2.736       29.460       24.190       23.455      867.910      585.136      550.146        1.058        0.100      138.363       15.703        0.013      338.791       11.684      861.614
09/24/2014  07:22:00       75.133       60.077       26.445       48.042       33.737       37.485     2308.013     1138.169     1405.107        0.740        0.243       96.199       25.230        0.069      338.786       11.674      861.606
09/24/2014  07:23:00       33.673       32.589       39.216       35.684       33.906       16.654     1273.359     1149.644      277.343        0.322        0.135       46.861        8.359        0.032      338.841       11.766      861.628
09/24/2014  07:24:00       89.818       75.755       32.045       41.921       35.870       24.617     1757.359     1286.634      605.985        0.924        0.182      117.499       20.711        0.031      338.844       11.772      861.629
09/24/2014  07:25:00       40.090        4.137      -26.957       27.751       26.872       17.001      770.108      722.082      289.026        0.207        0.089       40.303       12.073        0.090      338.954       11.956      861.650
09/24/2014  07:26:00        6.107       28.691       11.321       17.500       26.440       20.690      306.259      699.088      428.078        0.121        0.072       29.334       15.820        0.291      339.001       12.035      861.668
09/24/2014  07:27:00       67.340       49.918       16.499       32.242       31.571       32.999     1039.554      996.759     1088.951        0.521        0.156       83.824       17.650        0.044      339.072       12.155      861.681
09/24/2014  07:28:00       -0.015       -9.151       16.286       13.026       15.184       13.213      169.666      230.550      174.581        0.046        0.029        9.151        9.381        1.051      339.261       12.473      861.695
09/24/2014  07:29:00       95.680       66.706       33.046       43.727       20.100       20.390     1912.086      404.001      415.768        0.871        0.137      116.638        7.606        0.004      339.145       12.276      861.685
09/24/2014  07:30:00       73.332       51.248        1.800       26.245       24.531       16.203      688.803      601.749      262.534        0.478        0.078       89.465        6.550        0.005      339.167       12.315      861.668
09/24/2014  07:31:00       33.023       34.165        9.755       18.303       20.917       15.606      335.014      437.512      243.553        0.168        0.051       47.516        4.769        0.010      339.228       12.418      861.673
09/24/2014  07:32:00       43.746       31.554        6.044       21.206       13.902       19.771      449.683      193.269      390.897        0.199        0.052       53.939        8.489        0.025      339.187       12.349      861.691
09/24/2014  07:33:00        1.428       21.482       -2.366       13.453       15.200       10.368      180.973      231.044      107.496        0.049        0.026       21.529        8.948        0.173      339.294       12.527      861.705
09/24/2014  07:34:00      -14.282       34.961       -0.181       19.455       15.489       15.463      378.513      239.919      239.090        0.114        0.043       37.765       12.051        0.102      339.327       12.583      861.708
09/24/2014  07:35:00      -14.559       13.776       -0.615       16.407        9.637       12.946      269.196       92.875      167.598        0.047        0.026       20.044       11.250        0.315      339.410       12.724      861.690
09/24/2014  07:36:00       20.812        8.443        5.088       17.766       13.268       10.716      315.615      176.031      114.837        0.057        0.030       22.459       10.240        0.208      339.590       13.028      861.681
09/24/2014  07:37:00      -25.620      -19.201       -4.199       12.101        6.541        7.608      146.441       42.784       57.875        0.064        0.012       32.017        2.870        0.008      339.617       13.073      861.680
09/24/2014  07:38:00       -9.815        9.474       11.344       24.859       14.858       14.714      617.973      220.761      216.511        0.068        0.053       13.642       14.285        1.097      339.878       13.514      861.668
09/24/2014  07:39:00      -26.313       47.051       -3.515       24.639       16.095       12.950      607.093      259.053      167.693        0.198        0.052       53.909        9.126        0.029      339.814       13.405      861.632
09/24/2014  07:40:00       -3.473       40.178       -5.356       12.020       23.914       13.660      144.486      571.887      186.594        0.128        0.045       40.328       13.768        0.117      339.923       13.589      861.620
09/24/2014  07:41:00      -19.929        9.087      -11.913       10.990       30.296        7.117      120.770      917.828       50.654        0.086        0.054       21.903        3.057        0.019      339.862       13.486      861.645
09/24/2014  07:42:00      -30.964      -31.739       -4.948       29.113       10.774       12.887      847.557      116.078      166.075        0.156        0.056       44.341        7.206        0.026      339.660       13.147      861.655
09/24/2014  07:43:00      -68.714      -43.797      -12.806       11.400       11.731        9.486      129.962      137.620       89.982        0.358        0.018       81.485        8.402        0.011      339.792       13.369      861.653
09/24/2014  07:44:00      -64.946      -13.359        0.863       41.568       43.780       18.391     1727.939     1916.657      338.243        0.419        0.199       66.306       16.349        0.061      339.873       13.506      861.634
09/24/2014  07:45:00      -53.636       13.167      -12.526       33.083       36.071       16.994     1094.518     1301.124      288.805        0.295        0.134       55.228        7.222        0.017      340.148       13.970      861.623
09/24/2014  07:46:00      -72.484      -16.520       -5.145       45.673       33.882       21.858     2086.005     1147.984      477.793        0.463        0.186       74.343       20.652        0.077      340.065       13.830      861.637
09/24/2014  07:47:00      -47.287      -23.870        9.070       45.826       31.597       20.259     2100.057      998.370      410.418        0.320        0.175       52.970       22.734        0.184      339.868       13.496      861.637
09/24/2014  07:48:00        1.000      -25.772       15.735       19.251       20.532       16.144      370.619      421.558      260.622        0.098        0.053       25.792       12.142        0.222      340.035       13.778      861.642
09/24/2014  07:49:00      -29.709       -2.596       15.644       16.200       20.103       12.077      262.431      404.116      145.847        0.097        0.041       29.822        8.566        0.082      340.059       13.820      861.651
09/24/2014  07:50:00      -12.135       11.934       16.149       22.203       16.149       16.666      492.953      260.806      277.764        0.079        0.052       17.021       11.648        0.468      340.248       14.139      861.659
09/24/2014  07:51:00       21.460        5.969       16.041       16.440        7.254        8.497      270.263       52.620       72.200        0.057        0.020       22.275        6.844        0.094      340.188       14.037      861.668
09/24/2014  07:52:00       30.195       14.527        4.260       19.157       13.000       10.785      367.008      168.993      116.309        0.090        0.033       33.508        5.781        0.030      340.250       14.141      861.673
09/24/2014  07:53:00       36.997       25.714        2.788       18.051       12.970       15.637      325.838      168.219      244.519        0.139        0.037       45.055        7.033        0.024      340.149       13.971      861.672
09/24/2014  07:54:00       33.618      -32.697       -0.261       29.174       31.031       23.301      851.095      962.911      542.960        0.228        0.118       46.896       17.230        0.135      340.039       13.785      861.692
09/24/2014  07:55:00       29.049       -9.376       17.807       23.339       23.087       25.086      544.687      533.002      629.309        0.148        0.085       30.524       12.031        0.155      340.430       14.445      861.721
09/24/2014  07:56:00       36.229       -4.950       21.279       20.606       21.487       20.203      424.606      461.705      408.149        0.154        0.065       36.565       13.227        0.131      340.347       14.307      861.727
09/24/2014  07:57:00       42.700      -28.464        4.855       26.188       28.188       25.882      685.795      794.558      669.860        0.240        0.108       51.318       20.695        0.163      340.260       14.158      861.728
09/24/2014  07:58:00       -8.327       -7.441        5.719       28.980       16.111       14.912      839.862      259.566      222.379        0.074        0.066       11.167        8.547        0.586      340.445       14.469      861.749
09/24/2014  07:59:00      -11.803       -8.787       13.561       17.464       17.450        9.517      305.001      304.502       90.579        0.055        0.035       14.714        9.197        0.391      340.592       14.718      861.759
09/24/2014  08:00:00      -21.020      -13.258        6.929       15.990       20.010       12.346      255.686      400.408      152.431        0.074        0.040       24.852       14.400        0.336      340.521       14.599      861.742
09/24/2014  08:01:00       -2.493       -7.383        8.405        7.315       12.129        9.723       53.510      147.121       94.532        0.021        0.015        7.792        9.086        1.360      340.744       14.976      861.718
09/24/2014  08:02:00       -0.792       -5.633       10.720        8.477       10.691       10.173       71.854      114.304      103.494        0.022        0.014        5.688        6.288        1.222      340.706       14.913      861.711
09/24/2014  08:03:00        3.733       -5.668       13.278        9.074        9.811       11.975       82.333       96.246      143.400        0.027        0.016        6.787        4.096        0.364      340.800       15.072      861.725
09/24/2014  08:04:00        5.156      -19.257        2.733       10.414        9.897        9.960      108.456       97.952       99.196        0.036        0.015       19.936        4.367        0.048      340.451       14.479      861.729
09/24/2014  08:05:00       -2.494      -25.134       -8.713       13.156       12.002       11.306      173.089      144.048      127.824        0.058        0.022       25.258        6.388        0.064      340.593       14.720      861.742
09/24/2014  08:06:00        8.394      -21.584       -5.624       15.183       21.132        8.259      230.538      446.553       68.213        0.066        0.037       23.159        5.991        0.067      340.580       14.700      861.758
09/24/2014  08:07:00       -0.325      -32.253        5.988       20.954       40.163       26.691      439.054     1613.058      712.385        0.192        0.138       32.254       22.650        0.493      340.657       14.828      861.783
09/24/2014  08:08:00       27.467      -22.870       12.189       27.348       23.903       26.042      747.920      571.352      678.203        0.171        0.100       35.741       20.037        0.314      340.713       14.924      861.802
09/24/2014  08:09:00       32.077      -12.289       -2.033       25.040       19.039       24.726      626.993      362.502      611.383        0.139        0.080       34.351        6.784        0.039      340.543       14.636      861.801
09/24/2014  08:10:00       38.782      -23.199        6.191       29.518       31.126       26.963      871.306      968.816      727.026        0.232        0.128       45.191       22.354        0.245      340.556       14.658      861.792
09/24/2014  08:11:00       -1.506      -10.508       -2.098       15.857       18.512       17.058      251.444      342.677      290.967        0.050        0.044       10.615        3.850        0.132      340.591       14.718      861.797
09/24/2014  08:12:00       39.001       -0.542        3.060       35.913       20.817       21.616     1289.778      433.358      467.237        0.186        0.110       39.005        7.322        0.035      340.483       14.535      861.816
09/24/2014  08:13:00       33.250       -3.572       12.916       44.174       33.140       29.048     1951.363     1098.250      843.814        0.259        0.195       33.441       31.000        0.859      340.866       15.182      861.850
09/24/2014  08:14:00        5.480       16.656       33.503       26.334       22.625       18.695      693.470      511.910      349.501        0.149        0.078       17.534       20.965        1.430      341.156       15.674      861.879
09/24/2014  08:15:00       10.530       42.470       -2.035       17.409       24.044       20.352      303.070      578.118      414.211        0.161        0.065       43.756       18.489        0.179      340.899       15.238      861.887
09/24/2014  08:16:00       14.660       58.496       -5.115       21.020       28.563       15.018      441.845      815.847      225.553        0.257        0.074       60.305       17.908        0.088      340.947       15.320      861.869
09/24/2014  08:17:00       -9.485       74.895      -11.127       12.463       20.821       12.843      155.327      433.501      164.948        0.329        0.038       75.493        4.191        0.003      341.112       15.599      861.840
09/24/2014  08:18:00       -6.906       75.062      -19.718       19.339       22.205       10.041      374.009      493.054      100.823        0.352        0.048       75.379        6.259        0.007      341.013       15.431      861.818
09/24/2014  08:19:00       33.889       30.048        8.161       22.501       20.648       19.680      506.305      426.360      387.291        0.172        0.066       45.291       17.467        0.149      341.277       15.877      861.818
09/24/2014  08:20:00       24.767       22.641       12.982       20.191       26.435       25.754      407.687      698.812      663.250        0.153        0.088       33.556       16.916        0.254      341.151       15.665      861.819
09/24/2014  08:21:00       44.537       -1.672       10.063       33.179       25.254       25.232     1100.868      637.753      636.662        0.223        0.119       44.569       19.757        0.197      340.952       15.327      861.815
09/24/2014  08:22:00       55.117       54.171       -1.032       30.540       26.922       23.298      932.674      724.770      542.806        0.409        0.110       77.281       21.985        0.081      341.079       15.543      861.800
09/24/2014  08:23:00       68.583       64.946        0.087       33.195       32.952       26.722     1101.887     1085.805      714.060        0.591        0.145       94.454       17.987        0.036      341.268       15.862      861.772
09/24/2014  08:24:00       68.092       48.895       11.115       34.744       26.971       28.936     1207.176      727.458      837.288        0.496        0.139       83.828       15.590        0.035      341.344       15.991      861.758
09/24/2014  08:25:00       88.326       64.111        3.376       35.228       23.493       25.636     1240.997      551.918      657.190        0.719        0.123      109.141       21.604        0.039      341.225       15.790      861.751
09/24/2014  08:26:00       66.224       34.020        9.199       42.713       27.184       28.426     1824.378      738.966      808.045        0.450        0.169       74.452       19.155        0.066      341.552       16.343      861.766
09/24/2014  08:27:00       59.745       39.166        9.411       37.667       30.424       24.152     1418.804      925.638      583.300        0.406        0.146       71.438       20.683        0.084      341.675       16.554      861.788
09/24/2014  08:28:00       79.941       34.222       17.881       50.176       36.699       32.709     2517.673     1346.795     1069.911        0.641        0.247       86.958       20.742        0.057      341.722       16.633      861.798
09/24/2014  08:29:00      111.989       81.454       13.950       27.800       33.784       31.031      772.837     1141.381      962.892        1.112        0.144      138.479       13.965        0.010      341.378       16.049      861.792
09/24/2014  08:30:00       58.342       43.980        9.602       47.378       30.877       34.010     2244.646      953.397     1156.658        0.489        0.218       73.062       18.208        0.062      341.474       16.213      861.795
09/24/2014  08:31:00       16.234       -6.938       19.793       20.761       35.541       26.470      431.006     1263.191      700.679        0.155        0.120       17.655       25.840        2.142      341.578       16.389      861.806
09/24/2014  08:32:00       25.824      -21.333      -10.371       29.362       20.187       15.072      862.144      407.530      227.154        0.136        0.075       33.496       11.213        0.112      341.134       15.637      861.821
09/24/2014  08:33:00       27.929        4.309        2.363       25.263       27.037       22.446      638.242      731.011      503.830        0.134        0.094       28.260       19.485        0.475      341.366       16.029      861.820
09/24/2014  08:34:00       32.553       10.902       16.050       28.629       32.151       19.268      819.605     1033.702      371.239        0.183        0.111       34.330        8.334        0.059      341.356       16.012      861.839
09/24/2014  08:35:00       10.518       -3.788       17.679       29.684       29.440       27.500      881.134      866.719      756.227        0.147        0.125       11.180       23.089        4.265      341.557       16.353      861.868
09/24/2014  08:36:00       28.843       37.522       31.910       35.927       22.609       17.141     1290.747      511.181      293.807        0.268        0.105       47.327       10.840        0.052      341.508       16.268      861.862
09/24/2014  08:37:00       14.667       -0.913        8.531       21.152       24.886       23.260      447.402      619.321      541.020        0.095        0.080       14.695       16.463        1.255      341.584       16.398      861.847
09/24/2014  08:38:00       20.418       25.974        8.988       28.555       17.090       20.879      815.398      292.060      435.933        0.136        0.077       33.038        8.006        0.059      341.818       16.796      861.822
09/24/2014  08:39:00       15.305       25.229        3.378       23.175       16.193       18.458      537.097      262.226      340.699        0.101        0.057       29.508       12.075        0.167      341.893       16.923      861.814
09/24/2014  08:40:00       -5.244       23.407        2.221       18.513       19.280       15.062      342.729      371.713      226.870        0.076        0.047       23.987        9.863        0.169      341.948       17.015      861.821
09/24/2014  08:41:00       -3.646        2.083       -6.071       11.622       19.142       10.847      135.079      366.426      117.647        0.034        0.031        4.199        9.564        5.188      341.872       16.886      861.834
09/24/2014  08:42:00       12.002       13.103        2.582       14.587       22.008       14.883      212.779      484.350      221.509        0.062        0.046       17.769       10.969        0.381      342.011       17.122      861.857
09/24/2014  08:43:00       52.011       40.859       16.068       33.952       17.228       20.291     1152.744      296.810      411.726        0.325        0.093       66.140       11.509        0.030      341.907       16.947      861.876
09/24/2014  08:44:00       27.890       15.452       36.257       33.804       41.559       33.065     1142.687     1727.135     1093.281        0.315        0.198       31.885       24.865        0.608      342.072       17.226      861.895
09/24/2014  08:45:00       26.674       -8.285       30.271       34.349       45.316       37.210     1179.835     2053.516     1384.610        0.316        0.231       27.931       27.844        0.994      341.761       16.698      861.920
09/24/2014  08:46:00       37.624       49.831       60.872       30.895       42.256       29.776      954.511     1785.585      886.582        0.561        0.181       62.439       14.745        0.056      342.112       17.295      861.934
09/24/2014  08:47:00       61.856       44.721       35.136       45.008       43.167       33.955     2025.753     1863.424     1152.948        0.605        0.252       76.329       21.813        0.082      341.901       16.936      861.923
09/24/2014  08:48:00       37.576       24.617       25.607       24.490       25.893       23.242      599.783      670.440      540.174        0.224        0.091       44.922       17.494        0.152      342.031       17.158      861.911
09/24/2014  08:49:00       29.168       58.479       46.537       42.795       27.444       30.370     1831.386      753.188      922.320        0.497        0.175       65.350       24.981        0.146      341.929       16.984      861.893
09/24/2014  08:50:00        9.764       32.417       42.951       18.001       28.635       23.763      324.040      819.943      564.669        0.235        0.085       33.856       13.068        0.149      342.255       17.537      861.904
09/24/2014  08:51:00       17.874       -5.075       19.881       26.962       35.449       25.572      726.970     1256.652      653.915        0.169        0.132       18.581       20.058        1.165      342.027       17.152      861.921
09/24/2014  08:52:00       52.437       53.265       43.474       56.957       29.737       39.839     3244.120      884.274     1587.127        0.660        0.286       74.745       42.904        0.329      342.074       17.230      861.923
09/24/2014  08:53:00       98.169       73.198       44.141       58.806       39.959       38.463     3458.189     1596.731     1479.391        1.174        0.327      122.454       33.861        0.076      341.946       17.010      861.912
09/24/2014  08:54:00       -0.998       36.884       62.212       20.328       35.522       23.516      413.218     1261.787      552.995        0.373        0.111       36.897       19.597        0.282      342.287       17.591      861.901
09/24/2014  08:55:00       66.339       46.327        9.725       38.991       27.567       26.092     1520.272      759.961      680.803        0.480        0.148       80.914       25.226        0.097      342.093       17.261      861.915
09/24/2014  08:56:00       66.333       65.706        7.369       22.866       21.101       24.401      522.870      445.263      595.400        0.517        0.078       93.367       10.308        0.012      341.919       16.967      861.916
09/24/2014  08:57:00       10.385        6.060       16.321       21.881       28.226       20.468      478.775      796.701      418.959        0.105        0.085       12.024       12.710        1.117      342.414       17.809      861.923
09/24/2014  08:58:00       33.197       -1.095       21.988       30.808       49.610       24.907      949.125     2461.110      620.362        0.281        0.202       33.215       32.272        0.944      342.244       17.518      861.920
09/24/2014  08:59:00       -2.292       12.050       22.230       17.304       30.234       27.556      299.416      914.076      759.353        0.131        0.099       12.266       15.668        1.631      342.352       17.702      861.924
09/24/2014  09:00:00       46.974       62.729       59.551       49.236       34.784       25.572     2424.221     1209.940      653.928        0.699        0.214       78.367       20.061        0.066      342.338       17.678      861.926
09/24/2014  09:01:00      105.663       65.399       28.235       38.193       34.944       31.102     1458.683     1221.057      967.325        0.994        0.182      124.265       19.639        0.025      342.308       17.628      861.905
09/24/2014  09:02:00       90.722       73.263       10.818       48.051       32.389       30.171     2308.926     1049.050      910.310        0.899        0.213      116.610       19.238        0.027      342.439       17.850      861.896
09/24/2014  09:03:00       63.228       45.478        6.532       37.168       31.070       22.294     1381.434      965.348      497.036        0.448        0.142       77.885       12.998        0.028      342.424       17.822      861.903
09/24/2014  09:04:00       38.545       22.446       18.112       27.476       22.704       23.333      754.929      515.466      544.417        0.207        0.091       44.604       16.587        0.138      342.731       18.345      861.917
09/24/2014  09:05:00       45.383       56.319       40.265       35.261       26.984       24.954     1243.319      728.115      622.700        0.472        0.130       72.328       16.815        0.054      342.783       18.433      861.908
09/24/2014  09:06:00       44.695       55.519       73.851       72.902       57.445       42.689     5314.658     3299.925     1822.392        1.048        0.522       71.274       37.151        0.272      342.718       18.323      861.882
09/24/2014  09:07:00       58.741       17.355       32.368       79.788       79.702       30.293     6366.083     6352.355      917.672        0.922        0.682       61.252       22.724        0.138      342.526       17.996      861.888
09/24/2014  09:08:00       26.361      -29.746       33.651       30.078       50.990       34.891      904.701     2599.954     1217.403        0.372        0.236       39.746       29.388        0.547      342.671       18.245      861.913
09/24/2014  09:09:00       11.070        3.567       31.203       31.579       51.734       27.782      997.224     2676.423      771.816        0.278        0.222       11.630       25.187        4.690      343.028       18.850      861.928
09/24/2014  09:10:00      114.343       68.863       22.893       46.084       21.616       25.356     2123.692      467.251      642.922        1.079        0.162      133.478       15.944        0.014      342.485       17.927      861.916
09/24/2014  09:11:00      100.423       78.071       29.887       36.719       25.898       29.091     1348.299      670.721      846.266        0.997        0.143      127.200       21.207        0.028      342.584       18.097      861.883
09/24/2014  09:12:00       67.209       40.843        6.023       58.647       29.063       28.707     3439.454      844.657      824.072        0.566        0.255       78.646       26.609        0.114      342.842       18.535      861.860
09/24/2014  09:13:00       37.625       51.888        0.754       44.613       33.497       26.797     1990.302     1122.057      718.074        0.397        0.192       64.094       22.423        0.122      342.921       18.669      861.885
09/24/2014  09:14:00       72.533       49.049       18.444       20.763       23.119       18.776      431.104      534.495      352.538        0.466        0.066       87.561       12.609        0.021      342.702       18.295      861.911
09/24/2014  09:15:00       79.398       54.449       24.122       19.739       26.224       21.265      389.641      687.685      452.186        0.569        0.076       96.274        5.620        0.003      342.835       18.522      861.930
09/24/2014  09:16:00       54.353       47.063       36.585       41.720       39.940       29.543     1740.548     1595.224      872.794        0.536        0.210       71.897       19.887        0.077      343.134       19.032      861.919
09/24/2014  09:17:00       20.072       29.785       27.667       48.840       44.899       34.930     2385.389     2015.933     1220.084        0.384        0.281       35.916       19.283        0.288      343.125       19.016      861.915
09/24/2014  09:18:00       17.798       27.758       53.842       31.419       34.615       26.129      987.144     1198.230      682.705        0.343        0.143       32.974       16.451        0.249      343.435       19.544      861.912
09/24/2014  09:19:00       17.954       67.667       91.118       45.247       60.897       43.857     2047.265     3708.390     1923.419        1.044        0.384       70.009       40.984        0.343      342.975       18.760      861.920
09/24/2014  09:20:00       24.858        7.793       51.904       36.058       50.805       30.280     1300.174     2581.185      916.853        0.408        0.240       26.051       23.007        0.780      343.369       19.432      861.923
09/24/2014  09:21:00       53.753       46.284       34.829       55.229       33.120       34.272     3050.197     1096.936     1174.592        0.578        0.266       70.934       31.835        0.201      343.212       19.164      861.927
09/24/2014  09:22:00       72.687       71.896       14.098       38.729       31.025       30.898     1499.918      962.540      954.686        0.703        0.171      102.237       11.175        0.012      343.058       18.902      861.934
09/24/2014  09:23:00       59.418       38.823       17.164       33.570       27.784       25.689     1126.922      771.933      659.926        0.395        0.128       70.977       14.659        0.043      343.341       19.385      861.932
09/24/2014  09:24:00       66.831       38.669       12.443       48.688       34.825       28.753     2370.552     1212.776      826.724        0.526        0.221       77.212       23.561        0.093      343.489       19.638      861.929
09/24/2014  09:25:00       72.654       43.293       11.207       55.077       41.490       34.681     3033.498     1721.441     1202.783        0.662        0.298       84.575       29.336        0.120      343.587       19.805      861.931
09/24/2014  09:26:00       89.575       47.660       11.815       52.289       32.518       36.434     2734.185     1057.439     1327.421        0.778        0.256      101.465       20.694        0.042      343.355       19.408      861.928
09/24/2014  09:27:00       97.110       57.349       20.635       37.063       29.598       36.718     1373.636      876.063     1348.222        0.837        0.180      112.780       22.496        0.040      343.335       19.376      861.934
09/24/2014  09:28:00        5.414       40.514       54.127       24.431       35.954       32.080      596.867     1292.654     1029.111        0.376        0.146       40.874       21.171        0.268      343.595       19.818      861.936
09/24/2014  09:29:00       29.192       45.821       49.595       47.064       43.081       32.216     2215.058     1855.958     1037.846        0.526        0.255       54.330       23.186        0.182      343.649       19.909      861.929
09/24/2014  09:30:00       43.502        8.687       39.064       35.237       55.202       34.514     1241.665     3047.209     1191.244        0.449        0.274       44.361       23.550        0.282      343.410       19.503      861.924
09/24/2014  09:31:00       35.073       56.289       75.729       37.398       33.049       24.663     1398.581     1092.225      608.244        0.662        0.155       66.321       16.050        0.059      343.384       19.459      861.903
09/24/2014  09:32:00       16.506       23.597       59.778       31.327       41.441       17.356      981.402     1717.343      301.242        0.370        0.150       28.796       17.443        0.367      343.649       19.909      861.874
09/24/2014  09:33:00       79.089       72.305       50.994       56.749       39.801       37.395     3220.494     1584.133     1398.400        1.014        0.310      107.159       28.684        0.072      343.427       19.531      861.856
09/24/2014  09:34:00       37.012       81.079       79.171       42.681       37.443       24.983     1821.655     1401.999      624.168        0.903        0.192       89.128       19.512        0.048      343.376       19.445      861.854
09/24/2014  09:35:00       93.512       82.779       66.310       30.981       44.985       41.264      959.851     2023.678     1702.757        1.234        0.234      124.887       26.352        0.045      343.505       19.666      861.856
09/24/2014  09:36:00       15.146       77.359       77.612       47.528       39.145       39.677     2258.952     1532.330     1574.234        0.880        0.268       78.827       32.331        0.168      343.688       19.976      861.850
09/24/2014  09:37:00       40.529       77.635       70.338       45.798       29.515       32.451     2097.425      871.155     1053.077        0.832        0.201       87.578       29.537        0.114      343.656       19.920      861.848
09/24/2014  09:38:00        6.242       46.314       72.366       37.896       48.781       41.682     1436.080     2379.600     1737.420        0.649        0.278       46.733       38.124        0.666      343.614       19.850      861.846
09/24/2014  09:39:00       51.963       45.876       52.429       46.681       34.309       30.242     2179.104     1177.101      914.559        0.591        0.214       69.316       23.354        0.114      343.677       19.956      861.848
09/24/2014  09:40:00       61.982       59.511       65.061       47.331       42.542       40.127     2240.191     1809.815     1610.165        0.864        0.283       85.926       38.594        0.202      343.605       19.835      861.849
09/24/2014  09:41:00       45.537       13.284       20.263       36.917       30.688       25.609     1362.887      941.757      655.812        0.281        0.148       47.435       13.885        0.086      343.521       19.692      861.857
09/24/2014  09:42:00       56.231       52.484       12.804       55.468       40.452       29.359     3076.644     1636.341      861.955        0.583        0.279       76.919       19.593        0.065      343.914       20.361      861.849
09/24/2014  09:43:00       65.252       33.770       26.475       42.834       37.964       29.355     1834.771     1441.232      861.738        0.512        0.207       73.473       14.160        0.037      343.884       20.309      861.833
09/24/2014  09:44:00       60.578       63.470       61.750       68.229       35.087       27.338     4655.155     1231.126      747.345        0.907        0.332       87.739       22.437        0.065      344.111       20.697      861.807
09/24/2014  09:45:00       99.742       69.182       36.542       45.214       33.155       42.838     2044.323     1099.245     1835.097        1.052        0.249      121.386       29.149        0.058      343.785       20.142      861.805
09/24/2014  09:46:00       26.595       -3.370       19.197       44.362       53.440       37.962     1967.957     2855.833     1441.097        0.367        0.313       26.807       29.742        1.231      343.831       20.220      861.790
09/24/2014  09:47:00       76.341       78.742       63.271       37.888       31.610       40.814     1435.496      999.167     1665.747        1.007        0.205      109.673       19.845        0.033      343.829       20.217      861.777
09/24/2014  09:48:00       42.250       20.464       52.126       48.139       61.273       24.946     2317.374     3754.347      622.297        0.581        0.335       46.945       24.089        0.263      344.052       20.597      861.778
09/24/2014  09:49:00       18.472      -23.942       11.954       27.740       40.989       21.468      769.526     1680.099      460.886        0.198        0.146       30.240       18.344        0.368      343.857       20.265      861.765
09/24/2014  09:50:00        9.729       16.587       35.116       24.570       41.905       26.605      603.690     1756.014      707.832        0.233        0.153       19.230       20.566        1.144      344.300       21.022      861.767
09/24/2014  09:51:00       56.042      -62.344       -0.656       36.487       38.230       29.440     1331.309     1461.495      866.689        0.534        0.183       83.830       25.722        0.094      343.741       20.066      861.756
09/24/2014  09:52:00       31.135      -24.202       28.989       22.975       32.475       20.969      527.869     1054.610      439.688        0.221        0.101       39.435       18.158        0.212      344.065       20.620      861.740
09/24/2014  09:53:00       35.509       63.172       32.281       36.366       42.308       30.945     1322.509     1789.973      957.588        0.518        0.204       72.468       13.703        0.036      344.247       20.931      861.747
09/24/2014  09:54:00       23.782      -23.799        4.704       44.497       48.851       31.306     1980.026     2386.445      980.072        0.325        0.267       33.645       28.277        0.706      343.973       20.462      861.746
09/24/2014  09:55:00       36.107       12.664       28.277       33.787       52.344       28.944     1141.548     2739.943      837.734        0.349        0.236       38.264       24.039        0.395      344.417       21.220      861.732
09/24/2014  09:56:00       52.533       34.151       23.829       33.346       33.478       35.150     1111.976     1120.746     1235.555        0.398        0.173       62.658       17.104        0.075      344.643       21.608      861.717
09/24/2014  09:57:00       14.537       -3.722       13.565       26.084       35.656       29.824      680.394     1271.347      889.445        0.162        0.142       15.006       12.542        0.699      344.644       21.610      861.702
09/24/2014  09:58:00       29.407      -37.953       28.087       32.216       43.992       36.801     1037.868     1935.258     1354.319        0.371        0.216       48.012       31.632        0.434      344.539       21.431      861.708
09/24/2014  09:59:00       26.529       -6.061       28.206       35.530       56.057       35.603     1262.405     3142.406     1267.552        0.360        0.284       27.213       39.019        2.056      344.509       21.379      861.692
09/24/2014  10:00:00       20.617       12.646       49.772       28.376       25.243       23.223      805.183      637.186      539.288        0.252        0.099       24.186       12.587        0.271      344.980       22.183      861.690
09/24/2014  10:01:00       30.195       24.668       52.351       33.912       42.549       29.642     1150.009     1810.390      878.619        0.405        0.192       38.990       17.554        0.203      345.098       22.386      861.684
09/24/2014  10:02:00       41.304       19.193       42.348       35.983       48.423       35.057     1294.761     2344.773     1228.985        0.437        0.243       45.546       25.708        0.319      344.924       22.088      861.691
09/24/2014  10:03:00       59.107       58.428       46.019       53.105       56.441       46.343     2820.125     3185.556     2147.657        0.859        0.408       83.111       37.283        0.201      344.684       21.678      861.688
09/24/2014  10:04:00        9.762        1.040       30.704       47.470       45.746       30.182     2253.422     2092.733      910.960        0.315        0.263        9.817       24.410        6.182      344.782       21.846      861.678
09/24/2014  10:05:00       48.564        1.214       34.424       44.751       64.708       39.744     2002.632     4187.155     1579.562        0.566        0.388       48.579       41.337        0.724      344.615       21.559      861.670
09/24/2014  10:06:00       56.400       35.080       23.275       63.004       46.457       39.470     3969.519     2158.230     1557.915        0.632        0.384       66.420       15.655        0.056      344.799       21.874      861.652
09/24/2014  10:07:00       15.658      -12.365       13.394       25.465       30.490       26.139      648.487      929.651      683.256        0.142        0.113       19.952       10.996        0.304      344.982       22.189      861.658
09/24/2014  10:08:00       18.515       -0.929       22.712       28.379       23.061       29.080      805.344      531.829      845.674        0.152        0.109       18.538       14.928        0.648      344.978       22.181      861.663
09/24/2014  10:09:00       28.318      -41.469        9.416       23.161       35.158       27.863      536.418     1236.062      776.322        0.258        0.127       50.215       13.084        0.068      344.325       21.065      861.656
09/24/2014  10:10:00       20.469       26.626       21.303       25.754       30.540       26.168      663.288      932.700      684.789        0.193        0.114       33.585       12.287        0.134      344.929       22.096      861.642
09/24/2014  10:11:00       16.802       -5.427       24.525       33.346       30.197       27.290     1111.976      911.852      744.752        0.184        0.138       17.657       14.108        0.638      344.970       22.168      861.628
09/24/2014  10:12:00       29.542      -26.668       11.171       26.847       23.952       19.869      720.750      573.703      394.776        0.170        0.084       39.799       10.541        0.070      344.800       21.876      861.633
09/24/2014  10:13:00       47.398      -14.075       -0.653       21.536       31.924       20.411      463.814     1019.127      416.610        0.217        0.095       49.444        7.655        0.024      344.476       21.322      861.641
09/24/2014  10:14:00       28.367       -2.506        8.027       27.556       21.036       19.865      759.323      442.505      394.599        0.124        0.080       28.477       15.121        0.282      344.967       22.164      861.663
09/24/2014  10:15:00       32.433       22.965       -0.255       17.604       26.991       20.442      309.891      728.514      417.875        0.152        0.073       39.740       15.482        0.152      344.758       21.804      861.657
09/24/2014  10:16:00       50.818      -19.719        9.273       30.265       34.037       25.039      915.978     1158.501      626.975        0.288        0.135       54.509       13.241        0.059      344.717       21.735      861.648
09/24/2014  10:17:00       75.007       61.675       27.253       49.369       30.804       32.322     2437.319      948.913     1044.714        0.730        0.222       97.108       28.544        0.086      345.326       22.778      861.634
09/24/2014  10:18:00       74.300       47.847       35.704       36.235       32.376       30.170     1313.002     1048.185      910.209        0.618        0.164       88.373       14.208        0.026      345.165       22.501      861.618
09/24/2014  10:19:00       51.207        8.973       11.073       28.657       38.195       32.832      821.246     1458.858     1077.942        0.309        0.168       51.987       22.189        0.182      344.936       22.109      861.624
09/24/2014  10:20:00       59.561      -16.980        5.811       37.583       31.652       29.898     1412.466     1001.821      893.897        0.359        0.165       61.934       20.032        0.105      344.953       22.139      861.614
09/24/2014  10:21:00       39.757      -39.985       15.712       29.792       37.268       28.684      887.546     1388.930      822.779        0.326        0.155       56.387       28.983        0.264      345.240       22.631      861.608
09/24/2014  10:22:00       37.488       45.485        5.350       45.965       37.471       25.169     2112.800     1404.078      633.472        0.383        0.208       58.943       21.005        0.127      345.284       22.705      861.592
09/24/2014  10:23:00       23.970       89.943       -3.490       30.248       47.165       32.290      914.921     2224.543     1042.618        0.643        0.209       93.083       32.030        0.118      345.602       23.252      861.588
09/24/2014  10:24:00       47.507       62.328       -5.438       45.401       49.138       31.989     2061.232     2414.502     1023.306        0.583        0.275       78.369       29.228        0.139      345.717       23.448      861.593
09/24/2014  10:25:00       79.010       58.868       16.101       31.924       27.444       31.842     1019.159      753.159     1013.891        0.638        0.139       98.529       18.795        0.036      345.443       22.976      861.598
09/24/2014  10:26:00       35.254       22.371       19.384       23.263       27.778       30.279      541.163      771.595      916.789        0.217        0.111       41.752        7.644        0.034      345.484       23.047      861.605
09/24/2014  10:27:00       38.072      -20.935       30.152       32.271       56.979       38.711     1041.445     3246.657     1498.521        0.429        0.289       43.448       35.982        0.686      345.480       23.041      861.595
09/24/2014  10:28:00       38.031       25.482       28.911       41.424       29.220       30.930     1715.976      853.835      956.689        0.323        0.176       45.779       14.081        0.095      345.620       23.281      861.584
09/24/2014  10:29:00       62.433      -23.194       12.811       40.582       37.593       32.265     1646.894     1413.237     1041.025        0.435        0.205       66.602       21.840        0.108      345.328       22.780      861.572
09/24/2014  10:30:00       23.611        8.889       46.860       30.233       26.522       24.923      914.032      703.416      621.167        0.254        0.112       25.229       17.446        0.478      345.509       23.091      861.547
09/24/2014  10:31:00       13.892       34.170       45.222       30.188       30.192       26.151      911.316      911.565      683.885        0.296        0.125       36.886       16.888        0.210      345.686       23.392      861.537
09/24/2014  10:32:00      155.650       87.055       22.477       76.540       59.577       55.549     5858.330     3549.475     3085.730        2.240        0.625      178.341       41.729        0.055      345.675       23.372      861.511
09/24/2014  10:33:00      126.272       79.768       45.749       83.423       56.713       40.288     6959.471     3216.401     1623.120        1.810        0.590      149.357       47.238        0.100      345.467       23.017      861.510
09/24/2014  10:34:00       32.443        3.236       18.219       62.158       49.622       39.017     3863.597     2462.333     1522.360        0.462        0.392       32.604       38.041        1.361      345.355       22.826      861.524
09/24/2014  10:35:00       70.322       16.583       27.634       54.483       43.273       43.872     2968.407     1872.549     1924.729        0.637        0.338       72.251       41.754        0.334      345.628       23.294      861.532
09/24/2014  10:36:00       57.312        4.469       46.281       47.235       41.882       34.054     2231.176     1754.065     1159.702        0.529        0.257       57.486       26.724        0.216      345.768       23.535      861.539
09/24/2014  10:37:00       54.314       55.798       12.440       34.255       29.940       34.435     1173.433      896.421     1185.747        0.474        0.163       77.868       21.416        0.076      345.530       23.126      861.523
09/24/2014  10:38:00       69.838        0.349       24.710       41.414       33.087       27.613     1715.130     1094.751      762.451        0.453        0.179       69.838       18.617        0.071      345.763       23.527      861.509
09/24/2014  10:39:00       78.246       42.820       49.487       71.070       58.616       44.857     5050.969     3435.801     2012.170        1.045        0.525       89.196       35.809        0.161      346.201       24.277      861.497
09/24/2014  10:40:00       55.077       93.870      119.105       70.756       97.798       55.550     5006.427     9564.352     3085.788        2.184        0.883      108.835       59.632        0.300      346.440       24.687      861.478
09/24/2014  10:41:00      121.986      -51.312       42.260      109.444      173.738       87.407    11977.912    30184.938     7639.940        3.454        2.490      132.338       96.252        0.529      346.230       24.326      861.453
09/24/2014  10:42:00       69.739       21.527      108.584      100.678      114.792       72.382    10136.076    13177.318     5239.140        2.283        1.428       72.986       66.509        0.830      346.501       24.794      861.441
09/24/2014  10:43:00       31.214       -4.437       50.350       51.907       71.616       42.300     2694.290     5128.900     1789.288        0.657        0.481       31.528       33.610        1.136      346.438       24.686      861.445
09/24/2014  10:44:00      -22.573      -10.436       23.299       57.150       51.235       31.521     3266.155     2624.991      993.598        0.402        0.344       24.868       22.337        0.807      346.282       24.417      861.467
09/24/2014  10:45:00       45.681      -15.906       47.167       69.975      115.336       62.236     4896.444    13302.372     3873.289        1.331        1.104       48.371       78.474        2.632      346.659       25.064      861.455
09/24/2014  10:46:00       11.973      -73.236       21.671       76.118       90.146       47.841     5793.876     8126.342     2288.805        1.109        0.810       74.209       59.271        0.638      346.580       24.928      861.453
09/24/2014  10:47:00      156.785     -182.090      -29.588       63.798       79.397       34.902     4070.189     6303.936     1218.143        3.510        0.580      240.288       44.153        0.034      345.942       23.831      861.445
09/24/2014  10:48:00      104.339      -93.661        7.463      102.032       88.846       45.902    10410.496     7893.613     2106.956        2.006        1.021      140.210       52.973        0.143      346.214       24.298      861.471
09/24/2014  10:49:00      -60.677     -115.846        1.286       52.012       62.408       45.989     2705.295     3894.706     2115.028        1.291        0.436      130.775       39.334        0.090      346.202       24.280      861.485
09/24/2014  10:50:00       12.233      -68.640        4.998       65.709       51.199       40.811     4317.669     2621.334     1665.515        0.674        0.430       69.722       28.959        0.173      346.357       24.547      861.492
09/24/2014  10:51:00      -34.861      -29.263       20.007       60.868       54.272       40.826     3704.930     2945.406     1666.751        0.539        0.416       45.515       36.236        0.634      346.486       24.768      861.474
09/24/2014  10:52:00      -18.712       17.075       33.501       63.434       52.709       52.712     4023.883     2778.283     2778.554        0.567        0.479       25.332       52.712        4.330      346.458       24.721      861.450
09/24/2014  10:53:00       67.489       49.083      109.668       90.759      137.331       93.434     8237.276    18859.827     8729.998        2.740        1.791       83.450       96.625        1.341      346.630       25.015      861.409
09/24/2014  10:54:00      -21.309       41.770       78.049       34.375       70.269       33.692     1181.673     4937.732     1135.154        0.777        0.363       46.891       40.811        0.757      346.794       25.298      861.416
09/24/2014  10:55:00       -7.238      -66.947       33.915       52.594       82.287       56.375     2766.117     6771.079     3178.107        0.920        0.636       67.337       44.315        0.433      346.790       25.291      861.390
09/24/2014  10:56:00      126.681     -142.552      -22.016      110.463      143.519      106.990    12202.095    20597.646    11446.945        4.054        2.212      190.707      107.408        0.317      346.559       24.892      861.362
09/24/2014  10:57:00       44.115       36.364       88.649       83.928      108.494       76.729     7043.955    11770.970     5887.345        1.791        1.235       57.171       82.164        2.065      346.951       25.567      861.342
09/24/2014  10:58:00        7.478       20.602       42.359       44.104       70.132       54.871     1945.140     4918.448     3010.874        0.607        0.494       21.917       53.458        5.949      346.663       25.073      861.363
09/24/2014  10:59:00       71.706      -75.436        4.620       71.200       74.956       59.113     5069.402     5618.338     3494.405        1.252        0.709      104.079       58.488        0.316      346.591       24.948      861.335
09/24/2014  11:00:00       65.493        1.488       47.216       67.596       75.170       63.665     4569.268     5650.563     4053.174        1.039        0.714       65.510       66.687        1.036      346.748       25.218      861.342
09/24/2014  11:01:00       10.906       -5.643       51.533       39.093       47.530       32.400     1528.238     2259.084     1049.746        0.382        0.242       12.279       23.025        3.516      346.971       25.602      861.328
09/24/2014  11:02:00       76.648      -67.163       20.062       57.225       90.598       55.210     3274.732     8208.015     3048.164        1.266        0.727      101.911       62.694        0.378      346.747       25.216      861.319
09/24/2014  11:03:00      112.765     -138.395       -4.854       61.848      103.485       45.547     3825.202    10709.064     2074.534        2.425        0.830      178.520       51.552        0.083      346.568       24.907      861.337
09/24/2014  11:04:00       33.831      -35.626       42.129       56.380       93.290       69.845     3178.679     8702.947     4878.345        1.047        0.838       49.130       70.347        2.050      346.988       25.633      861.332
09/24/2014  11:05:00        3.186       -4.039       70.784       56.821      102.269       67.042     3228.616    10458.879     4494.678        1.161        0.909        5.144       67.433      171.819      346.879       25.445      861.338
09/24/2014  11:06:00       36.747      -47.294        1.859       57.443       60.907       32.049     3299.714     3709.703     1027.166        0.581        0.402       59.892        7.977        0.018      346.669       25.082      861.347
09/24/2014  11:07:00      -28.364      -16.907       28.255       92.130       83.043       49.385     8487.929     6896.182     2438.888        0.985        0.891       33.021       53.097        2.586      346.755       25.230      861.328
09/24/2014  11:08:00      168.845     -151.363      -10.633      127.400      145.011       87.992    16230.635    21028.231     7742.652        4.826        2.250      226.758      102.354        0.204      346.526       24.835      861.315
09/24/2014  11:09:00      118.158      -54.635       55.035      102.616      158.345      101.737    10530.077    25073.013    10350.427        3.296        2.298      130.178      119.927        0.849      346.660       25.066      861.283
09/24/2014  11:10:00       -0.833       -9.113       64.032       76.934       88.789       73.555     5918.901     7883.506     5410.353        1.170        0.961        9.151       42.224       21.289      346.734       25.194      861.288
09/24/2014  11:11:00       -9.370       -4.599       29.995       41.160       39.432       38.841     1694.158     1554.854     1508.617        0.288        0.238       10.437       19.259        3.405      346.934       25.540      861.296
09/24/2014  11:12:00      -34.473      -73.019       -0.089       57.759       73.835       42.351     3336.078     5451.614     1793.609        0.855        0.529       80.747       25.681        0.101      346.669       25.082      861.294
09/24/2014  11:13:00      -10.079      -74.418       17.084       36.857       63.954       34.163     1358.425     4090.138     1167.130        0.627        0.331       75.098       36.612        0.238      346.667       25.079      861.297
09/24/2014  11:14:00      -40.740      -70.986      -21.632       50.217       33.889       28.586     2521.730     1148.451      817.183        0.583        0.224       81.846       12.117        0.022      346.402       24.624      861.285
09/24/2014  11:15:00      -55.140      -63.602       -8.761       51.530       63.878       36.306     2655.373     4080.359     1318.161        0.761        0.403       84.177       27.458        0.106      346.474       24.748      861.268
09/24/2014  11:16:00      -28.969      -22.659       -6.788       41.359       29.647       32.138     1710.555      878.968     1032.848        0.251        0.181       36.778       25.641        0.486      346.601       24.965      861.251
09/24/2014  11:17:00       59.862     -139.201       -1.441       61.936       93.788       44.336     3836.094     8796.236     1965.694        1.878        0.730      151.527       38.340        0.064      346.844       25.383      861.234
09/24/2014  11:18:00       90.614     -169.046      -12.041       78.674      105.628       64.896     6189.649    11157.187     4211.449        2.924        1.078      191.800       59.061        0.095      346.779       25.270      861.206
09/24/2014  11:19:00      -13.505      -58.855       14.765       40.588       72.715       43.555     1647.417     5287.523     1897.027        0.635        0.442       60.385       40.023        0.439      347.025       25.696      861.187
09/24/2014  11:20:00       10.355        6.167       55.290       37.560       50.936       43.701     1410.727     2594.464     1909.747        0.456        0.296       12.052       10.093        0.701      347.331       26.224      861.147
09/24/2014  11:21:00       65.672      -17.899       50.123       54.917       72.577       52.032     3015.912     5267.382     2707.300        0.907        0.550       68.068       52.322        0.591      346.959       25.581      861.119
09/24/2014  11:22:00        6.621     -128.607      -15.972       59.460       49.229       51.759     3535.549     2423.513     2678.999        1.274        0.432      128.777       30.860        0.057      346.809       25.323      861.105
09/24/2014  11:23:00      -32.695      -41.813       -2.067       51.193       57.504       36.919     2620.751     3306.750     1363.008        0.505        0.365       53.078       26.840        0.256      346.950       25.567      861.110
09/24/2014  11:24:00      -65.413      -46.516       -6.809       76.442       49.647       33.915     5843.413     2464.823     1150.232        0.797        0.473       80.266       28.764        0.128      346.839       25.376      861.146
09/24/2014  11:25:00     -141.901      -82.602        3.894       69.975       50.679       36.122     4896.436     2568.375     1304.819        1.787        0.438      164.192       19.985        0.015      346.536       24.852      861.144
09/24/2014  11:26:00     -123.134      -97.567       18.062      125.864       93.850       62.276    15841.685     8807.827     3878.257        2.676        1.426      157.103       64.276        0.167      346.703       25.139      861.126
09/24/2014  11:27:00      -27.944      -32.085       34.491       91.751       80.326       53.588     8418.256     6452.239     2871.636        1.037        0.887       42.548       59.736        1.971      346.882       25.451      861.107
09/24/2014  11:28:00     -141.913     -160.642        0.265       83.986      101.802       42.825     7053.590    10363.547     1833.982        3.259        0.963      214.348       44.920        0.044      346.636       25.024      861.101
09/24/2014  11:29:00     -154.854     -147.059        5.374      159.775       89.603       55.401    25528.172     8028.611     3069.253        4.112        1.831      213.556       62.950        0.087      346.642       25.035      861.087
09/24/2014  11:30:00     -143.397     -118.747       -3.291      120.595       75.002       45.552    14543.194     5625.357     2074.976        2.846        1.112      186.182       35.720        0.037      346.790       25.287      861.050
09/24/2014  11:31:00     -139.126      -81.304       -1.594       97.685       69.515       37.546     9542.455     4832.333     1409.683        2.087        0.789      161.140       41.339        0.066      346.935       25.538      861.050
09/24/2014  11:32:00      -19.121      -70.173       16.910       70.600       66.225       41.005     4984.395     4385.685     1681.382        0.831        0.553       72.732       43.764        0.362      347.304       26.176      861.055
09/24/2014  11:33:00      -64.465     -155.891       -6.375       86.542       86.766       39.734     7489.574     7528.270     1578.753        2.254        0.830      168.694       25.849        0.023      346.885       25.453      861.058
09/24/2014  11:34:00      -28.671      -72.687       14.103      111.544       83.862       63.129    12442.152     7032.877     3985.251        1.488        1.173       78.137       61.777        0.625      346.940       25.549      861.060
09/24/2014  11:35:00       29.121       91.719      109.158       50.282      116.647       86.811     2528.252    13606.547     7536.116        2.242        1.184       96.231       91.339        0.901      346.794       25.297      861.014
09/24/2014  11:36:00     -119.804      -88.673       -2.007      104.524       63.794       40.784    10925.162     4069.629     1663.333        1.944        0.833      149.050       40.773        0.075      346.839       25.374      861.037
09/24/2014  11:37:00     -155.918     -150.416       -9.109       81.852       68.527       40.709     6699.804     4695.975     1657.255        3.003        0.653      216.646       40.716        0.035      346.634       25.021      861.013
09/24/2014  11:38:00     -126.529      -98.098        6.020       74.626       63.757       36.615     5569.027     4064.941     1340.674        1.832        0.549      160.102       32.046        0.040      346.582       24.932      861.003
09/24/2014  11:39:00     -100.027      -54.102       15.029       65.221       55.445       31.357     4253.728     3074.146      983.274        1.073        0.416      113.721       28.307        0.062      346.781       25.275      860.985
09/24/2014  11:40:00       -8.014      -52.092       32.864       42.343       88.522       38.989     1792.899     7836.215     1520.128        0.750        0.557       52.705       47.871        0.825      347.161       25.930      860.973
09/24/2014  11:41:00      -74.457     -121.621        6.505       66.341      104.105       45.324     4401.093    10837.892     2054.239        1.883        0.865      142.603       39.985        0.079      346.870       25.428      860.958
09/24/2014  11:42:00       -3.077       -9.152       -2.582       47.021       77.346       37.184     2210.991     5982.349     1382.670        0.484        0.479        9.655       40.049       17.204      346.637       25.029      860.957
09/24/2014  11:43:00      110.129        0.552       47.137      107.697       91.302       64.080    11598.567     8335.993     4106.222        1.919        1.202      110.130       48.403        0.193      346.971       25.602      860.907
09/24/2014  11:44:00       51.407      -53.814      -15.487       52.071       72.563       41.990     2711.352     5265.352     1763.156        0.776        0.487       74.422       36.750        0.244      346.687       25.114      860.900
09/24/2014  11:45:00       22.969       82.507        7.082       49.192       57.344       48.838     2419.818     3288.313     2385.166        0.774        0.405       85.644       34.466        0.162      346.993       25.642      860.824
09/24/2014  11:46:00       42.700       11.182        1.832       49.098       56.536       39.415     2410.593     3196.376     1553.535        0.455        0.358       44.140       35.015        0.629      346.689       25.117      860.798
09/24/2014  11:47:00       19.417        8.457       12.191       31.616       36.783       34.746      999.553     1353.020     1207.251        0.208        0.178       21.178       22.713        1.150      347.339       26.238      860.769
09/24/2014  11:48:00       71.062       78.054       30.123       32.618       37.008       38.733     1063.929     1369.611     1500.269        0.799        0.197      105.557       24.388        0.053      346.925       25.524      860.781
09/24/2014  11:49:00       38.063       57.659       84.241       63.974       58.266       50.922     4092.664     3394.972     2593.098        1.097        0.504       69.089       49.882        0.521      347.274       26.126      860.774
09/24/2014  11:50:00       58.074       69.440       67.239       78.565       60.359       45.458     6172.526     3643.252     2066.420        1.230        0.594       90.523       48.579        0.288      347.031       25.706      860.750
09/24/2014  11:51:00      -80.551      -79.329       -3.208       77.168       67.837       39.540     5954.938     4601.882     1563.421        1.245        0.606      113.055       23.388        0.043      347.022       25.689      860.727
09/24/2014  11:52:00     -149.513     -145.034       -1.036       99.823       91.412       41.760     9964.719     8356.142     1743.891        3.172        1.003      208.300       44.067        0.045      346.756       25.228      860.712
09/24/2014  11:53:00     -189.254     -122.179      -16.680       82.532       72.162       42.376     6811.459     5207.385     1795.736        3.242        0.691      225.266       38.895        0.030      346.715       25.158      860.659
09/24/2014  11:54:00     -129.454       -7.740        0.882      102.201       95.673       45.056    10444.949     9153.230     2030.034        1.922        1.081      129.685       56.766        0.192      347.027       25.697      860.607
09/24/2014  11:55:00      -47.909       -8.482       32.919       82.962       65.088       38.874     6882.656     4236.457     1511.175        0.804        0.632       48.654       41.990        0.745      347.448       26.424      860.552
09/24/2014  11:56:00     -167.983     -143.329       10.871      128.496       74.334       53.654    16511.229     5525.610     2878.805        3.689        1.246      220.820       56.608        0.066      347.026       25.695      860.518
09/24/2014  11:57:00      -48.724      -84.714        4.374       87.908       68.289       58.884     7727.749     4663.378     3467.349        1.271        0.793       97.727       49.728        0.259      347.337       26.232      860.541
09/24/2014  11:58:00        4.022      -25.440       37.163       54.107       83.375       49.944     2927.519     6951.364     2494.413        0.721        0.619       25.756       50.330        3.818      347.850       27.118      860.562
09/24/2014  11:59:00       27.195      -17.943       35.437       65.338      104.278       63.773     4269.040    10873.953     4066.950        1.076        0.960       32.580       66.872        4.213      348.142       27.623      860.573
09/24/2014  12:00:00       96.897      -35.661        0.724       75.846      144.573       62.867     5752.542    20901.280     3952.308        2.063        1.530      103.251       62.144        0.362      347.366       26.282      860.480
09/24/2014  12:01:00      201.379     -209.456      -27.863      155.644      169.722       83.341    24225.039    28805.523     6945.782        7.258        2.999      290.561      103.580        0.127      347.561       26.616      860.503
09/24/2014  12:02:00      187.469     -229.254        1.709      144.690      246.595      100.393    20935.267    60809.284    10078.747        8.975        4.591      296.146      109.399        0.136      347.382       26.307      860.510
09/24/2014  12:03:00       85.918     -182.619       -1.374      113.056      149.530       68.224    12781.635    22359.201     4654.454        4.026        1.990      201.821       80.133        0.158      347.642       26.757      860.485
09/24/2014  12:04:00      -57.732      -35.494        4.379      106.954      121.135       93.558    11439.154    14673.719     8753.167        1.973        1.743       67.770       84.918        1.570      347.710       26.874      860.429
09/24/2014  12:05:00       41.836     -181.196       -3.649      145.533      140.080       84.977    21179.819    19622.393     7221.092        4.130        2.401      185.963       75.005        0.163      347.627       26.732      860.399
09/24/2014  12:06:00        8.709     -193.920        2.294      140.168      138.278       80.611    19646.996    19120.794     6498.167        4.147        2.263      194.115       82.386        0.180      347.694       26.846      860.378
09/24/2014  12:07:00       64.362     -187.275        4.500      135.338      149.274      112.447    18316.313    22282.657    12644.261        4.623        2.662      198.027       94.049        0.226      347.930       27.254      860.370
09/24/2014  12:08:00      -35.713      -82.648       15.127       78.676       64.315       55.477     6189.962     4136.389     3077.696        1.087        0.670       90.034       43.730        0.236      347.901       27.206      860.365
09/24/2014  12:09:00      -11.147      -84.176        7.257       92.966       72.738       59.401     8642.691     5290.879     3528.500        1.236        0.873       84.911       37.178        0.192      348.005       27.385      860.399
09/24/2014  12:10:00      -67.535     -219.663       -6.558      161.464      129.180       76.852    26070.641    16687.476     5906.196        5.075        2.433      229.810       62.010        0.073      347.629       26.734      860.426
09/24/2014  12:11:00      -56.729      -90.010        6.330       63.220       94.144       45.898     3996.803     8863.042     2106.617        1.316        0.748      106.396       48.856        0.211      347.836       27.093      860.391
09/24/2014  12:12:00       12.741     -116.212       10.609      127.617      128.863       67.625    16286.140    16605.642     4573.158        2.562        1.873      116.909       66.550        0.324      347.868       27.146      860.394
09/24/2014  12:13:00      -16.577      -98.712       61.380       94.734      121.588       70.122     8974.487    14783.744     4917.067        2.123        1.434      100.094       65.436        0.427      348.098       27.544      860.324
09/24/2014  12:14:00      -20.833     -195.397        5.673      125.183       93.510       58.196    15670.891     8744.197     3386.804        3.322        1.390      196.504       43.280        0.049      347.831       27.082      860.331
09/24/2014  12:15:00     -221.367     -163.025        8.136      109.369      108.168       61.384    11961.499    11700.325     3767.980        5.153        1.371      274.919       49.743        0.033      347.637       26.747      860.346
09/24/2014  12:16:00     -271.977     -176.385       -3.092      106.538       98.013       66.898    11350.287     9606.564     4475.322        6.526        1.272      324.165       63.903        0.039      347.375       26.295      860.330
09/24/2014  12:17:00     -250.663     -218.633       -5.137      153.302      156.613       74.867    23501.564    24527.585     5605.014        8.214        2.682      332.614       76.983        0.054      347.411       26.358      860.308
09/24/2014  12:18:00       -0.414     -101.245       -7.580       94.393      133.144       55.085     8910.098    17727.410     3034.350        1.999        1.484      101.246       49.852        0.242      347.523       26.553      860.315
09/24/2014  12:19:00      -41.260      -55.625        6.877       89.283       62.560       28.975     7971.524     3913.692      839.524        0.878        0.636       69.257       30.824        0.198      347.626       26.734      860.309
09/24/2014  12:20:00       51.035      -28.143       47.809       88.071       89.555       74.531     7756.474     8020.084     5554.803        1.350        1.067       58.280       71.477        1.504      347.942       27.275      860.334
09/24/2014  12:21:00       16.418      -77.551       22.630      101.931       88.726       50.146    10389.993     7872.274     2514.668        1.378        1.039       79.270       46.832        0.349      347.670       26.806      860.329
09/24/2014  12:22:00       70.006     -252.973       16.060      212.233      213.469      100.271    45042.784    45569.103    10054.224        8.489        5.033      262.481       94.946        0.131      347.585       26.658      860.235
09/24/2014  12:23:00      179.623     -137.735       97.479      170.259      260.227      146.330    28988.232    67717.927    21412.584        8.941        5.906      226.352      182.691        0.651      347.843       27.103      860.137
09/24/2014  12:24:00       43.705      -25.408       97.533      102.991      163.097      113.442    10607.246    26600.472    12869.184        3.106        2.504       50.553      102.129        4.081      348.242       27.794      860.172
09/24/2014  12:25:00      107.796     -135.311       93.791      149.467      258.125      124.089    22340.456    66628.364    15398.070        7.153        5.218      173.000      155.307        0.806      348.019       27.407      860.172
09/24/2014  12:26:00      124.555     -178.651       31.018      149.369      162.860       90.117    22311.062    26523.391     8121.076        5.266        2.848      217.785       86.829        0.159      347.970       27.323      860.170
09/24/2014  12:27:00       -0.122     -101.928       47.006      152.180      135.291       94.107    23158.663    18303.773     8856.210        3.145        2.516      101.928       74.916        0.540      348.084       27.521      860.112
09/24/2014  12:28:00     -205.062     -156.826        7.427      152.847       91.111       63.968    23362.067     8301.143     4091.904        5.122        1.788      258.157       75.282        0.085      347.886       27.177      860.158
09/24/2014  12:29:00     -102.580     -113.845        1.570      141.922      114.389       61.246    20141.884    13084.794     3751.133        3.023        1.849      153.243       53.167        0.120      347.880       27.167      860.126
09/24/2014  12:30:00      -61.573     -206.216      -15.693      132.353      103.536       65.278    17517.423    10719.715     4261.255        3.952        1.625      215.212       55.289        0.066      347.784       27.001      860.111
09/24/2014  12:31:00      -60.084     -140.887      -14.892       72.173      130.974       49.034     5209.008    17154.286     2404.370        2.422        1.238      153.164       50.864        0.110      347.864       27.141      860.111
09/24/2014  12:32:00        9.374      -70.014       34.640      100.561       88.767       48.917    10112.417     7879.648     2392.913        1.328        1.019       70.639       53.978        0.584      348.228       27.770      860.075
09/24/2014  12:33:00      -70.298     -200.205        3.763      148.782      159.385       82.594    22136.118    25403.715     6821.743        4.969        2.718      212.189       76.045        0.128      348.001       27.375      860.050
09/24/2014  12:34:00      122.635     -177.116       26.116      152.737      171.339       93.327    23328.578    29357.027     8709.908        5.423        3.070      215.429      103.782        0.232      348.079       27.512      860.046
09/24/2014  12:35:00       65.608     -232.190       19.020      106.109      176.589       78.784    11259.050    31183.551     6206.930        5.361        2.432      241.282       78.128        0.105      348.150       27.634      860.058
09/24/2014  12:36:00       72.529       -5.141      116.781      119.537      225.303      109.783    14289.129    50761.333    12052.390        4.800        3.855       72.711      147.238        4.100      348.096       27.541      860.018
09/24/2014  12:37:00       53.588      -92.058       27.876       71.385      134.374       87.707     5095.786    18056.260     7692.450        2.148        1.542      106.519       84.144        0.624      348.072       27.499      860.013
09/24/2014  12:38:00      230.943     -314.748      -23.302      134.399      186.492       81.060    18062.991    34779.348     6570.777       10.617        2.971      390.385       92.477        0.056      347.911       27.219      860.013
09/24/2014  12:39:00      113.818     -218.710       -2.024      165.886      170.113       99.037    27518.200    28938.272     9808.323        6.352        3.313      246.553      102.981        0.174      348.055       27.468      860.004
09/24/2014  12:40:00       60.579     -295.050      -11.183      217.937      162.353       97.521    47496.396    26358.461     9510.381        8.709        4.168      301.205       52.994        0.031      348.000       27.373      860.013
09/24/2014  12:41:00       14.535     -281.107       -4.443      220.916      196.326       95.231    48803.845    38543.780     9069.021        8.782        4.821      281.483       90.407        0.103      347.905       27.210      859.973
09/24/2014  12:42:00       32.227     -121.523       34.120       95.424      207.643      107.467     9105.731    43115.679    11549.183        4.036        3.189      125.723      117.350        0.871      348.289       27.874      859.981
09/24/2014  12:43:00       24.726     -315.072      -33.994      244.206      180.075       86.397    59636.591    32427.056     7464.458       10.027        4.976      316.041       94.686        0.090      347.937       27.265      859.967
09/24/2014  12:44:00      -17.966     -181.181       10.084      199.482      181.546      110.329    39793.206    32959.061    12172.544        5.907        4.246      182.069      102.198        0.315      348.097       27.542      859.996
09/24/2014  12:45:00       74.869     -374.245      -18.529      151.390      169.366      107.986    22918.800    28684.801    11661.007       10.463        3.163      381.660       77.239        0.041      347.878       27.162      859.958
09/24/2014  12:46:00       67.374     -117.582       46.545      120.893      158.629      107.468    14615.187    25163.009    11549.289        3.592        2.566      135.517      112.949        0.695      348.289       27.873      859.923
09/24/2014  12:47:00       21.621     -189.752      -10.916      192.548      229.477       86.901    37074.542    52659.626     7551.843        6.692        4.864      190.980      106.658        0.312      348.147       27.630      859.918
09/24/2014  12:48:00      -53.413     -122.036       21.025       72.096      139.559       55.149     5197.806    19476.758     3041.452        2.295        1.386      133.213       62.835        0.222      348.141       27.619      859.903
09/24/2014  12:49:00      -22.408      -89.764        9.170       72.154       74.110       50.517     5206.179     5492.336     2551.975        1.094        0.663       92.519       52.540        0.322      348.169       27.669      859.905
09/24/2014  12:50:00        5.262       -8.027       74.175       70.639      125.577       93.534     4989.848    15769.504     8748.609        1.755        1.475        9.598      101.116      110.989      348.308       27.907      859.896
09/24/2014  12:51:00       -3.251      -91.487       22.846       73.751      110.698       71.389     5439.262    12254.156     5096.329        1.584        1.139       91.545       75.572        0.681      348.253       27.813      859.853
09/24/2014  12:52:00       48.298     -122.486       40.986      147.656      153.111       96.864    21802.383    23443.071     9382.570        3.681        2.731      131.664       99.727        0.574      348.317       27.924      859.866
09/24/2014  12:53:00       84.820     -191.532       10.568      149.763      159.677      104.535    22429.069    25496.661    10927.478        5.141        2.943      209.473      110.575        0.279      348.118       27.577      859.865
09/24/2014  12:54:00       75.543     -222.842        2.074      142.817      136.016       67.228    20396.775    18500.381     4519.608        4.939        2.171      235.298       70.948        0.091      348.009       27.387      859.899
09/24/2014  12:55:00       -9.129     -241.650      -20.081      115.266      130.331       79.935    13286.291    16986.262     6389.662        4.777        1.833      241.822       60.012        0.062      347.853       27.121      859.889
09/24/2014  12:56:00       43.417     -139.201       11.531       93.273      159.041       57.730     8699.765    25294.070     3332.728        2.935        1.866      145.814       61.119        0.176      348.110       27.564      859.845
09/24/2014  12:57:00       72.449     -124.487       35.910      105.935      145.128       77.680    11222.312    21062.203     6034.114        3.017        1.916      144.034       90.552        0.395      348.177       27.680      859.826
09/24/2014  12:58:00       82.840     -132.319       50.910      102.605      160.106       98.915    10527.837    25634.039     9784.241        3.645        2.297      156.112      107.095        0.471      348.092       27.533      859.751
09/24/2014  12:59:00       -3.925      -35.799       29.702       55.940       70.972       53.277     3129.284     5037.076     2838.394        0.659        0.550       36.013       47.142        1.714      348.459       28.171      859.751
09/24/2014  13:00:00       91.366      -89.470       43.133      100.077      118.863       84.696    10015.496    14128.485     7173.388        2.476        1.566      127.878       70.971        0.308      348.524       28.281      859.718
09/24/2014  13:01:00       -4.259     -213.498       18.950      163.060      232.201      103.916    26588.712    53917.106    10798.486        6.862        4.565      213.541      114.020        0.285      348.230       27.772      859.709
09/24/2014  13:02:00       -2.535     -125.801       16.666       89.046      162.790       69.631     7929.243    26500.664     4848.411        2.769        1.964      125.826       70.525        0.314      348.359       27.995      859.655
09/24/2014  13:03:00       55.783      -56.645       56.412      108.359      167.177       93.709    11741.615    27948.203     8781.459        2.898        2.424       79.501      112.860        2.015      348.480       28.206      859.617
09/24/2014  13:04:00      216.703     -368.252       61.458      193.419      374.854      219.753    37411.036   140515.842    48291.289       20.624       11.311      427.281      270.819        0.402      348.074       27.501      859.509
09/24/2014  13:05:00      226.936     -376.922       -0.629      176.517      170.788      115.865    31158.113    29168.515    13424.708       13.365        3.688      439.966       91.050        0.043      348.135       27.605      859.550
09/24/2014  13:06:00       97.759     -300.800      -10.311      129.542      131.959       84.263    16781.112    17413.132     7100.281        7.071        2.065      316.287       54.658        0.030      348.130       27.599      859.601
09/24/2014  13:07:00       33.118     -241.495       -0.226      226.708      170.224       82.546    51396.451    28976.092     6813.824        7.329        4.359      243.755       55.219        0.051      348.085       27.521      859.592
09/24/2014  13:08:00        9.728     -199.950        4.482      107.561      113.180       89.430    11569.381    12809.602     7997.705        3.623        1.619      200.186       79.577        0.158      348.179       27.682      859.538
09/24/2014  13:09:00      120.548     -222.329       16.683      156.543      147.073      102.166    24505.834    21630.459    10437.978        6.040        2.829      252.907       80.122        0.100      348.317       27.921      859.491
09/24/2014  13:10:00      127.929     -288.051      -12.825       95.479      165.064       81.600     9116.263    27246.101     6658.508        7.126        2.151      315.181       68.060        0.047      348.406       28.075      859.522
09/24/2014  13:11:00      130.194     -159.113       20.264      146.442      158.487       89.071    21445.345    25118.157     7933.624        4.858        2.725      205.591       94.028        0.209      348.455       28.161      859.543
09/24/2014  13:12:00       -1.640     -175.877        8.497      108.606      174.069      106.827    11795.330    30300.081    11411.989        4.225        2.675      175.885      107.498        0.374      348.329       27.943      859.543
09/24/2014  13:13:00      105.275     -105.971       -5.711       98.724      134.443       57.119     9746.413    18074.793     3262.526        2.671        1.554      149.374       56.945        0.145      348.292       27.880      859.530
09/24/2014  13:14:00       11.622     -235.499       19.525      172.473      159.955       99.329    29746.984    25585.503     9866.169        6.058        3.260      235.785       77.183        0.107      348.343       27.966      859.486
09/24/2014  13:15:00      154.697     -307.278      -34.616      139.179      143.651       96.948    19370.673    20635.498     9398.889        8.447        2.470      344.022       78.910        0.053      348.161       27.649      859.426
09/24/2014  13:16:00       42.034     -204.298      -27.674      121.578      101.107       65.340    14781.211    10222.579     4269.350        3.677        1.464      208.578       51.034        0.060      348.302       27.895      859.450
09/24/2014  13:17:00       38.240     -113.852        4.821      114.525      129.420       73.152    13115.967    16749.575     5351.213        2.483        1.761      120.102       81.326        0.459      348.551       28.329      859.440
09/24/2014  13:18:00       83.966      -95.586       57.550      161.600      210.896      142.345    26114.600    44477.222    20262.102        5.516        4.543      127.228      154.571        1.476      348.467       28.182      859.361
09/24/2014  13:19:00      -30.384     -129.887       15.670      130.815      179.086       87.626    17112.680    32071.762     7678.352        3.744        2.843      133.393       95.334        0.511      348.509       28.255      859.407
09/24/2014  13:20:00      160.863     -316.220      -37.716      158.042      158.329       87.167    24977.311    25068.057     7598.045        9.246        2.882      354.784       81.971        0.053      348.327       27.937      859.409
09/24/2014  13:21:00       85.480     -267.360      -10.468      170.992      172.522       96.929    29238.315    29763.688     9395.244        7.364        3.420      280.692       91.448        0.106      348.308       27.906      859.379
09/24/2014  13:22:00      133.165     -261.221        8.308      153.601      174.540       90.388    23593.127    30464.336     8169.922        7.412        3.111      293.206       72.478        0.061      348.319       27.926      859.348
09/24/2014  13:23:00       58.781     -355.161      -28.421      178.086      190.239       96.143    31714.774    36191.010     9243.516       10.376        3.857      359.992       95.187        0.070      348.393       28.054      859.346
09/24/2014  13:24:00       59.219     -215.771       31.358      214.961      148.728      100.628    46208.322    22120.134    10126.023        6.474        3.923      223.750       88.406        0.156      348.505       28.248      859.343
09/24/2014  13:25:00       30.011     -186.610       -0.141       97.723      150.007       79.340     9549.715    22501.975     6294.823        3.703        1.917      189.008       80.970        0.184      348.551       28.327      859.377
09/24/2014  13:26:00       27.034      -50.506       43.237       90.887      119.760       64.032     8260.424    14342.338     4100.055        1.592        1.335       57.286       57.431        1.005      348.692       28.573      859.339
09/24/2014  13:27:00      112.092     -222.865       -5.236      157.327      183.059       92.916    24751.697    33510.644     8633.471        6.457        3.345      249.467       94.098        0.142      348.495       28.230      859.329
09/24/2014  13:28:00      -30.276     -225.434        1.020      172.333      145.598       76.533    29698.509    21198.723     5857.309        5.424        2.838      227.458       55.732        0.060      348.317       27.923      859.334
09/24/2014  13:29:00      -15.370     -110.522       35.426       98.450      163.427       88.025     9692.479    26708.348     7748.398        2.892        2.207      111.585       91.931        0.679      348.372       28.019      859.270
09/24/2014  13:30:00       92.585     -153.370       38.332      163.043      149.975       89.160    26583.045    22492.359     7949.419        4.528        2.851      179.149       88.852        0.246      348.516       28.267      859.282
09/24/2014  13:31:00      252.685     -324.011       13.764      240.276      268.655      144.563    57732.390    72175.364    20898.427       15.989        7.540      410.893      169.899        0.171      348.433       28.121      859.242
09/24/2014  13:32:00       43.714     -141.901       60.027      117.804      191.630      143.112    13877.737    36722.120    20481.022        4.835        3.554      148.482      135.272        0.830      348.682       28.554      859.217
09/24/2014  13:33:00       -9.796     -120.457        5.378      113.026      113.799       77.599    12774.805    12950.293     6021.564        2.319        1.587      120.854       74.037        0.375      348.857       28.857      859.282
09/24/2014  13:34:00      -31.570     -129.158       10.505       93.816      127.646       93.219     8801.484    16293.627     8689.728        2.578        1.689      132.960       47.901        0.130      348.754       28.679      859.249
09/24/2014  13:35:00        9.422      -94.493       34.965       81.950      108.115       70.428     6715.766    11688.929     4960.161        1.680        1.168       94.961       54.469        0.329      348.779       28.724      859.234
09/24/2014  13:36:00       77.760     -174.974       -3.482       85.824      120.799       66.566     7365.696    14592.437     4431.087        3.153        1.319      191.475       73.606        0.148      348.617       28.440      859.213
09/24/2014  13:37:00       91.365     -292.263      -11.507      141.691      182.346      100.855    20076.424    33250.081    10171.797        7.869        3.175      306.211       97.098        0.101      348.479       28.201      859.176
09/24/2014  13:38:00      105.050     -225.790        2.893      142.067      140.359       82.919    20182.935    19700.677     6875.544        5.438        2.338      249.031       73.562        0.087      348.394       28.056      859.131
09/24/2014  13:39:00      -19.672     -115.509       -8.840      103.032      153.499       74.443    10615.677    23561.992     5541.706        2.676        1.986      117.172       82.039        0.490      348.611       28.431      859.103
09/24/2014  13:40:00       54.095      -91.968       42.047      130.671      110.802       61.837    17074.806    12277.051     3823.794        2.316        1.659      106.698       65.336        0.375      348.742       28.659      859.047
09/24/2014  13:41:00        5.242     -133.504       41.191      119.593      196.018       84.850    14302.446    38423.034     7199.574        3.973        2.996      133.607       98.873        0.548      348.926       28.977      859.027
09/24/2014  13:42:00      170.677     -231.064       49.871      218.404      335.903      191.680    47700.119   112830.582    36741.350       14.111        9.864      287.265      223.959        0.608      348.611       28.429      858.983
09/24/2014  13:43:00       73.397     -243.341        3.469      130.947      193.170      118.811    17147.107    37314.578    14116.075        6.658        3.429      254.169       99.256        0.152      348.501       28.239      859.045
09/24/2014  13:44:00       58.796     -300.776      -63.285      153.541      144.398       99.887    23574.766    20850.689     9977.433        7.616        2.720      306.469       97.626        0.101      348.442       28.137      859.073
09/24/2014  13:45:00      -56.799     -240.940       11.395      164.273      171.805       81.591    26985.655    29516.836     6657.129        6.227        3.158      247.544       73.364        0.088      348.499       28.236      859.108
09/24/2014  13:46:00       41.987     -250.605        5.941      165.878      170.759       68.854    27515.532    29158.573     4740.812        6.300        3.071      254.098       56.691        0.050      348.501       28.239      859.121
09/24/2014  13:47:00       49.032      -75.395       71.401       99.288      162.550      115.955     9858.047    26422.527    13445.673        3.145        2.486       89.936      107.603        1.431      348.599       28.411      859.062
09/24/2014  13:48:00      -60.364      -71.573       41.946       80.076      132.934       70.469     6412.141    17671.485     4965.912        1.978        1.452       93.630       79.466        0.720      348.876       28.890      859.075
09/24/2014  13:49:00       69.316     -202.030       -3.275      159.972      178.537      102.668    25591.093    31875.545    10540.713        5.681        3.400      213.591      109.693        0.264      348.562       28.347      859.037
09/24/2014  13:50:00       23.271     -222.989      -14.690      125.937       90.369       65.628    15860.160     8166.617     4307.051        3.940        1.417      224.200       53.693        0.057      348.441       28.135      859.028
09/24/2014  13:51:00      -42.006     -177.001      -16.308       93.104       99.214       53.326     8668.276     9843.438     2843.654        2.735        1.068      181.917       51.448        0.080      348.496       28.232      858.998
09/24/2014  13:52:00      -41.959     -169.180       -3.223      166.067      134.448       62.551    27578.135    18076.217     3912.584        3.997        2.478      174.306       63.477        0.133      348.467       28.183      858.993
09/24/2014  13:53:00       32.287      -88.838       30.910      112.699      120.724       80.087    12701.051    14574.328     6413.883        2.178        1.684       94.523       83.780        0.786      348.696       28.579      859.001
09/24/2014  13:54:00       87.357     -202.914       -0.408      157.765      160.520       88.447    24889.793    25766.592     7822.951        5.363        2.924      220.920      108.322        0.240      348.691       28.569      858.994
09/24/2014  13:55:00       -8.484      -81.654       -1.481      100.370      109.296       64.610    10074.210    11945.556     4174.463        1.646        1.310       82.093       31.547        0.148      348.927       28.979      858.994
09/24/2014  13:56:00       31.178     -184.100      -16.064      165.724       96.618       60.779    27464.505     9335.000     3694.038        3.780        2.025      186.721       61.273        0.108      348.622       28.449      858.987
09/24/2014  13:57:00        8.008     -176.644       -5.153      124.356      112.938       77.240    15464.333    12754.974     5966.092        3.273        1.709      176.825       44.261        0.063      348.699       28.584      858.985
09/24/2014  13:58:00      -42.852     -142.257       -7.943       83.334       91.654       61.295     6944.568     8400.516     3757.064        2.062        0.955      148.571       38.351        0.067      348.720       28.620      858.965
09/24/2014  13:59:00      -46.815      -31.375       22.961       82.647       74.592       43.548     6830.530     5563.919     1896.433        0.899        0.715       56.356       20.140        0.128      348.972       29.058      858.943
09/24/2014  14:00:00      -27.425     -107.320       -3.205      114.031      142.557       56.005    13003.054    20322.541     3136.558        2.437        1.823      110.769       73.493        0.440      348.892       28.920      858.957
09/24/2014  14:01:00      -48.533     -333.038       -6.077      110.468      123.793       57.747    12203.193    15324.655     3334.726        7.208        1.543      336.556       25.145        0.006      348.534       28.296      858.937
09/24/2014  14:02:00      -16.914     -138.050      -13.344       84.699       93.051       49.784     7174.000     8658.504     2478.473        1.891        0.916      139.083       15.790        0.013      348.750       28.672      858.925
09/24/2014  14:03:00      -68.253      -51.027      -10.924       66.678       69.432       38.024     4446.008     4820.779     1445.836        0.905        0.536       85.219       28.623        0.113      348.881       28.901      858.897
09/24/2014  14:04:00      -88.956      -13.666      -12.964       60.024       68.374       40.756     3602.869     4675.026     1661.088        0.910        0.497       89.999       24.781        0.076      348.997       29.101      858.865
09/24/2014  14:05:00        4.823     -190.469       -9.165      146.846      170.454       82.558    21563.878    29054.412     6815.898        4.690        2.872      190.530       61.456        0.104      348.825       28.802      858.891
09/24/2014  14:06:00       72.660      -24.674       48.035       84.911      110.794       81.927     7209.876    12275.363     6712.044        1.719        1.310       76.735       82.140        1.146      348.892       28.918      858.803
09/24/2014  14:07:00       60.598     -133.721       24.833       99.234      140.947       66.881     9847.351    19866.103     4473.066        2.817        1.709      146.811       76.352        0.270      348.810       28.776      858.767
09/24/2014  14:08:00      -35.508     -192.666      -22.197      214.751      116.025       75.592    46118.180    13461.867     5714.113        5.207        3.265      195.910       58.741        0.090      348.683       28.555      858.712
09/24/2014  14:09:00       51.182     -194.117      -16.359      120.143      114.014       76.695    14434.363    12999.289     5882.176        3.694        1.666      200.752       67.140        0.112      348.891       28.915      858.684
09/24/2014  14:10:00       39.716     -118.432       13.709      135.259      168.015       66.533    18295.128    28228.962     4426.680        3.336        2.548      124.914       86.372        0.478      348.957       29.031      858.721
09/24/2014  14:11:00      -92.358     -325.958      -35.225      105.449      144.567       78.916    11119.597    20899.551     6227.755        7.713        1.912      338.790       75.013        0.049      348.730       28.637      858.734
09/24/2014  14:12:00       29.737     -168.155       33.628      139.259      147.482       92.458    19392.985    21751.085     8548.484        3.998        2.485      170.764       74.739        0.192      348.873       28.886      858.691
09/24/2014  14:13:00        4.047     -261.990      -17.134      236.051      123.175       78.334    55719.874    15172.054     6136.188        7.298        3.851      262.021       90.338        0.119      348.713       28.607      858.664
09/24/2014  14:14:00        1.277     -203.293       25.868      150.291      226.081       88.781    22587.311    51112.587     7882.077        6.178        4.079      203.297       95.534        0.221      348.746       28.665      858.658
09/24/2014  14:15:00      110.706     -182.772      -12.714      194.507      200.196      118.678    37833.079    40078.525    14084.440        6.889        4.600      213.685       92.101        0.186      348.825       28.801      858.575
09/24/2014  14:16:00       43.029     -463.114      -22.889      253.827      252.913      106.964    64428.225    63965.202    11441.358       17.832        6.992      465.109       98.670        0.045      348.577       28.370      858.598
09/24/2014  14:17:00      -11.356     -358.868       14.646      198.485      162.295      112.480    39396.454    26339.763    12651.762       10.375        3.919      359.048       82.836        0.053      348.540       28.306      858.638
09/24/2014  14:18:00     -169.016     -256.822       -8.499      154.271      118.970       94.323    23799.628    14153.849     8896.878        7.072        2.343      307.447       77.788        0.064      348.627       28.457      858.625
09/24/2014  14:19:00       39.417     -121.975       12.528      148.727      105.693       74.405    22119.608    11170.934     5536.067        2.770        1.941      128.186       59.633        0.216      348.720       28.619      858.627
09/24/2014  14:20:00     -112.878     -231.502      -15.430      125.637      142.018       64.395    15784.776    20169.179     4146.734        5.333        2.005      257.555       65.091        0.064      348.567       28.354      858.639
09/24/2014  14:21:00      -83.508     -123.891        5.078      109.767       88.659       56.860    12048.784     7860.373     3233.042        2.274        1.157      149.408       40.476        0.073      348.767       28.700      858.618
09/24/2014  14:22:00       17.047     -115.557       18.302      111.038       91.915       50.361    12329.350     8448.304     2536.205        1.864        1.166      116.808       42.361        0.132      348.981       29.073      858.602
09/24/2014  14:23:00       31.624     -237.578      -20.403       98.376      139.974       66.232     9677.765    19592.589     4386.621        4.575        1.683      239.673       61.020        0.065      348.945       29.010      858.620
09/24/2014  14:24:00        9.856      -55.208       77.160      105.681      161.569       90.490    11168.526    26104.513     8188.464        2.727        2.273       56.081       92.229        2.705      349.079       29.242      858.559
09/24/2014  14:25:00      133.489     -325.989        7.767      201.518      223.797       95.383    40609.586    50084.890     9097.930       11.195        4.990      352.262       85.927        0.060      348.698       28.580      858.597
09/24/2014  14:26:00      -45.614     -240.292       -8.544      155.786      161.357       75.873    24269.258    26036.006     5756.646        5.797        2.803      244.583       50.405        0.042      348.783       28.728      858.574
09/24/2014  14:27:00       26.785     -107.740       19.421      141.267      125.329       63.258    19956.346    15707.443     4001.623        2.618        1.983      111.020       53.837        0.235      349.031       29.160      858.583
09/24/2014  14:28:00       86.860     -277.068       35.084      177.224      256.072      100.568    31408.413    65573.121    10113.840        9.630        5.355      290.364      120.717        0.173      348.771       28.708      858.601
09/24/2014  14:29:00       -3.036     -331.270       12.198      187.686      230.239      113.022    35226.106    53009.884    12773.992       10.544        5.050      331.284      119.858        0.131      348.645       28.490      858.524
09/24/2014  14:30:00      -54.514     -101.255       19.445      151.884      123.094       77.232    23068.753    15152.096     5964.826        2.889        2.209      114.997       72.548        0.398      348.901       28.935      858.501
09/24/2014  14:31:00      -77.678      -85.820       -1.813       92.257       82.440       43.542     8511.367     6796.401     1895.942        1.530        0.860      115.754       47.629        0.169      348.902       28.936      858.528
09/24/2014  14:32:00      -22.545      -85.762       -7.621       96.105      151.846       84.903     9236.199    23057.307     7208.585        2.371        1.975       88.676       87.798        0.980      349.239       29.520      858.492
09/24/2014  14:33:00      -63.767     -107.238        2.482       86.927      113.199       72.159     7556.357    12814.113     5206.938        2.057        1.279      124.765       53.380        0.183      349.154       29.372      858.520
09/24/2014  14:34:00      -23.706     -240.092        4.684      193.499      233.433       89.900    37442.005    54491.122     8082.087        7.911        5.001      241.260       95.216        0.156      349.026       29.149      858.515
09/24/2014  14:35:00      -47.728     -220.065       44.747      160.008      171.809      100.303    25602.662    29518.246    10060.648        5.893        3.259      225.181       96.887        0.185      348.873       28.884      858.488
09/24/2014  14:36:00       13.609     -204.196      -17.045      156.393      131.065       75.347    24458.877    17178.133     5677.161        4.474        2.366      204.649       60.817        0.088      348.794       28.747      858.446
09/24/2014  14:37:00       45.077     -149.479       11.713      141.581      232.029       73.365    20045.277    53837.582     5382.389        5.188        3.963      156.127       76.930        0.243      348.933       28.988      858.423
09/24/2014  14:38:00      141.228     -344.231       -5.620      192.931      146.274       97.924    37222.320    21396.115     9589.068       10.333        3.410      372.075       87.731        0.056      348.888       28.908      858.406
09/24/2014  14:39:00      -56.654     -115.612       32.910      201.966      179.149       85.075    40790.407    32094.323     7237.742        4.888        4.006      128.747       92.990        0.522      349.017       29.134      858.415
09/24/2014  14:40:00      -82.760     -347.436       -3.595      136.830      192.696       90.166    18722.381    37131.846     8129.934        9.577        3.199      357.157       65.953        0.034      348.809       28.774      858.487
09/24/2014  14:41:00       -1.108     -237.756      -25.920      168.609      166.670       74.986    28429.040    27778.895     5622.937        5.951        3.092      237.759       18.066        0.006      348.744       28.660      858.523
09/24/2014  14:42:00        4.362     -204.931        2.927      117.321      108.171       66.140    13764.158    11700.975     4374.549        3.593        1.492      204.978       50.520        0.061      348.935       28.991      858.483
09/24/2014  14:43:00     -135.239      -99.333      -12.354      143.039       92.699       51.175    20460.241     8593.055     2618.919        2.999        1.584      167.799       37.518        0.050      348.966       29.045      858.447
09/24/2014  14:44:00       25.048     -232.241       15.497      155.429      179.109       72.852    24158.311    32080.203     5307.350        5.816        3.077      233.588       84.923        0.132      348.949       29.017      858.438
09/24/2014  14:45:00       23.403     -201.763        5.739      141.251      185.184       69.298    19951.850    34292.971     4802.250        5.016        2.952      203.116       49.823        0.060      349.107       29.290      858.443
09/24/2014  14:46:00      -47.019     -202.866        0.008       99.341      136.666       62.799     9868.617    18677.678     3943.762        3.792        1.625      208.243       62.886        0.091      348.976       29.063      858.457
09/24/2014  14:47:00      -38.819     -172.347       -6.571      107.931      115.962       54.220    11649.125    13447.205     2939.847        2.964        1.402      176.665       41.759        0.056      349.087       29.256      858.423
09/24/2014  14:48:00       -8.557     -275.508       -7.491      111.195      195.968       80.551    12364.276    38403.302     6488.419        6.664        2.863      275.641       91.389        0.110      348.767       28.702      858.424
09/24/2014  14:49:00     -103.215     -231.218       -5.995      193.999      165.497       91.884    37635.450    27389.142     8442.683        6.880        3.673      253.210       86.783        0.117      348.838       28.824      858.390
09/24/2014  14:50:00        2.528     -145.430        6.402      125.463       81.835       74.132    15740.855     6697.035     5495.584        2.456        1.397      145.452       66.940        0.212      349.045       29.184      858.392
09/24/2014  14:51:00       49.847     -298.439       -7.568      200.743      199.571       93.441    40297.732    39828.482     8731.228        9.022        4.443      302.573       70.272        0.054      348.742       28.658      858.390
09/24/2014  14:52:00     -100.686     -186.339        9.153      121.150      221.991       76.897    14677.419    49280.141     5913.106        5.740        3.494      211.801       68.739        0.105      348.862       28.865      858.411
09/24/2014  14:53:00       25.355     -134.052        5.069      104.615       87.574       54.285    10944.311     7669.252     2946.835        2.010        1.078      136.429       42.598        0.097      348.863       28.870      858.392
09/24/2014  14:54:00       27.572     -128.594       12.119       79.348       89.832       66.155     6296.132     8069.773     4376.470        1.809        0.937      131.517       48.352        0.135      349.043       29.181      858.344
09/24/2014  14:55:00      -85.593     -157.361       15.827      191.251      174.660      104.113    36577.000    30505.955    10839.494        5.512        3.896      179.133       97.869        0.298      348.964       29.041      858.319
09/24/2014  14:56:00      -58.980     -211.852       -6.770      186.645      139.652       83.324    34836.487    19502.546     6942.860        5.483        3.064      219.909       62.525        0.081      348.872       28.883      858.363
09/24/2014  14:57:00       59.559     -287.540       -5.480      131.666      178.353       99.238    17335.829    31809.912     9848.107        7.262        2.950      293.643       96.264        0.107      348.810       28.776      858.328
09/24/2014  14:58:00       92.835     -274.962       12.346      130.397      203.595       78.323    17003.279    41451.003     6134.560        7.447        3.229      290.211       86.972        0.090      348.924       28.972      858.280
09/24/2014  14:59:00       41.817     -192.893       51.496      182.178      239.346      135.113    33189.002    57286.350    18255.423        7.515        5.437      197.373      149.443        0.573      348.972       29.055      858.208
09/24/2014  15:00:00      -46.776     -218.696       -6.827      141.082      171.465       88.644    19904.163    29400.233     7857.840        5.360        2.858      223.642       67.272        0.090      349.120       29.311      858.204
09/24/2014  15:01:00      -19.363     -240.990        3.070      147.605      182.078       77.753    21787.113    33152.324     6045.594        5.971        3.049      241.767       72.150        0.089      348.997       29.099      858.232
09/24/2014  15:02:00      104.985     -286.211       -2.929      171.751      145.787       93.010    29498.554    21253.982     8650.838        7.617        2.970      304.859       88.362        0.084      348.756       28.682      858.257
09/24/2014  15:03:00      -72.564     -183.167      -23.437      104.544       91.518       64.710    10929.531     8375.604     4187.440        3.142        1.175      197.017       45.246        0.053      348.922       28.969      858.284
09/24/2014  15:04:00        1.241     -363.233       14.336      199.016      196.806      109.180    39607.190    38732.603    11920.342       11.119        4.513      363.236      104.783        0.083      348.811       28.775      858.288
09/24/2014  15:05:00      -55.644     -373.582      -20.883      134.281      153.505       78.570    18031.447    23563.769     6173.184        9.542        2.388      377.703       48.121        0.016      348.716       28.614      858.295
09/24/2014  15:06:00       44.086     -266.814      -35.493      136.102      122.090      101.461    18523.748    14905.997    10294.399        5.905        2.186      270.431       58.710        0.047      348.735       28.644      858.251
09/24/2014  15:07:00      -34.369     -163.096        4.544      116.509      104.857       54.476    13574.336    10995.011     2967.670        2.767        1.377      166.678       39.721        0.057      348.841       28.829      858.224
09/24/2014  15:08:00     -159.582     -334.475      -22.181      228.242      140.525       83.035    52094.480    19747.293     6894.847       10.827        3.937      370.594       84.945        0.053      348.717       28.615      858.223
09/24/2014  15:09:00      -47.907     -202.245      -16.836      129.905      118.773       62.790    16875.285    14106.922     3942.596        3.920        1.746      207.842       32.103        0.024      348.705       28.593      858.160
09/24/2014  15:10:00      -36.301     -129.361        5.925      111.329      136.282       71.322    12394.160    18572.695     5086.800        2.706        1.803      134.358       64.415        0.230      349.109       29.295      858.171
09/24/2014  15:11:00       73.585     -331.024      -24.295      153.092      206.722       97.010    23437.184    42733.942     9410.909        9.557        3.779      339.104       81.145        0.057      348.711       28.603      858.168
09/24/2014  15:12:00      -61.754     -286.741       -7.969      153.597      187.899       65.504    23591.902    35305.974     4290.828        7.463        3.159      293.316       59.844        0.042      348.800       28.758      858.155
09/24/2014  15:13:00     -227.126     -142.914       23.828      195.564      120.065       76.344    38245.224    14415.500     5828.432        6.552        2.924      268.348       85.891        0.102      348.924       28.972      858.141
09/24/2014  15:14:00     -244.412     -176.039       -8.094      166.355      116.632       72.747    27673.994    13603.046     5292.173        6.867        2.328      301.209       77.174        0.066      349.024       29.145      858.120
09/24/2014  15:15:00      -79.268     -178.441       -3.602       94.966      103.540       64.277     9018.499    10720.579     4131.497        3.100        1.194      195.255       57.045        0.085      349.025       29.147      858.114
09/24/2014  15:16:00      -95.537     -137.728       31.922      216.725      146.854       85.419    46969.628    21566.102     7296.415        5.246        3.792      167.619       93.844        0.313      348.943       29.004      858.116
09/24/2014  15:17:00      -52.380     -295.720        7.865      192.320      168.770       92.096    36986.840    28483.419     8481.726        8.209        3.698      300.323       85.954        0.082      348.808       28.772      858.102
09/24/2014  15:18:00       -1.396     -351.438        2.417      184.324      201.932      102.069    33975.491    40776.527    10418.024       10.433        4.259      351.440       88.248        0.063      348.761       28.689      858.118
09/24/2014  15:19:00      -26.498     -293.292        4.303      138.116      227.543       85.814    19076.149    51775.712     7364.063        8.247        3.911      294.487       94.760        0.104      348.849       28.843      858.140
09/24/2014  15:20:00      -22.555     -464.371      -28.020      212.105      175.739       82.622    44988.470    30884.113     6826.361       14.980        4.135      464.919       51.146        0.012      348.656       28.508      858.096
09/24/2014  15:21:00     -125.945     -239.413      -24.519      204.424      135.579      101.304    41789.151    18381.793    10262.499        7.210        3.522      270.519       94.572        0.122      348.779       28.722      858.077
09/24/2014  15:22:00     -236.964     -206.837       -8.517      167.355      144.163       81.242    28007.621    20783.079     6600.188        7.719        2.770      314.537       54.719        0.030      348.933       28.987      858.061
09/24/2014  15:23:00      -81.740     -115.646        9.058      162.001      138.090       93.375    26244.312    19068.883     8718.876        3.708        2.702      141.617       81.369        0.330      348.917       28.961      858.056
09/24/2014  15:24:00     -115.533     -259.275      -17.237      181.745      147.261       81.054    33031.161    21685.935     6569.785        7.107        3.064      283.851       76.710        0.073      348.882       28.899      858.044
09/24/2014  15:25:00     -199.250     -221.177       -5.442      159.662      146.408       66.079    25491.832    21435.175     4366.490        6.996        2.565      297.691       64.204        0.047      349.047       29.184      858.022
09/24/2014  15:26:00     -137.940     -170.314      -21.821       90.825      121.849       54.931     8249.164    14847.129     3017.366        3.731        1.306      219.167       48.963        0.050      349.074       29.233      858.017
09/24/2014  15:27:00      -44.557     -184.889      -16.555       83.221      152.676       76.766     6925.708    23310.087     5893.095        3.628        1.806      190.182       53.612        0.079      349.131       29.332      858.025
09/24/2014  15:28:00      -43.622     -171.474       -8.437      153.404      113.371       67.492    23532.888    12853.022     4555.183        3.615        2.047      176.935       22.433        0.016      348.992       29.092      857.980
09/24/2014  15:29:00        6.710     -132.971       13.320       83.415       77.195       50.637     6958.036     5959.045     2564.109        1.669        0.774      133.140       28.235        0.045      349.059       29.208      857.967
09/24/2014  15:30:00        5.305     -108.313        6.870      114.691      122.335       66.205    13154.115    14965.788     4383.163        2.215        1.625      108.443       51.770        0.228      349.173       29.406      857.932
09/24/2014  15:31:00     -182.112     -259.547      -33.912      228.466      199.757       90.232    52196.837    39902.679     8141.863       10.094        5.012      317.064       95.660        0.091      349.003       29.110      857.903
09/24/2014  15:32:00      -82.132      -79.977       19.505      133.978      102.189       62.365    17950.173    10442.524     3889.431        2.290        1.614      114.638       52.899        0.213      349.183       29.424      857.910
09/24/2014  15:33:00      -48.804     -212.809      -26.556       88.673       87.498       54.923     7862.860     7655.882     3016.564        3.345        0.927      218.333       31.740        0.021      349.048       29.188      857.904
09/24/2014  15:34:00      -27.714     -172.251       -2.588      122.093       80.830       57.778    14906.756     6533.446     3338.244        2.761        1.239      174.466       42.155        0.058      349.142       29.351      857.910
09/24/2014  15:35:00     -108.919     -215.653      -11.261      161.173      133.764       74.288    25976.601    17892.771     5518.687        5.393        2.469      241.598       53.620        0.049      349.153       29.368      857.948
09/24/2014  15:36:00      -34.246     -245.032        4.527      173.192      176.897       86.739    29995.299    31292.667     7523.738        6.501        3.441      247.414       69.686        0.079      349.110       29.295      857.938
09/24/2014  15:37:00        4.261     -115.071        6.610      153.386      102.410       60.695    23527.417    10487.910     3683.852        2.549        1.885      115.150       55.551        0.233      349.115       29.304      857.920
09/24/2014  15:38:00      -82.352     -163.262       10.817      127.180       83.910       64.907    16174.717     7040.866     4212.920        3.049        1.371      182.856       48.098        0.069      348.953       29.022      857.926
09/24/2014  15:39:00     -176.110     -160.779        4.979      188.800      127.721       79.616    35645.413    16312.570     6338.770        5.758        2.915      238.463       95.719        0.161      349.043       29.179      857.923
09/24/2014  15:40:00     -121.050     -213.314        6.586      124.101      201.583       68.261    15401.082    40635.847     4659.576        6.044        3.035      245.267       90.692        0.137      348.958       29.030      857.917
09/24/2014  15:41:00      -80.969     -188.466       19.088      199.702      115.906       78.536    39880.998    13434.215     6167.951        5.095        2.974      205.123       75.078        0.134      349.071       29.227      857.894
09/24/2014  15:42:00     -166.471     -258.555       -0.776      121.914      148.810       66.347    14863.137    22144.284     4401.951        6.798        2.070      307.512       59.484        0.037      349.033       29.162      857.903
09/24/2014  15:43:00     -201.286     -140.488       -1.624      156.914      103.122       66.287    24621.921    10634.164     4393.957        4.995        1.983      245.464       53.369        0.047      349.016       29.131      857.880
09/24/2014  15:44:00     -169.491     -101.942       -0.364      138.150      125.660       69.550    19085.460    15790.387     4837.151        3.941        1.986      197.786       69.574        0.124      348.968       29.049      857.864
09/24/2014  15:45:00     -135.790     -143.438        3.096      104.878       84.829       52.767    10999.435     7195.949     2784.348        3.000        1.049      197.518       48.320        0.060      349.046       29.183      857.851
09/24/2014  15:46:00     -133.539     -221.016       10.209      173.759      138.584       74.955    30192.134    19205.564     5618.258        6.089        2.751      258.226       77.607        0.090      348.997       29.098      857.843
09/24/2014  15:47:00     -253.694     -295.334       -7.936      156.026      224.948       88.570    24344.266    50601.693     7844.714       11.720        4.140      389.336       91.258        0.055      348.914       28.954      857.821
09/24/2014  15:48:00      -55.144     -146.410       -2.263      140.204       87.174       61.449    19657.256     7599.301     3776.037        2.775        1.552      156.450       23.565        0.023      349.106       29.289      857.841
09/24/2014  15:49:00      -27.197     -174.126      -13.713      138.792      144.904       78.059    19263.330    20997.102     6093.258        3.879        2.318      176.237       75.958        0.186      349.099       29.276      857.822
09/24/2014  15:50:00        4.433     -193.002       -1.152      170.518      164.049       81.043    29076.370    26912.121     6568.001        4.990        3.128      193.053       74.617        0.149      349.021       29.142      857.813
09/24/2014  15:51:00     -139.150     -241.249       -2.842      170.555      224.642       86.844    29089.059    50463.810     7541.891        8.232        4.355      278.503       83.798        0.091      348.985       29.076      857.832
09/24/2014  15:52:00      -81.138     -117.897       -9.604      137.260      130.971       50.699    18840.386    17153.531     2570.408        2.956        1.928      143.119       55.735        0.152      348.984       29.078      857.740
09/24/2014  15:53:00     -167.562     -265.496        4.523      145.472      155.984       74.336    21162.227    24330.996     5525.862        7.479        2.551      313.951       44.481        0.020      348.997       29.098      857.790
09/24/2014  15:54:00     -140.879     -346.440      -15.499      155.388      152.795       80.992    24145.300    23346.311     6559.708        9.707        2.703      373.989       72.429        0.038      349.027       29.149      857.799
09/24/2014  15:55:00     -197.729     -387.579        3.960      136.222      152.885       79.181    18556.444    23373.946     6269.636       11.876        2.410      435.102       74.753        0.030      348.835       28.816      857.797
09/24/2014  15:56:00     -204.091     -128.836       20.125      171.137      131.455       66.827    29287.936    17280.331     4465.801        5.484        2.552      241.354       81.529        0.114      349.007       29.116      857.772
09/24/2014  15:57:00      -21.510     -116.385        2.073       83.483      106.386       54.402     6969.476    11317.886     2959.543        1.763        1.062      118.356       48.808        0.170      349.073       29.231      857.741
09/24/2014  15:58:00     -172.240     -209.059       -3.175      159.939      148.844       81.554    25580.506    22154.514     6651.094        6.388        2.719      270.874       56.736        0.044      349.029       29.152      857.731
09/24/2014  15:59:00     -147.910     -226.431        9.739      101.876       89.804       55.707    10378.635     8064.706     3103.323        4.739        1.077      270.460       49.901        0.034      349.128       29.326      857.738
09/24/2014  16:00:00     -243.914     -310.257       -9.726      170.349      162.310       84.778    29018.760    26344.646     7187.350       10.919        3.128      394.656       87.075        0.049      349.042       29.176      857.756
09/24/2014  16:01:00     -271.812     -245.576        1.002      167.510      147.288       78.510    28059.648    21693.889     6163.750        9.504        2.796      366.319       68.064        0.035      348.876       28.890      857.738
09/24/2014  16:02:00     -262.092     -175.117       -1.532      140.065      116.782       65.806    19618.244    13638.084     4330.414        6.847        1.879      315.211       53.192        0.028      348.881       28.897      857.713
09/24/2014  16:03:00     -249.737     -140.544        8.749      165.298      134.806       69.399    27323.443    18172.721     4816.262        6.625        2.516      286.568       77.220        0.073      348.925       28.974      857.712
09/24/2014  16:04:00     -308.707     -282.626       -5.373      212.307      167.783       85.007    45074.207    28151.295     7226.249       12.782        4.023      418.542       82.259        0.039      348.942       29.003      857.710
09/24/2014  16:05:00     -296.768     -267.429       -9.518      193.120      160.867       86.500    37295.414    25878.047     7482.248       11.516        3.533      399.486       92.234        0.053      348.837       28.821      857.712
09/24/2014  16:06:00     -227.914     -343.195      -10.861      126.518      168.710       75.818    16006.761    28463.167     5748.409       11.002        2.511      411.980       63.555        0.024      348.865       28.870      857.731
09/24/2014  16:07:00     -235.665     -165.024       21.783      168.104      123.218       73.088    28258.979    15182.746     5341.792        6.601        2.439      287.699       77.766        0.073      348.935       28.992      857.717
09/24/2014  16:08:00     -231.373     -331.574        3.216      161.753      150.075       86.674    26163.896    22522.620     7512.364       10.983        2.810      404.321       93.928        0.054      348.806       28.766      857.712
09/24/2014  16:09:00     -231.060     -126.911        8.599      142.052      111.444       68.085    20178.833    12419.744     4635.606        5.340        1.862      263.619       68.154        0.067      348.975       29.060      857.682
09/24/2014  16:10:00     -169.391     -180.294      -10.403      151.114      103.273       57.428    22835.563    10665.306     3297.976        4.905        1.840      247.385       58.386        0.056      349.050       29.192      857.692
09/24/2014  16:11:00     -201.565     -164.181       -7.515      141.879      107.203       60.344    20129.578    11492.465     3641.367        5.145        1.763      259.969       70.980        0.075      348.951       29.018      857.695
09/24/2014  16:12:00     -247.981     -368.992        9.046      191.051      171.118       81.290    36500.516    29281.207     6608.066       13.505        3.619      444.578       82.400        0.034      348.780       28.723      857.713
09/24/2014  16:13:00     -232.754     -196.918       -7.858      120.067      130.479       70.095    14416.014    17024.881     4913.358        6.468        1.818      304.880       62.924        0.043      348.773       28.711      857.691
09/24/2014  16:14:00     -278.865     -240.346      -24.343      127.960      133.395       67.560    16373.879    17794.278     4564.352        8.742        1.937      368.147       62.941        0.029      348.768       28.702      857.684
09/24/2014  16:15:00     -323.292     -176.230       -7.424      181.726      128.635       85.256    33024.386    16546.876     7268.548        9.623        2.842      368.204       89.904        0.060      348.773       28.710      857.703
09/24/2014  16:16:00     -323.891     -167.511       -4.781      144.720      114.463       75.524    20943.805    13101.669     5703.831        8.636        1.987      364.644       68.902        0.036      348.849       28.841      857.670
09/24/2014  16:17:00     -157.684     -220.667       -1.422      109.572      104.912       62.196    12006.079    11006.598     3868.283        5.022        1.344      271.216       58.311        0.046      348.905       28.938      857.665
09/24/2014  16:18:00     -253.163     -147.017        2.716      114.070       92.525       60.692    13011.865     8560.841     3683.497        5.548        1.263      292.756       62.755        0.046      349.049       29.189      857.659
09/24/2014  16:19:00     -267.684     -188.734       -9.021      148.563      130.773       67.304    22070.899    17101.564     4529.866        7.552        2.185      327.529       63.244        0.037      348.996       29.097      857.644
09/24/2014  16:20:00     -223.498     -325.519      -10.932      151.079      148.408       69.979    22824.950    22024.844     4897.011       10.288        2.487      394.859       81.006        0.042      348.843       28.831      857.632
09/24/2014  16:21:00     -156.804     -181.385       -4.102      136.450       86.513       61.769    18618.701     7484.521     3815.461        4.371        1.496      239.767       63.635        0.070      348.977       29.064      857.610
09/24/2014  16:22:00     -214.380     -260.807       -8.384      104.696      137.958       66.517    10961.172    19032.290     4424.451        7.423        1.721      337.608       47.275        0.020      348.947       29.012      857.607
09/24/2014  16:23:00     -166.295     -285.406       -4.250      125.827      153.648       72.930    15832.472    23607.778     5318.771        7.694        2.238      330.319       56.733        0.029      348.996       29.096      857.595
09/24/2014  16:24:00     -284.770     -263.373      -12.626      220.881      170.488       93.166    48788.501    29066.071     8679.883       11.856        4.327      387.891       95.798        0.061      348.984       29.076      857.616
09/24/2014  16:25:00     -227.015     -319.790       -1.077      227.019      164.702       94.551    51537.458    27126.765     8939.827       12.069        4.380      392.175       86.345        0.048      348.899       28.929      857.568
09/24/2014  16:26:00     -351.390     -228.242       -0.818      212.688      170.193       98.321    45236.135    28965.678     9666.945       12.971        4.193      419.009       82.947        0.039      348.878       28.891      857.581
09/24/2014  16:27:00     -205.173     -341.654       -3.202      172.127      302.283       75.330    29627.595    91375.183     5674.671       14.273        6.334      398.527       90.305        0.051      348.895       28.922      857.554
09/24/2014  16:28:00     -209.112     -222.582       -7.416      183.133      140.965       87.553    33537.786    19871.197     7665.451        7.719        3.054      305.402       92.063        0.091      348.990       29.087      857.534
09/24/2014  16:29:00     -134.823     -253.606       20.560      152.173      149.807       68.290    23156.598    22442.274     4663.577        6.658        2.513      287.216       68.287        0.057      349.081       29.243      857.553
09/24/2014  16:30:00        2.115     -206.741        6.562      175.772      158.337       98.813    30895.864    25070.679     9764.048        5.425        3.287      206.752       52.458        0.064      349.008       29.117      857.499
09/24/2014  16:31:00     -194.713     -126.283        5.782      114.377       90.108       62.302    13081.985     8119.389     3881.566        3.948        1.254      232.078       61.971        0.071      349.150       29.365      857.524
09/24/2014  16:32:00     -133.331     -149.654        4.008      225.879      114.910       71.559    51021.544    13204.349     5120.649        5.476        3.467      200.434       74.969        0.140      349.012       29.125      857.522
09/24/2014  16:33:00     -103.748     -255.478      -14.371      151.789      170.131       81.946    23039.799    28944.516     6715.119        6.746        2.935      275.740       46.873        0.029      349.026       29.148      857.542
09/24/2014  16:34:00      -74.025     -325.628      -16.015      204.203      154.512       93.446    41698.838    23874.059     8732.161        9.303        3.715      333.936       71.224        0.045      348.872       28.881      857.542
09/24/2014  16:35:00      -73.831     -297.781        5.047      136.886      157.411       76.984    18737.787    24778.221     5926.605        7.179        2.472      306.797       66.544        0.047      348.926       28.976      857.553
09/24/2014  16:36:00     -230.640     -284.435      -12.064      169.143      212.227       83.946    28609.400    45040.510     7046.908       10.746        4.035      366.194       68.003        0.034      348.827       28.803      857.508
09/24/2014  16:37:00     -184.247     -242.461        1.379      187.495      133.320       68.015    35154.193    17774.111     4626.072        7.514        2.878      304.523       52.226        0.029      348.977       29.064      857.503
09/24/2014  16:38:00     -189.141     -271.561        9.804      164.726      203.162       78.381    27134.705    41274.977     6143.649        9.207        3.728      330.938       83.719        0.064      348.885       28.905      857.506
09/24/2014  16:39:00     -251.010     -142.753       -4.812      134.639      117.456       73.470    18127.667    13796.008     5397.781        6.036        1.866      288.764       55.226        0.037      348.914       28.955      857.478
09/24/2014  16:40:00      -95.563      -95.698       32.051      143.559      116.773       73.713    20609.131    13635.991     5433.669        2.949        1.984      135.242       79.722        0.347      349.004       29.110      857.496
09/24/2014  16:41:00     -159.106     -141.954        1.280      109.469       96.656       56.994    11983.440     9342.415     3248.312        3.502        1.229      213.227       50.773        0.057      348.998       29.101      857.477
09/24/2014  16:42:00      -95.647     -146.434      -13.331      155.336       97.490       68.494    24129.144     9504.351     4691.483        3.454        1.916      174.904       72.085        0.170      349.067       29.219      857.470
09/24/2014  16:43:00     -242.185     -226.885       -1.093      202.985      178.836       78.107    41202.719    31982.380     6100.694        9.470        3.964      331.859       80.457        0.059      348.892       28.917      857.476
09/24/2014  16:44:00     -204.453     -209.552       24.133      180.722      193.783       78.447    32660.549    37551.959     6153.944        8.132        3.818      292.768       84.789        0.084      348.854       28.851      857.418
09/24/2014  16:45:00     -294.255     -216.260        4.867      213.666      149.956       86.971    45653.130    22486.702     7564.005       10.453        3.785      365.177      102.216        0.078      348.824       28.799      857.436
09/24/2014  16:46:00     -536.942     -276.396      -10.815      244.697      204.810      111.427    59876.548    41947.255    12415.896       23.951        5.712      603.905      130.428        0.047      348.587       28.389      857.380
09/24/2014  16:47:00     -415.434     -264.799       -6.495      227.714      138.568       85.723    51853.846    19200.991     7348.439       16.056        3.920      492.650      106.634        0.047      348.567       28.353      857.391
09/24/2014  16:48:00     -277.117     -162.955        1.848      188.516      109.608       69.500    35538.340    12013.877     4830.192        7.786        2.619      321.478       60.704        0.036      348.630       28.462      857.420
09/24/2014  16:49:00     -305.472     -200.588        1.855      149.989      121.789       76.035    22496.600    14832.510     5781.388        8.832        2.156      365.443       79.230        0.047      348.694       28.574      857.413
09/24/2014  16:50:00     -239.499     -169.482        0.683      185.306      117.662       71.785    34338.309    13844.418     5153.074        6.970        2.667      293.401       94.756        0.104      348.760       28.688      857.402
09/24/2014  16:51:00     -286.469     -154.264        4.026      164.794      115.836       65.824    27156.993    13418.035     4332.825        7.539        2.245      325.365       56.976        0.031      348.850       28.844      857.417
09/24/2014  16:52:00     -224.922     -353.337       -0.426      315.413      228.421      128.455    99485.486    52176.369    16500.763       17.177        8.408      418.852      143.933        0.118      348.739       28.653      857.438
09/24/2014  16:53:00      141.568     -379.171      -63.808      288.667      218.194      123.713    83328.921    47608.793    15304.810       15.704        7.312      404.737      119.974        0.088      348.680       28.550      857.335
09/24/2014  16:54:00     -136.363     -122.037       10.487      111.593      138.893       60.455    12452.899    19291.342     3654.795        3.449        1.770      182.997       66.524        0.132      348.858       28.859      857.421
09/24/2014  16:55:00     -119.680     -224.589       25.860      154.150      206.395       73.846    23762.169    42598.952     5453.274        6.861        3.591      254.487       63.603        0.062      348.810       28.776      857.381
09/24/2014  16:56:00     -126.452     -168.343       -9.459      115.499      117.420       46.369    13340.020    13787.427     2150.056        3.684        1.464      210.546       23.190        0.012      348.901       28.933      857.369
09/24/2014  16:57:00     -236.464     -384.958      -17.567      124.191      171.934       81.452    15423.406    29561.369     6634.379       12.801        2.581      451.783       73.577        0.027      348.744       28.658      857.327
09/24/2014  16:58:00      -98.453     -199.418      -11.594      166.239      120.586       76.143    27635.447    14541.100     5797.705        4.878        2.399      222.397       61.516        0.077      348.842       28.830      857.316
09/24/2014  16:59:00      -73.879     -154.660       24.708      188.951      123.041       76.202    35702.399    15138.984     5806.690        4.331        2.832      171.400       51.581        0.091      348.787       28.734      857.317
09/24/2014  17:00:00     -192.531     -134.573      -10.926      147.847       99.603       51.217    21858.736     9920.713     2623.154        4.484        1.720      234.900       46.275        0.039      348.928       28.979      857.316
09/24/2014  17:01:00     -176.819     -215.370        9.536       83.865      158.620       59.560     7033.258    25160.282     3547.350        5.673        1.787      278.656       61.506        0.049      348.804       28.763      857.316
09/24/2014  17:02:00     -186.298     -260.952        3.313      140.859      142.302       80.410    19841.231    20249.789     6465.744        7.468        2.328      320.629       57.758        0.032      348.817       28.786      857.298
09/24/2014  17:03:00     -413.815     -255.738        0.646      227.704      193.928       83.576    51849.233    37608.170     6984.992       16.653        4.822      486.461       88.783        0.033      348.685       28.558      857.267
09/24/2014  17:04:00     -251.642     -248.597       10.213      175.945      224.243       98.416    30956.680    50284.923     9685.781       10.806        4.546      353.729      103.023        0.085      348.682       28.553      857.249
09/24/2014  17:05:00     -162.839     -320.852        8.881      182.218      175.849       85.773    33203.245    30922.997     7357.035       10.050        3.574      359.809       80.721        0.050      348.710       28.601      857.309
09/24/2014  17:06:00     -134.380     -479.984        2.469      112.695      140.233       77.844    12700.138    19665.296     6059.707       14.343        1.921      498.440       55.683        0.012      348.677       28.544      857.302
09/24/2014  17:07:00     -208.156     -367.589      -24.190      183.930      169.046      100.012    33830.243    28576.686    10002.425       12.571        3.620      422.434      107.071        0.064      348.633       28.468      857.303
09/24/2014  17:08:00     -256.736     -278.826        5.134      223.477      155.606       84.456    49941.761    24213.181     7132.885       11.247        4.064      379.022       90.072        0.056      348.633       28.467      857.284
09/24/2014  17:09:00     -347.969     -152.870       -9.766      207.054      119.365       81.382    42871.401    14248.056     6623.039       10.413        3.187      380.068       78.735        0.043      348.702       28.586      857.244
09/24/2014  17:10:00     -167.181     -209.818        1.629      114.867      106.433       62.881    13194.351    11328.066     3954.058        5.022        1.424      268.278       53.419        0.040      348.689       28.563      857.228
09/24/2014  17:11:00     -239.278     -294.993       -3.600      154.014      179.348       74.560    23720.317    32165.761     5559.250       10.286        3.072      379.835       70.639        0.035      348.677       28.544      857.241
09/24/2014  17:12:00     -190.740     -343.610        4.253      201.804      185.084       86.764    40724.884    34256.096     7528.023       11.847        4.125      393.000      108.206        0.076      348.692       28.569      857.270
09/24/2014  17:13:00     -275.350     -379.336       -6.952      169.082      236.237       87.237    28588.608    55807.950     7610.221       15.587        4.600      468.736       86.242        0.034      348.615       28.438      857.264
09/24/2014  17:14:00     -184.207     -305.408      -13.431      139.566      113.333       71.556    19478.785    12844.294     5120.197        8.241        1.872      356.660       68.325        0.037      348.689       28.565      857.291
09/24/2014  17:15:00     -135.227     -264.645        0.850      166.801      177.192       80.709    27822.490    31396.919     6513.964        7.702        3.287      297.192       63.049        0.045      348.696       28.578      857.341
09/24/2014  17:16:00     -280.116     -301.714      -23.053      142.303      221.627       87.313    20250.019    49118.645     7623.587       12.350        3.850      411.700       74.216        0.032      348.593       28.399      857.279
09/24/2014  17:17:00     -175.986     -188.176       -5.058      137.773      159.732       92.612    18981.482    25514.156     8576.950        5.973        2.654      257.645       79.518        0.095      348.706       28.594      857.255
09/24/2014  17:18:00     -246.919     -191.770        9.641      213.104      170.744       93.801    45413.274    29153.574     8798.568        9.059        4.168      312.642      104.676        0.112      348.613       28.434      857.257
09/24/2014  17:19:00     -172.681     -317.509      -14.807      147.104      146.394       78.047    21639.451    21431.058     6091.327        9.000        2.458      361.429       78.569        0.047      348.601       28.411      857.260
09/24/2014  17:20:00     -273.967     -328.591      -11.179      183.406      168.394       76.750    33637.601    28356.521     5890.552       12.551        3.394      427.819       62.261        0.021      348.565       28.349      857.246
09/24/2014  17:21:00     -281.561     -319.352      -27.499      196.626      168.116       90.412    38661.723    28263.055     8174.414       12.855        3.755      425.749       78.485        0.034      348.504       28.246      857.238
09/24/2014  17:22:00      -54.809     -201.488       -0.487      144.947      136.337      100.040    21009.512    18587.756    10007.976        4.660        2.480      208.810       65.853        0.099      348.542       28.312      857.294
09/24/2014  17:23:00     -175.978     -218.447      -12.958      183.625      127.179       67.826    33718.115    16174.548     4600.353        6.666        2.725      280.513       75.416        0.072      348.555       28.332      857.301
09/24/2014  17:24:00     -171.774     -203.625        0.033      149.401      103.056       51.490    22320.665    10620.570     2651.175        5.327        1.780      266.401       54.639        0.042      348.485       28.212      857.252
09/24/2014  17:25:00     -291.764     -444.726       -1.662      201.803      195.312      108.617    40724.456    38146.831    11797.588       18.677        4.533      531.890       94.452        0.032      348.443       28.140      857.281
09/24/2014  17:26:00     -223.527     -329.603       11.704      184.555      169.925      107.279    34060.608    28874.385    11508.737       11.658        3.722      398.249      114.160        0.082      348.467       28.180      857.296
09/24/2014  17:27:00     -139.268     -301.806      -13.265      137.514      141.890       73.779    18909.972    20132.680     5443.386        7.756        2.224      332.389       64.306        0.037      348.540       28.307      857.312
09/24/2014  17:28:00     -113.348     -118.022       12.534      123.201      103.953       52.200    15178.408    10806.169     2724.864        2.782        1.435      163.637       49.920        0.093      348.580       28.376      857.318
09/24/2014  17:29:00     -108.113     -242.841      -13.584      157.537       93.222       65.404    24818.059     8690.412     4277.711        5.431        1.889      265.820       56.438        0.045      348.527       28.283      857.317
09/24/2014  17:30:00     -204.660     -186.719       -5.946      128.163      120.255       61.815    16425.641    14461.234     3821.098        5.574        1.735      277.037       61.168        0.049      348.534       28.297      857.310
09/24/2014  17:31:00     -244.753     -168.376        3.645      152.622      169.327       75.348    23293.354    28671.671     5677.256        7.295        2.882      297.076       76.616        0.067      348.494       28.228      857.278
09/24/2014  17:32:00     -309.854     -253.552      -17.191      205.307      154.942       95.914    42151.136    24006.964     9199.491       11.796        3.768      400.373      108.469        0.073      348.435       28.127      857.225
09/24/2014  17:33:00     -254.697     -197.261        9.833      202.654      133.217       88.138    41068.517    17746.660     7768.231        8.522        3.329      322.153       86.447        0.072      348.448       28.151      857.260
09/24/2014  17:34:00     -104.392     -178.957       20.222      132.439      136.391       64.275    17540.168    18602.589     4131.322        4.180        2.014      207.179       67.302        0.106      348.507       28.250      857.262
09/24/2014  17:35:00     -143.737     -381.218       -6.366      158.774      158.889       83.759    25209.191    25245.633     7015.555       11.174        2.874      407.415       72.302        0.031      348.489       28.219      857.290
09/24/2014  17:36:00     -213.931     -398.599       -2.096      194.998      180.874       89.617    38024.310    32715.463     8031.220       14.170        3.939      452.380       83.285        0.034      348.445       28.143      857.300
09/24/2014  17:37:00     -199.902     -260.172       -1.437      161.800      169.972       79.060    26179.084    28890.499     6250.516        8.448        3.066      328.101       79.750        0.059      348.428       28.115      857.316
09/24/2014  17:38:00     -305.708     -216.235       -2.594      163.272      151.800       88.013    26657.866    23043.376     7746.277        9.883        2.872      374.453       79.857        0.045      348.361       27.997      857.281
09/24/2014  17:39:00     -361.791     -294.352      -17.092      150.017      124.792       63.554    22505.204    15572.937     4039.052       12.997        2.106      466.408       51.201        0.012      348.294       27.881      857.244
09/24/2014  17:40:00     -339.569     -221.684      -23.436      228.134      148.252       86.879    52045.034    21978.676     7548.039       12.327        4.079      405.525      112.706        0.077      348.286       27.867      857.289
09/24/2014  17:41:00     -208.860     -256.294       -6.721      196.177      213.698       76.076    38485.447    45666.972     5787.632        9.963        4.497      330.619       76.799        0.054      348.301       27.891      857.269
09/24/2014  17:42:00     -238.460     -193.147        4.604      201.184      158.385       77.943    40474.879    25085.845     6075.108        8.290        3.582      306.870       90.453        0.087      348.279       27.854      857.289
09/24/2014  17:43:00     -276.661     -137.189       20.759      177.768      127.098       87.490    31601.379    16154.017     7654.520        7.559        2.770      308.808       79.074        0.066      348.263       27.826      857.309
09/24/2014  17:44:00     -194.968     -350.596       -1.269      157.085      124.936       81.713    24675.619    15608.883     6677.016       10.394        2.348      401.161       67.979        0.029      348.245       27.796      857.348
09/24/2014  17:45:00     -220.049     -195.961      -15.364      127.464      157.635       63.071    16247.174    24848.949     3977.918        6.606        2.254      294.657       73.963        0.063      348.236       27.781      857.359
09/24/2014  17:46:00     -270.586     -216.524      -20.989      140.524      124.729       68.475    19746.962    15557.270     4688.858        8.026        2.000      346.553       68.614        0.039      348.189       27.699      857.349
09/24/2014  17:47:00     -174.592     -199.729       13.724      172.392      129.755       64.534    29718.830    16836.347     4164.652        6.063        2.536      265.281       79.745        0.090      348.162       27.655      857.305
09/24/2014  17:48:00     -192.425     -138.452       10.662      142.081      110.760       58.072    20186.951    12267.866     3372.407        4.606        1.791      237.058       69.502        0.086      348.139       27.614      857.346
09/24/2014  17:49:00     -222.302     -214.099       -4.068      128.271      128.034       73.434    16453.480    16392.809     5392.523        6.675        1.912      308.637       71.808        0.054      348.136       27.608      857.363
09/24/2014  17:50:00     -329.551     -266.381      -13.377      180.453      180.154       80.425    32563.135    32455.373     6468.122       12.560        3.574      423.748       90.706        0.046      348.118       27.576      857.348
09/24/2014  17:51:00     -215.632     -112.459        9.761      146.543      154.771       74.691    21474.978    23953.931     5578.714        5.511        2.550      243.196       86.650        0.127      348.140       27.615      857.263
09/24/2014  17:52:00     -186.261     -268.487       -1.613      125.839      153.401       77.172    15835.479    23531.784     5955.452        7.604        2.266      326.769       67.208        0.042      348.117       27.576      857.276
09/24/2014  17:53:00     -185.350     -252.470      -11.905      125.528      128.531       59.624    15757.227    16520.336     3555.069        6.703        1.792      313.202       47.807        0.023      348.152       27.636      857.302
09/24/2014  17:54:00     -258.996     -358.728      -12.937      140.131      204.603       74.825    19636.830    41862.472     5598.827       13.150        3.355      442.453       77.886        0.031      348.123       27.587      857.335
09/24/2014  17:55:00     -218.273     -227.208        4.017      157.695      151.450       70.910    24867.563    22937.207     5028.296        7.605        2.642      315.066       77.119        0.060      348.121       27.581      857.353
09/24/2014  17:56:00     -109.943     -230.453        4.377      145.798      135.488       70.385    21257.177    18357.073     4954.079        5.488        2.228      255.335       66.167        0.067      348.120       27.581      857.419
09/24/2014  17:57:00     -177.157     -289.988       -8.992      132.136      105.105       56.443    17460.005    11046.971     3185.757        7.362        1.585      339.820       51.781        0.023      348.079       27.508      857.454
09/24/2014  17:58:00       47.442     -225.214      -13.788      149.917       82.988       57.727    22475.202     6886.982     3332.398        4.292        1.635      230.156       35.209        0.023      348.017       27.403      857.500
09/24/2014  17:59:00      -40.766      -94.412       -0.461      128.128      103.475       67.272    16416.698    10707.119     4525.534        2.111        1.582      102.838       52.781        0.263      348.074       27.501      857.351
09/24/2014  18:00:00     -129.719      -93.453       24.646      141.341       84.366       61.524    19977.267     7117.665     3785.260        2.852        1.544      159.877       57.004        0.127      348.031       27.429      857.418
09/24/2014  18:01:00     -152.670     -352.774      -14.420      140.834      165.235       75.472    19834.164    27302.591     5695.985       10.039        2.642      384.393       58.546        0.023      347.940       27.271      857.495
09/24/2014  18:02:00     -271.986     -221.269        3.707      122.291      142.109       70.979    14955.191    20194.882     5038.066        8.156        2.009      350.623       58.368        0.028      347.922       27.238      857.445
09/24/2014  18:03:00     -156.903     -213.861        0.328      115.793      111.930       57.644    13408.064    12528.298     3322.854        4.980        1.463      265.246       55.538        0.044      347.965       27.314      857.472
09/24/2014  18:04:00     -165.111     -217.836       -8.147      138.059      119.612       60.730    19060.175    14307.086     3688.136        5.591        1.853      273.339       48.035        0.031      347.960       27.306      857.495
09/24/2014  18:05:00      -69.217      -92.308        7.999       76.930       48.347       36.192     5918.242     2337.389     1309.873        1.147        0.478      115.377       30.241        0.069      348.015       27.404      857.516
09/24/2014  18:06:00     -190.997     -211.477      -17.963       94.320      107.510       44.960     8896.286    11558.461     2021.440        5.200        1.124      284.961       43.099        0.023      347.925       27.244      857.514
09/24/2014  18:07:00     -209.098     -206.060      -11.998      124.782      119.268       58.939    15570.625    14224.841     3473.827        5.979        1.663      293.568       51.893        0.031      347.892       27.188      857.508
09/24/2014  18:08:00     -202.296     -281.606      -10.514       98.707      131.559       63.360     9743.000    17307.898     4014.472        7.570        1.553      346.736       60.854        0.031      347.859       27.129      857.473
09/24/2014  18:09:00     -253.491     -159.716      -11.226      114.649      108.353       56.263    13144.376    11740.267     3165.474        5.897        1.403      299.612       51.938        0.030      347.858       27.126      857.488
09/24/2014  18:10:00     -151.640     -162.511      -10.218      108.761       91.602       55.499    11828.893     8390.979     3080.108        3.640        1.165      222.271       46.715        0.044      347.851       27.116      857.526
09/24/2014  18:11:00     -101.211     -184.009       -7.814      133.088      106.591       53.719    17712.498    11361.744     2885.727        3.806        1.598      210.007       62.444        0.088      347.822       27.067      857.541
09/24/2014  18:12:00     -190.576     -257.998       -9.016      130.745      136.902       61.761    17094.199    18742.043     3814.425        7.130        1.983      320.752       69.905        0.047      347.776       26.988      857.522
09/24/2014  18:13:00     -165.590     -304.981      -10.857       99.109      112.312       58.855     9822.554    12613.924     3463.964        7.322        1.295      347.035       44.335        0.016      347.766       26.971      857.524
09/24/2014  18:14:00     -160.967     -210.083        3.439      142.931      121.948       63.695    20429.144    14871.402     4057.006        5.470        1.968      264.661       64.468        0.059      347.799       27.028      857.525
09/24/2014  18:15:00        4.557     -187.725        0.570      120.996      112.199       67.758    14640.116    12588.592     4591.090        3.354        1.591      187.781       37.353        0.040      347.758       26.958      857.549
09/24/2014  18:16:00     -117.244     -134.999       12.631      112.644       72.707       55.322    12688.687     5286.300     3060.522        2.658        1.052      178.804       40.878        0.052      347.800       27.028      857.575
09/24/2014  18:17:00      -83.403     -189.692      -13.984       91.268       91.712       55.279     8329.913     8411.096     3055.768        3.146        0.990      207.218       20.755        0.010      347.805       27.036      857.591
09/24/2014  18:18:00     -154.365     -186.898       -0.079      112.457       93.219       54.793    12646.548     8689.808     3002.270        4.154        1.217      242.403       51.576        0.045      347.740       26.926      857.616
09/24/2014  18:19:00     -103.757     -110.194       24.265      141.042      104.397       67.189    19892.784    10898.667     4514.381        2.940        1.765      151.355       41.277        0.074      347.691       26.842      857.612
09/24/2014  18:20:00     -160.302      -81.309        8.713      102.326       63.354       53.842    10470.510     4013.680     2898.952        2.488        0.869      179.745       47.059        0.069      347.682       26.826      857.607
09/24/2014  18:21:00     -151.178     -170.341       -1.616       95.952       71.531       55.281     9206.798     5116.706     3055.969        3.462        0.869      227.752       46.651        0.042      347.666       26.797      857.599
09/24/2014  18:22:00     -167.494     -297.638      -14.285      102.076      123.795       54.869    10419.484    15325.211     3010.595        7.280        1.438      341.530       48.098        0.020      347.627       26.729      857.640
09/24/2014  18:23:00     -161.160     -167.133        6.746      129.174      128.239       61.604    16685.837    16445.150     3795.025        4.543        1.846      232.176       62.839        0.073      347.571       26.634      857.645
09/24/2014  18:24:00     -179.845     -168.133        1.573      151.773       89.520       53.751    23034.977     8013.882     2889.121        4.727        1.697      246.197       41.440        0.028      347.573       26.637      857.632
09/24/2014  18:25:00     -192.217     -145.733       -4.556      126.537      101.851       51.064    16011.513    10373.603     2607.482        4.359        1.450      241.216       38.255        0.025      347.552       26.599      857.621
09/24/2014  18:26:00     -220.500     -110.147        9.675      128.694      104.107       60.225    16562.122    10838.210     3626.991        4.593        1.551      246.480       50.581        0.042      347.536       26.572      857.642
09/24/2014  18:27:00     -204.449     -153.134      -19.393       91.546      113.481       51.987     8380.690    12878.040     2702.601        4.479        1.198      255.440       37.346        0.021      347.493       26.499      857.642
09/24/2014  18:28:00     -206.009     -213.076      -14.678       92.094      103.900       51.533     8481.325    10795.219     2655.652        5.499        1.097      296.381       48.529        0.027      347.456       26.433      857.636
09/24/2014  18:29:00     -264.373     -137.982        2.507      136.043      125.102       72.051    18507.730    15650.446     5191.320        6.414        1.967      298.215       78.193        0.069      347.445       26.415      857.614
09/24/2014  18:30:00     -245.098     -161.054       -2.632      141.061      105.576       70.212    19898.270    11146.313     4929.676        6.099        1.799      293.277       80.584        0.075      347.426       26.382      857.609
09/24/2014  18:31:00     -293.789     -127.269        3.536      172.131      139.709       67.612    29629.103    19518.475     4571.342        7.811        2.686      320.171       84.277        0.069      347.422       26.376      857.636
09/24/2014  18:32:00     -368.409     -174.504      -14.551      127.989      115.749       63.099    16381.061    13397.837     3981.522       10.007        1.688      407.648       46.951        0.013      347.434       26.397      857.641
09/24/2014  18:33:00     -224.151     -195.866       -8.669      146.697      130.506       69.245    21520.081    17031.895     4794.907        6.601        2.167      297.670       82.146        0.076      347.391       26.323      857.655
09/24/2014  18:34:00     -249.904     -164.018      -13.070      135.618       86.712       55.442    18392.120     7518.967     3073.790        5.925        1.449      298.921       53.936        0.033      347.361       26.272      857.661
09/24/2014  18:35:00     -208.572      -99.526      -12.323       83.248       86.674       42.386     6930.253     7512.453     1796.611        3.490        0.812      231.101       39.526        0.029      347.355       26.262      857.641
09/24/2014  18:36:00     -145.719      -37.285       10.157      106.553       89.534       52.551    11353.450     8016.364     2761.614        2.243        1.107      150.413       61.192        0.166      347.303       26.173      857.582
09/24/2014  18:37:00     -240.258      -84.873      -14.692      102.135       74.327       53.771    10431.503     5524.490     2891.268        4.199        0.942      254.808       41.648        0.027      347.317       26.196      857.583
09/24/2014  18:38:00     -218.106     -116.977      -16.427      132.913       75.836       40.956    17665.868     5751.036     1677.429        4.330        1.255      247.495       42.386        0.029      347.325       26.211      857.604
09/24/2014  18:39:00      -90.193      -66.328       38.392      112.031       81.194       51.183    12550.849     6592.425     2619.737        1.788        1.088      111.956       46.740        0.174      347.198       25.993      857.632
09/24/2014  18:40:00     -113.811     -185.318       -0.843       63.653       86.021       43.141     4051.762     7399.568     1861.106        3.030        0.666      217.476       39.957        0.034      347.277       26.126      857.667
09/24/2014  18:41:00     -131.436     -248.965      -13.081       69.995       97.563       38.695     4899.343     9518.629     1497.305        4.767        0.796      281.529       30.733        0.012      347.257       26.091      857.673
09/24/2014  18:42:00      -98.621      -86.389       -3.145       75.133       86.392       35.550     5644.922     7463.508     1263.778        1.578        0.719      131.108       29.156        0.049      347.221       26.032      857.669
09/24/2014  18:43:00      -88.435     -105.458        2.507       67.519       76.670       32.558     4558.825     5878.311     1060.011        1.522        0.575      137.630       27.713        0.041      347.212       26.016      857.673
09/24/2014  18:44:00     -142.072     -143.664       -9.568       69.398       72.702       37.559     4816.020     5285.648     1410.657        2.621        0.576      202.049       31.404        0.024      347.168       25.939      857.676
09/24/2014  18:45:00     -136.277      -69.108        3.360       86.254       76.242       42.765     7439.747     5812.806     1828.813        1.922        0.754      152.799       43.164        0.080      347.097       25.817      857.687
09/24/2014  18:46:00     -159.224     -137.100        1.224       95.475       77.065       47.268     9115.537     5938.940     2234.310        3.072        0.864      210.116       41.427        0.039      347.109       25.838      857.686
09/24/2014  18:47:00      -61.676      -43.118       21.108       75.629       53.191       37.785     5719.745     2829.293     1427.714        0.804        0.499       75.254       44.784        0.354      347.025       25.695      857.688
09/24/2014  18:48:00     -105.964     -198.439       -8.000       63.866       72.247       34.823     4078.927     5219.634     1212.641        3.059        0.526      224.958       28.642        0.016      347.081       25.790      857.694
09/24/2014  18:49:00      -97.444      -65.592        5.486       61.743       44.531       29.718     3812.148     1983.022      883.174        1.025        0.334      117.464       28.920        0.061      346.983       25.623      857.669
09/24/2014  18:50:00     -172.965      -65.818        1.590       52.643       52.778       28.902     2771.269     2785.523      835.335        2.032        0.320      185.064       27.227        0.022      347.007       25.663      857.639
09/24/2014  18:51:00     -150.918     -116.514        3.622       80.295       60.125       41.060     6447.285     3615.036     1685.942        2.405        0.587      190.661       43.677        0.052      346.966       25.591      857.656
09/24/2014  18:52:00     -209.951      -94.585      -15.682       62.156       46.023       28.830     3863.410     2118.125      831.189        3.004        0.341      230.273       13.940        0.004      346.996       25.640      857.651
09/24/2014  18:53:00     -125.161     -101.595       -0.635       63.201       41.724       33.431     3994.342     1740.877     1117.599        1.642        0.343      161.204       25.054        0.024      346.955       25.573      857.657
09/24/2014  18:54:00      -69.258      -36.450        6.469       68.370       41.160       22.756     4674.448     1694.133      517.843        0.653        0.344       78.264       29.655        0.144      346.891       25.464      857.663
09/24/2014  18:55:00     -120.888      -73.264        6.335       73.453       53.580       36.650     5395.355     2870.776     1343.188        1.481        0.480      141.356       32.550        0.053      346.917       25.508      857.661
09/24/2014  18:56:00      -78.994      -96.134        6.089       67.778       47.475       41.231     4593.793     2253.849     1700.035        1.203        0.427      124.426       36.414        0.086      346.920       25.513      857.685
09/24/2014  18:57:00     -124.137     -119.909       -4.715       83.338       54.267       29.685     6945.273     2944.899      881.210        2.029        0.539      172.593       32.070        0.035      346.907       25.490      857.739
09/24/2014  18:58:00     -145.436      -58.698        1.612       97.768       59.988       32.790     9558.589     3598.562     1075.198        1.941        0.712      156.835       38.155        0.059      346.820       25.340      857.727
09/24/2014  18:59:00     -155.441     -118.080        0.410       72.972       56.587       38.236     5324.894     3202.087     1461.989        2.405        0.499      195.205       36.886        0.036      346.835       25.366      857.738
09/24/2014  19:00:00     -185.553     -141.017       -5.960       85.155       75.908       42.628     7251.397     5762.059     1817.153        3.459        0.742      233.058       37.205        0.025      346.876       25.436      857.740
09/24/2014  19:01:00     -149.593     -143.633        2.256      119.561       97.698       57.960    14294.891     9544.966     3359.363        3.510        1.360      207.385       76.416        0.136      346.851       25.392      857.745
09/24/2014  19:02:00     -229.758     -153.194       -5.004      110.615       72.497       56.939    12235.778     5255.881     3241.996        4.850        1.037      276.147       48.816        0.031      346.895       25.467      857.747
09/24/2014  19:03:00     -157.337     -108.926        0.628       97.775       69.742       48.025     9559.979     4864.003     2306.420        2.667        0.837      191.363       48.166        0.063      346.783       25.275      857.733
09/24/2014  19:04:00     -208.885     -116.535       -7.061       95.134       73.650       37.306     9050.405     5424.336     1391.718        3.656        0.793      239.193       37.102        0.024      346.767       25.249      857.759
09/24/2014  19:05:00     -239.172     -100.971      -13.567      117.576       54.195       38.180    13824.021     2937.137     1457.686        4.290        0.911      259.612       37.267        0.021      346.732       25.187      857.775
09/24/2014  19:06:00     -122.420      -82.442        4.403       73.042       79.427       40.010     5335.106     6308.602     1600.790        1.752        0.662      147.592       45.578        0.095      346.675       25.093      857.760
09/24/2014  19:07:00      -60.206     -111.928        2.763       81.900       52.719       38.276     6707.663     2779.338     1465.035        1.355        0.548      127.093       35.867        0.080      346.672       25.087      857.769
09/24/2014  19:08:00     -129.885      -93.858       -3.721       61.371       89.475       37.634     3766.415     8005.701     1416.322        1.944        0.659      160.248       40.980        0.065      346.608       24.976      857.777
09/24/2014  19:09:00     -210.497     -107.586       -4.273      130.277       67.991       55.253    16971.991     4622.711     3052.862        4.027        1.232      236.397       67.323        0.081      346.718       25.165      857.772
09/24/2014  19:10:00     -200.081      -44.387       -8.934      117.308       57.090       46.453    13761.213     3259.249     2157.839        3.063        0.959      204.945       59.372        0.084      346.683       25.104      857.731
09/24/2014  19:11:00     -110.612      -78.802        0.468       73.588       55.880       35.212     5415.143     3122.530     1239.915        1.411        0.489      135.812       31.837        0.055      346.588       24.943      857.750
09/24/2014  19:12:00     -201.142      -78.798        8.319      179.894      124.838       66.332    32362.017    15584.540     4399.999        4.953        2.617      216.026       77.431        0.128      346.693       25.122      857.713
09/24/2014  19:13:00     -314.908      -76.567      -13.249       70.696       87.201       49.336     4997.861     7604.034     2434.044        6.012        0.752      324.083       39.819        0.015      346.709       25.146      857.635
09/24/2014  19:14:00     -277.652      -51.442        8.126      140.666       91.912       61.523    19787.041     8447.750     3785.085        5.591        1.601      282.377       67.504        0.057      346.601       24.963      857.619
09/24/2014  19:15:00     -255.899      -38.707       -4.945      115.415       88.721       56.499    13320.692     7871.369     3192.151        4.569        1.219      258.810       53.375        0.043      346.510       24.805      857.659
09/24/2014  19:16:00     -264.764      -79.331       -0.599      119.339       89.905       55.705    14241.845     8082.839     3103.006        5.091        1.271      276.393       53.546        0.038      346.502       24.791      857.618
09/24/2014  19:17:00     -196.547     -118.934        2.208      108.226       88.800       60.449    11712.875     7885.352     3654.035        3.801        1.163      229.730       55.040        0.057      346.514       24.813      857.647
09/24/2014  19:18:00     -150.020     -160.065       -4.415       81.075      104.812       49.992     6573.138    10985.620     2499.152        3.410        1.003      219.378       53.594        0.060      346.618       24.993      857.706
09/24/2014  19:19:00     -299.011     -130.039       -8.602      137.266       92.669       48.556    18842.065     8587.621     2357.680        6.808        1.489      326.065       59.804        0.034      346.773       25.258      857.710
09/24/2014  19:20:00     -270.739      -73.715       -5.578       93.238       84.380       57.935     8693.299     7120.028     3356.483        4.896        0.958      280.595       57.817        0.042      346.779       25.267      857.684
09/24/2014  19:21:00     -297.708      -49.035      -13.651      124.578      107.193       50.608    15519.802    11490.438     2561.176        6.039        1.479      301.719       52.225        0.030      346.678       25.096      857.671
09/24/2014  19:22:00     -372.628     -195.433      -14.240      177.028      155.067       66.847    31338.895    24045.830     4468.542       11.854        2.993      420.768       77.892        0.034      346.685       25.105      857.635
09/24/2014  19:23:00     -322.818     -144.092      -19.217      107.374      122.321       65.450    11529.102    14962.524     4283.660        7.805        1.539      353.516       57.265        0.026      346.740       25.201      857.687
09/24/2014  19:24:00     -181.009      -48.740        8.415       89.649       85.675       51.485     8036.857     7340.267     2650.683        2.662        0.901      187.456       52.625        0.079      346.644       25.037      857.701
09/24/2014  19:25:00     -244.557      -71.679        8.124      109.585       85.538       55.137    12008.775     7316.823     3040.082        4.369        1.118      254.845       52.982        0.043      346.508       24.802      857.714
09/24/2014  19:26:00     -431.534     -174.868      -27.046      142.536      134.891       70.558    20316.490    18195.528     4978.485       13.050        2.175      465.619       72.018        0.024      346.808       25.317      857.739
09/24/2014  19:27:00     -344.422      -77.080       -7.530      148.388      107.930       74.041    22018.994    11648.786     5482.106        8.188        1.957      352.941       71.749        0.041      346.844       25.379      857.732
09/24/2014  19:28:00     -203.121     -132.421        4.416      130.444       85.955       44.692    17015.626     7388.260     1997.386        4.260        1.320      242.474       55.548        0.052      346.964       25.587      857.684
09/24/2014  19:29:00     -240.579      -62.139       -1.362       89.323       63.824       48.161     7978.654     4073.477     2319.477        3.805        0.719      248.474       51.085        0.042      346.680       25.099      857.712
09/24/2014  19:30:00     -267.352      -56.267       -7.497       97.249       74.969       44.053     9457.317     5620.279     1940.694        4.586        0.851      273.209       43.934        0.026      346.445       24.694      857.733
09/24/2014  19:31:00     -205.240      -60.441       -8.858       86.560       63.674       40.157     7492.573     4054.432     1612.614        2.951        0.658      213.954       44.547        0.043      346.409       24.632      857.770
09/24/2014  19:32:00     -176.100      -75.158      -15.034       90.076       82.875       40.978     8113.696     6868.242     1679.170        2.677        0.833      191.468       42.202        0.049      346.498       24.786      857.784
09/24/2014  19:33:00     -284.240      -62.480       -7.304      121.932      103.233       55.526    14867.428    10656.989     3083.121        5.667        1.430      291.026       51.716        0.032      346.507       24.801      857.700
09/24/2014  19:34:00     -355.708     -103.791      -11.442      156.246      126.740       74.849    24412.871    16062.997     5602.441        9.175        2.304      370.542       78.973        0.045      346.701       25.132      857.683
09/24/2014  19:35:00     -227.902      -72.048        1.194      121.098       88.982       44.581    14664.790     7917.751     1987.500        4.085        1.229      239.019       38.617        0.026      346.679       25.097      857.736
09/24/2014  19:36:00     -180.232     -101.179        6.339       96.277       73.905       38.847     9269.311     5461.904     1509.084        2.950        0.812      206.690       37.360        0.033      346.624       25.001      857.763
09/24/2014  19:37:00     -141.594     -106.569        4.311      114.195       73.481       52.006    13040.425     5399.432     2704.672        2.628        1.057      177.217       55.516        0.098      346.568       24.907      857.759
09/24/2014  19:38:00     -246.095     -101.956       -6.431      114.934       92.255       40.306    13209.741     8511.036     1624.590        4.717        1.167      266.379       40.489        0.023      346.503       24.794      857.747
09/24/2014  19:39:00     -306.505      -40.949      -15.029      108.625       87.250       59.855    11799.335     7612.528     3582.629        5.942        1.150      309.228       61.336        0.039      346.424       24.657      857.735
09/24/2014  19:40:00     -192.678      -92.882        1.927      109.640       75.202       58.330    12020.999     5655.312     3402.386        3.341        1.054      213.897       51.258        0.057      346.300       24.446      857.780
09/24/2014  19:41:00     -179.687      -91.788       -8.228       80.198       74.765       41.914     6431.752     5589.798     1756.761        2.728        0.689      201.773       45.855        0.052      346.296       24.439      857.804
09/24/2014  19:42:00     -189.531       -8.987       -4.386      182.794       82.252       68.562    33413.737     6765.420     4700.742        4.044        2.244      189.744       72.013        0.144      346.224       24.317      857.691
09/24/2014  19:43:00     -301.931      -93.485       -7.180      255.478      126.337       83.540    65268.849    15960.993     6978.928        9.407        4.410      316.072      117.168        0.137      346.102       24.104      857.673
09/24/2014  19:44:00       33.492     -230.148      -21.686       94.962       85.032       47.678     9017.729     7230.487     2273.206        3.654        0.926      232.572       33.383        0.021      346.275       24.400      857.921
09/24/2014  19:45:00        6.752      -40.841       -0.479       56.907       37.080       42.600     3238.402     1374.952     1814.795        0.407        0.321       41.395       19.224        0.216      346.228       24.325      857.930
09/24/2014  19:46:00      -47.772      -72.232       37.252       74.472      119.247       61.199     5546.014    14219.729     3745.343        1.620        1.176       86.600       62.239        0.517      346.287       24.425      857.949
09/24/2014  19:47:00     -135.725       -8.466       20.509      106.760       80.751       68.017    11397.744     6520.661     4626.365        2.073        1.127      135.989       73.407        0.291      346.327       24.492      857.813
09/24/2014  19:48:00     -198.385     -120.250       -5.243       88.073       54.842       37.495     7756.834     3007.636     1405.882        3.301        0.609      231.984       40.577        0.031      346.316       24.471      857.831
09/24/2014  19:49:00     -141.947      -96.150       -2.088       81.479       57.377       38.056     6638.844     3292.112     1448.285        2.039        0.569      171.447       34.060        0.039      346.258       24.374      857.891
09/24/2014  19:50:00     -109.658     -149.432       12.588       95.233       75.066       53.905     9069.278     5634.973     2905.747        2.606        0.880      185.351       43.280        0.055      346.188       24.253      857.974
09/24/2014  19:51:00      -79.140     -130.767      -25.523       71.977       63.988       39.545     5180.719     4094.499     1563.827        1.743        0.542      152.850       25.565        0.028      346.158       24.203      857.977
09/24/2014  19:52:00     -194.446      -37.260       -6.062       84.893      103.580       40.253     7206.837    10728.791     1620.337        2.939        0.978      197.984       40.964        0.043      346.067       24.044      857.885
09/24/2014  19:53:00     -234.423      -59.395        1.560      128.285      101.932       49.688    16456.924    10390.207     2468.931        4.390        1.466      241.830       63.847        0.070      346.012       23.951      857.907
09/24/2014  19:54:00     -105.071     -190.975       -9.053      110.155      114.690       54.385    12134.043    13153.713     2957.720        3.791        1.412      217.971       65.378        0.090      345.987       23.907      858.093
09/24/2014  19:55:00       61.930     -148.471       -7.480       70.199       67.936       47.445     4927.883     4615.288     2251.011        1.886        0.590      160.869       44.865        0.078      345.878       23.721      858.111
09/24/2014  19:56:00     -199.450      -59.043      -24.783      150.373       67.757       40.863    22612.009     4590.948     1669.800        3.637        1.444      208.006       62.000        0.089      345.912       23.779      857.996
09/24/2014  19:57:00     -246.835     -113.998        9.960      101.810       81.992       46.620    10365.332     6722.643     2173.404        4.664        0.963      271.888       47.357        0.030      345.843       23.661      857.934
09/24/2014  19:58:00      -62.880     -120.302      -11.325      115.436       81.427       50.371    13325.547     6630.361     2537.248        2.052        1.125      135.744       17.869        0.017      346.254       24.366      858.047
09/24/2014  19:59:00       54.226      -73.897       -2.452      121.107      118.692       77.969    14666.824    14087.762     6079.109        2.161        1.742       91.659       81.616        0.793      345.953       23.850      858.083
09/24/2014  20:00:00       65.436      -87.436      -13.276       75.789       72.653       52.861     5744.021     5278.493     2794.260        1.296        0.691      109.210       44.548        0.166      345.954       23.853      858.065
09/24/2014  20:01:00       23.312      -32.463       30.605       33.112       58.435       31.613     1096.417     3414.697      999.400        0.402        0.276       39.966       36.240        0.822      345.926       23.806      858.061
09/24/2014  20:02:00       56.463      -75.911        9.753       66.283       91.013       41.602     4393.431     8283.435     1730.726        1.172        0.720       94.607       46.607        0.243      345.908       23.774      858.120
09/24/2014  20:03:00       -6.716      -90.929       32.203       57.624       90.881       56.933     3320.519     8259.437     3241.374        1.208        0.741       91.177       50.919        0.312      345.918       23.792      858.158
09/24/2014  20:04:00     -242.863     -116.559      -26.685      153.724       73.041       43.085    23631.020     5334.983     1856.302        5.205        1.541      269.386       47.600        0.031      346.106       24.112      858.187
09/24/2014  20:05:00     -266.474      -13.858      -34.796       92.348       94.927       42.608     8528.243     9011.104     1815.472        4.588        0.968      266.834       35.895        0.018      346.366       24.559      858.159
09/24/2014  20:06:00     -170.783     -109.590       15.630      125.886       88.721       45.383    15847.300     7871.483     2059.621        3.360        1.289      202.921       47.141        0.054      346.082       24.071      858.154
09/24/2014  20:07:00     -140.516       85.466      -23.795      231.191      127.139       53.104    53449.326    16164.255     2819.982        5.001        3.622      164.467       60.667        0.136      346.190       24.256      858.047
09/24/2014  20:08:00     -376.482       73.344      -26.015      118.359      102.429       52.010    14008.788    10491.698     2704.989        8.750        1.360      383.560       47.144        0.015      346.368       24.562      857.953
09/24/2014  20:09:00     -385.745      -79.988      -36.000      165.868       98.741       59.995    27512.341     9749.706     3599.442        9.867        2.043      393.951       77.893        0.039      346.265       24.383      857.926
09/24/2014  20:10:00     -268.106      -83.054       -3.272      154.477      131.814       72.315    23863.271    17374.840     5229.525        6.262        2.323      280.676       74.497        0.070      345.976       23.888      858.062
09/24/2014  20:11:00     -474.639      -46.080      -20.731      187.440      148.442       90.209    35133.849    22035.174     8137.694       14.656        3.265      476.870       98.769        0.043      345.837       23.648      858.055
09/24/2014  20:12:00     -408.899     -133.405      -17.133      219.458      213.332       84.921    48161.958    45510.372     7211.600       14.307        5.044      430.111      103.974        0.058      345.829       23.636      857.979
09/24/2014  20:13:00     -427.192      -83.175       -3.222      228.663      162.141       82.171    52286.796    26289.630     6752.117       13.736        4.266      435.214       90.672        0.043      345.999       23.927      858.048
09/24/2014  20:14:00     -319.376      -95.535      -25.527      173.964      122.289       77.483    30263.615    14954.703     6003.614        8.149        2.561      333.359       75.869        0.052      345.909       23.774      858.091
09/24/2014  20:15:00     -363.292      -81.710      -24.284      147.470       95.359       66.393    21747.521     9093.369     4408.089        8.724        1.762      372.367       77.901        0.044      345.900       23.758      858.135
09/24/2014  20:16:00      -83.204     -124.616        2.768       61.273       50.845       35.546     3754.360     2585.241     1263.505        1.503        0.380      149.840       26.135        0.030      345.844       23.664      858.189
09/24/2014  20:17:00     -189.899      -74.622        0.165      139.176      103.005       47.424    19369.864    10610.016     2249.021        3.692        1.611      204.035       54.963        0.073      345.828       23.634      858.167
09/24/2014  20:18:00     -413.134      -94.302      -16.520      161.934      128.420       71.224    26222.624    16491.649     5072.882       11.381        2.389      423.760       76.472        0.033      345.757       23.512      858.120
09/24/2014  20:19:00     -322.522      -72.596      -11.378      200.868      118.188       70.996    40348.044    13968.422     5040.470        8.438        2.968      330.591       86.673        0.069      345.732       23.468      858.089
09/24/2014  20:20:00     -167.635      -69.901      -14.651      136.267      102.213       51.247    18568.642    10447.465     2626.292        3.242        1.582      181.625       41.619        0.053      345.790       23.569      858.220
09/24/2014  20:21:00      -40.004     -147.427       -2.723       48.312       98.628       30.109     2334.039     9727.531      906.530        1.815        0.648      152.758       32.718        0.046      345.726       23.462      858.308
09/24/2014  20:22:00     -103.219     -125.714       -5.441       73.997       75.583       36.300     5475.505     5712.777     1317.724        1.949        0.625      162.660       36.708        0.051      345.726       23.462      858.344
09/24/2014  20:23:00     -122.618      -92.429      -12.376       57.934       40.237       22.445     3356.306     1619.012      503.789        1.460        0.274      153.552       19.862        0.017      345.706       23.428      858.263
09/24/2014  20:24:00     -249.091     -145.936       -9.060       75.983       52.292       41.848     5773.441     2734.459     1751.272        4.684        0.513      288.693       27.662        0.009      345.629       23.291      858.196
09/24/2014  20:25:00     -224.320      -77.668        2.902      123.982       96.920       62.766    15371.540     9393.435     3939.562        4.253        1.435      237.385       58.457        0.061      345.511       23.091      858.149
09/24/2014  20:26:00     -266.813      -51.166        3.227      164.129      113.258       60.010    26938.406    12827.472     3601.154        5.858        2.168      271.674       67.342        0.061      345.562       23.178      858.156
09/24/2014  20:27:00     -192.128      -23.245       -0.042      119.426       91.781       48.930    14262.679     8423.816     2394.143        3.126        1.254      193.529       52.760        0.074      345.520       23.105      858.155
09/24/2014  20:28:00     -109.050     -155.707        7.767       97.984       82.711       47.060     9600.894     6841.062     2214.629        2.742        0.933      190.096       43.230        0.052      345.537       23.135      858.142
09/24/2014  20:29:00     -139.557     -216.817       -4.713       97.550       99.148       59.546     9516.045     9830.276     3545.774        4.470        1.145      257.848       50.618        0.039      345.564       23.180      858.116
09/24/2014  20:30:00       -8.486      -31.885       28.991       99.612       68.605       47.092     9922.478     4706.642     2217.692        0.939        0.842       32.995       43.569        1.744      345.470       23.022      858.172
09/24/2014  20:31:00     -127.709     -227.045       -7.869       68.642      112.013       53.150     4711.772    12546.945     2824.956        4.400        1.004      260.498       38.884        0.022      345.556       23.166      858.272
09/24/2014  20:32:00      -98.008     -168.433       -5.275       59.185       41.211       32.052     3502.813     1698.352     1027.312        2.211        0.311      194.872       25.996        0.018      345.529       23.121      858.302
09/24/2014  20:33:00       12.660     -131.983       -3.066       62.630       74.121       45.592     3922.527     5493.951     2078.657        1.454        0.575      132.589       41.340        0.097      345.423       22.941      858.311
09/24/2014  20:34:00       -1.340      -29.601       12.801       92.724       47.519       48.199     8597.765     2258.053     2323.165        0.711        0.659       29.631       45.691        2.378      345.408       22.915      858.262
09/24/2014  20:35:00     -119.370       28.978      -19.697       93.857       37.954       23.467     8809.186     1440.492      550.716        1.314        0.540      122.837       17.854        0.021      345.392       22.888      858.230
09/24/2014  20:36:00     -154.431       22.372      -10.377       89.872       62.230       38.976     8076.894     3872.544     1519.138        1.896        0.673      156.043       38.786        0.062      345.273       22.683      858.227
09/24/2014  20:37:00      -12.277      -69.838       -5.032       78.803       62.313       25.439     6209.918     3882.884      647.128        0.789        0.537       70.909       19.085        0.072      345.331       22.785      858.279
09/24/2014  20:38:00      -13.133     -124.476        6.099       39.157       49.172       40.044     1533.232     2417.926     1603.528        1.063        0.278      125.167       21.200        0.029      345.407       22.913      858.357
09/24/2014  20:39:00       20.392      -86.991        9.656       42.828       70.608       31.742     1834.228     4985.463     1007.559        0.795        0.391       89.349       28.256        0.100      345.282       22.700      858.330
09/24/2014  20:40:00      -33.438      -63.127       18.614       51.367       73.164       31.687     2638.530     5352.963     1004.066        0.722        0.450       71.436       21.558        0.091      345.359       22.833      858.312
09/24/2014  20:41:00       72.665      -78.026       -2.736       88.454       81.219       52.331     7824.028     6596.459     2738.553        1.426        0.858      106.622       60.888        0.326      345.214       22.583      858.325
09/24/2014  20:42:00       35.258     -132.650       -4.851       62.401       81.950       53.655     3893.918     6715.772     2878.909        1.617        0.674      137.256       36.229        0.070      345.153       22.481      858.384
09/24/2014  20:43:00       69.618     -123.547      -19.041       49.939       47.456       38.393     2493.952     2252.049     1474.049        1.335        0.311      141.811       17.048        0.014      345.217       22.589      858.444
09/24/2014  20:44:00       45.590      -96.392       -4.233       58.339       53.210       38.968     3403.425     2831.277     1518.528        0.957        0.388      106.630       24.708        0.054      345.165       22.501      858.476
09/24/2014  20:45:00       73.564     -125.870        8.506       82.704      101.546       48.831     6839.965    10311.491     2384.469        2.043        0.977      145.790       52.947        0.132      345.073       22.343      858.494
09/24/2014  20:46:00        0.213       -2.560       11.608       70.367       42.377       26.116     4951.468     1795.830      682.050        0.378        0.371        2.568       28.565      123.686      345.057       22.318      858.440
09/24/2014  20:47:00      -97.633       68.340       -7.931       47.454       32.560       25.092     2251.868     1060.162      629.584        0.910        0.197      119.174       22.692        0.036      345.067       22.334      858.340
09/24/2014  20:48:00      -14.408       34.701        3.882       26.111       34.277       16.463      681.798     1174.914      271.025        0.178        0.106       37.574       19.080        0.258      344.920       22.081      858.280
09/24/2014  20:49:00       32.227      -84.281      -14.852       29.073       51.008       16.413      845.243     2601.852      269.386        0.604        0.186       90.232       23.698        0.069      344.998       22.217      858.367
09/24/2014  20:50:00       55.963     -103.533      -31.165       86.424       78.754       45.947     7469.149     6202.183     2111.101        1.530        0.789      117.690       39.132        0.111      345.000       22.218      858.432
09/24/2014  20:51:00       71.140      -85.641        6.062       73.847       67.279       52.867     5453.417     4526.430     2794.932        1.260        0.639      111.334       48.401        0.189      344.909       22.062      858.480
09/24/2014  20:52:00       29.105        9.754       83.915       55.074       91.808       58.478     3033.126     8428.645     3419.717        1.143        0.744       30.695       61.213        3.977      344.982       22.187      858.426
09/24/2014  20:53:00       43.215      -30.742       20.858       45.318       63.974       38.116     2053.757     4092.671     1452.859        0.542        0.380       53.034       42.298        0.636      345.031       22.272      858.343
09/24/2014  20:54:00       33.490      -74.116        0.083       44.112       36.636       27.656     1945.828     1342.170      764.859        0.533        0.203       81.331       12.758        0.025      345.029       22.268      858.391
09/24/2014  20:55:00      -27.754      -23.077        2.943       38.428       30.501       20.278     1476.691      930.306      411.185        0.206        0.141       36.095       18.623        0.266      344.998       22.215      858.387
09/24/2014  20:56:00      -49.505      -82.261       -1.634       30.897       57.479       20.297      954.601     3303.807      411.957        0.694        0.234       96.008       20.177        0.044      345.009       22.234      858.393
09/24/2014  20:57:00      -66.247      -93.065        1.658       49.349       35.707       24.301     2435.284     1274.998      590.518        0.868        0.215      114.236       24.223        0.045      345.076       22.349      858.438
09/24/2014  20:58:00      -20.084      -16.624        5.539       35.414       32.885       22.219     1254.147     1081.428      493.693        0.177        0.141       26.072       20.811        0.637      344.996       22.212      858.446
09/24/2014  20:59:00       38.537       28.814       17.343       34.693       21.381       19.867     1203.614      457.152      394.691        0.234        0.103       48.118        7.780        0.026      344.976       22.179      858.381
09/24/2014  21:00:00       18.182      -95.303      -12.135       51.359       39.620       31.150     2637.731     1569.715      970.325        0.737        0.259       97.022       20.813        0.046      345.027       22.265      858.438
09/24/2014  21:01:00        2.705     -100.117       -9.695       42.156       45.026       35.570     1777.165     2027.357     1265.229        0.760        0.253      100.154       25.080        0.063      344.969       22.166      858.481
09/24/2014  21:02:00      123.131     -151.480      -20.841       64.256       67.941       51.853     4128.800     4616.041     2688.695        2.499        0.572      195.211       35.586        0.033      344.918       22.074      858.504
09/24/2014  21:03:00       75.577      -70.155       13.778       70.232       77.434       50.969     4932.580     5996.072     2597.835        1.217        0.676      103.120       60.556        0.345      344.910       22.064      858.519
09/24/2014  21:04:00       50.400       -0.959       30.272       51.540       52.487       32.767     2656.387     2754.904     1073.685        0.497        0.324       50.409       31.035        0.379      345.012       22.240      858.468
09/24/2014  21:05:00       52.510      -46.087        7.217       44.056       47.642       17.360     1940.911     2269.773      301.380        0.472        0.226       69.866       15.080        0.047      345.040       22.287      858.441
09/24/2014  21:06:00     -240.336     -131.474        2.605      129.702      107.357       57.501    16822.516    11525.523     3306.309        5.335        1.583      273.946       61.255        0.050      345.288       22.708      858.431
09/24/2014  21:07:00     -145.355     -131.923        5.162       88.838       78.166       53.034     7892.221     6109.994     2812.553        2.768        0.841      196.295       52.300        0.071      345.554       23.166      858.406
09/24/2014  21:08:00      -49.998     -107.470        4.846       75.034       66.705       44.752     5630.093     4449.492     2002.732        1.308        0.604      118.531       46.425        0.153      345.446       22.981      858.418
09/24/2014  21:09:00     -141.932     -157.191      -12.317      133.705       94.245       51.175    17877.063     8882.193     2618.909        3.719        1.469      211.787       60.761        0.082      345.377       22.863      858.428
09/24/2014  21:10:00     -164.747     -157.394       -5.111      141.606      113.586       56.758    20052.223    12901.827     3221.446        4.405        1.809      227.847       71.020        0.097      345.374       22.856      858.379
09/24/2014  21:11:00     -107.981      -16.915       -4.766       76.633       63.621       38.469     5872.658     4047.588     1479.902        1.168        0.570      109.298       31.307        0.082      345.234       22.619      858.360
09/24/2014  21:12:00      -72.744      -62.465       -1.635       52.809       42.390       23.503     2788.759     1796.941      552.393        0.717        0.257       95.883       22.566        0.055      345.193       22.548      858.414
09/24/2014  21:13:00      -99.895      -73.495        2.266       38.466       31.827       20.922     1479.643     1012.938      437.726        0.916        0.147      124.018       18.131        0.021      345.208       22.574      858.452
09/24/2014  21:14:00      -23.014     -116.623       -4.297       32.976       60.021       18.863     1087.409     3602.571      355.819        0.960        0.252      118.872       17.763        0.022      345.158       22.488      858.487
09/24/2014  21:15:00      -41.271     -171.474      -18.788       45.042       50.858       31.956     2028.788     2586.564     1021.199        1.855        0.282      176.371       18.675        0.011      345.059       22.318      858.522
09/24/2014  21:16:00       -8.983     -114.563      -22.621       50.201       50.295       29.048     2520.189     2529.604      843.788        0.980        0.295      114.915       20.678        0.032      344.919       22.080      858.533
09/24/2014  21:17:00     -100.503     -116.481       -7.994       67.389       57.656       37.712     4541.323     3324.226     1422.206        1.651        0.464      153.846       22.869        0.022      344.925       22.088      858.583
09/24/2014  21:18:00      -45.343      -26.236       32.564       82.631       57.670       36.783     6827.853     3325.825     1353.017        0.765        0.575       52.386       38.195        0.532      344.695       21.695      858.584
09/24/2014  21:19:00       -0.420       12.240       20.004       26.569       18.917       20.727      705.907      357.861      429.625        0.102        0.075       12.247       10.236        0.699      344.700       21.704      858.519
09/24/2014  21:20:00       53.737      -79.164      -11.706       50.340       58.399       21.472     2534.067     3410.431      461.064        0.785        0.320       95.680       26.245        0.075      344.791       21.861      858.524
09/24/2014  21:21:00       38.501      -31.615        3.106       47.830       56.044       45.421     2287.716     3140.942     2063.035        0.499        0.375       49.818       36.673        0.542      344.726       21.748      858.488
09/24/2014  21:22:00        3.388      -68.330       31.339       50.222       85.708       47.320     2522.244     7345.813     2239.186        0.888        0.605       68.414       30.360        0.197      344.695       21.696      858.423
09/24/2014  21:23:00      -48.715     -108.136      -15.489       60.756       49.346       30.657     3691.288     2434.993      939.833        1.069        0.353      118.602        8.635        0.005      344.926       22.090      858.469
09/24/2014  21:24:00      -33.100       13.013        5.358       63.565       31.682       23.114     4040.562     1003.724      534.265        0.344        0.279       35.566       28.393        0.637      344.681       21.670      858.493
09/24/2014  21:25:00      -91.459      -61.105        7.160       62.702       44.900       33.175     3931.481     2016.015     1100.585        0.960        0.352      109.994       22.444        0.042      344.616       21.563      858.503
09/24/2014  21:26:00      -71.673      -50.426        0.736       29.283       27.452       20.223      857.510      753.634      408.953        0.485        0.101       87.635       14.313        0.027      344.653       21.625      858.510
09/24/2014  21:27:00      -47.352      -94.423        1.352       53.488       49.031       27.817     2861.005     2403.993      773.808        0.860        0.302      105.631       26.704        0.064      344.703       21.710      858.512
09/24/2014  21:28:00      -97.516     -138.071       -2.324       49.116       49.795       33.441     2412.336     2479.517     1118.328        1.729        0.301      169.035       27.815        0.027      344.677       21.666      858.525
09/24/2014  21:29:00      -44.153     -119.622       -8.054       86.184       69.318       40.487     7427.704     4804.966     1639.218        1.510        0.694      127.510       32.650        0.066      344.609       21.548      858.531
09/24/2014  21:30:00       75.306     -146.707      -25.037       73.989       79.111       52.401     5474.342     6258.511     2745.877        2.115        0.724      164.906       41.811        0.064      344.584       21.505      858.564
09/24/2014  21:31:00       20.702     -202.478      -23.255      107.830       57.599       44.290    11627.347     3317.684     1961.619        2.943        0.845      203.533       40.346        0.039      344.628       21.578      858.600
09/24/2014  21:32:00       39.374     -140.980      -17.034       76.208       66.120       46.450     5807.640     4371.796     2157.594        1.702        0.617      146.375       29.026        0.039      344.593       21.521      858.617
09/24/2014  21:33:00        5.633      -64.158        3.949       43.223       46.479       28.020     1868.212     2160.288      785.124        0.449        0.241       64.405       21.349        0.110      344.647       21.614      858.573
09/24/2014  21:34:00       16.853      -38.504       13.215       20.597       47.016       26.196      424.222     2210.462      686.210        0.263        0.166       42.031       15.674        0.139      344.575       21.491      858.519
09/24/2014  21:35:00        3.185       24.078       27.993       19.899       34.659       18.772      395.987     1201.255      352.397        0.166        0.097       24.288       14.553        0.359      344.757       21.802      858.509
09/24/2014  21:36:00     -105.871      -23.693       -5.300       71.055       56.871       23.840     5048.748     3234.318      568.345        1.032        0.443      108.490       23.771        0.048      344.881       22.013      858.489
09/24/2014  21:37:00     -245.912      -80.469      -11.765       66.852       49.181       34.539     4469.192     2418.776     1192.942        3.758        0.404      258.743       26.004        0.010      344.327       21.062      858.492
09/24/2014  21:38:00      -95.941      -27.006       -2.868       40.801       44.688       24.806     1664.741     1997.043      615.318        0.711        0.214       99.669       21.143        0.045      344.233       20.908      858.489
09/24/2014  21:39:00      -87.729      -85.413        3.904       43.990       46.921       21.417     1935.146     2201.564      458.705        0.980        0.230      122.441       18.428        0.023      344.727       21.753      858.477
09/24/2014  21:40:00      -42.042     -180.974      -23.670       75.285       49.588       35.338     5667.783     2459.007     1248.764        2.223        0.469      185.793       29.138        0.025      344.768       21.821      858.533
09/24/2014  21:41:00      102.529     -147.949      -13.243       85.750       69.267       45.866     7353.033     4797.868     2103.717        2.341        0.713      180.003       44.303        0.061      344.487       21.340      858.561
09/24/2014  21:42:00      114.060     -138.317        1.795       83.504       81.673       48.114     6972.844     6670.493     2314.940        2.405        0.798      179.280       48.297        0.073      344.465       21.302      858.538
09/24/2014  21:43:00       52.065      -96.803       -2.754       64.156       75.908       50.868     4116.042     5762.022     2587.519        1.228        0.623      109.917       50.743        0.213      344.669       21.653      858.540
09/24/2014  21:44:00      -93.521      -82.300       13.768      119.770       69.421       51.871    14344.800     4819.246     2690.557        1.878        1.093      124.577       61.031        0.240      344.960       22.149      858.460
09/24/2014  21:45:00     -154.264     -136.417       -5.239      113.361       88.032       58.071    12850.665     7749.698     3372.259        3.320        1.199      205.929       59.234        0.083      345.635       23.303      858.443
09/24/2014  21:46:00     -141.561      -92.081        1.271       82.635       84.071       39.718     6828.467     7067.898     1577.518        2.199        0.774      168.874       39.961        0.056      345.253       22.649      858.456
09/24/2014  21:47:00     -161.249     -130.332        4.408       85.939       67.183       46.645     7385.530     4513.489     2175.745        2.854        0.704      207.334       41.040        0.039      344.650       21.616      858.474
09/24/2014  21:48:00     -221.307      -94.088       -6.426       78.428       77.836       44.183     6150.937     6058.385     1952.103        3.601        0.708      240.477       40.289        0.028      344.512       21.378      858.456
09/24/2014  21:49:00     -148.869      -38.779        3.405      101.721       88.454       56.408    10347.152     7824.039     3181.807        2.251        1.068      153.837       54.051        0.123      344.194       20.838      858.402
09/24/2014  21:50:00      -83.710     -162.735      -13.437      109.656      114.018       43.449    12024.470    13000.123     1887.828        3.029        1.346      183.003       60.148        0.108      344.268       20.965      858.417
09/24/2014  21:51:00      -80.964     -227.893       -8.570       48.621       46.273       31.604     2363.974     2141.216      998.799        3.203        0.275      241.848       24.317        0.010      344.318       21.045      858.502
09/24/2014  21:52:00      -46.078      -94.551        1.356       54.451       64.891       26.186     2964.951     4210.864      685.709        0.946        0.393      105.181       26.899        0.065      344.292       21.007      858.558
09/24/2014  21:53:00      -77.253      -32.244       -3.057       70.637       37.911       37.740     4989.627     1437.231     1424.274        0.743        0.393       83.712       36.468        0.190      344.284       20.993      858.550
09/24/2014  21:54:00     -156.226      -88.619       -1.743       56.957       42.690       30.367     3244.069     1822.438      922.177        1.912        0.299      179.611       15.676        0.008      344.281       20.988      858.487
09/24/2014  21:55:00      -62.997      -64.347        8.783       56.648       52.648       31.548     3208.951     2771.791      995.253        0.758        0.349       90.051       31.321        0.121      344.247       20.930      858.463
09/24/2014  21:56:00      -44.386      -39.303      -16.995       53.600       21.903       21.745     2873.010      479.736      472.863        0.381        0.191       59.286       16.375        0.076      344.441       21.261      858.404
09/24/2014  21:57:00      -16.608      -73.941       -1.060       38.189       43.573       27.089     1458.400     1898.601      733.790        0.492        0.205       75.783       24.195        0.102      344.375       21.150      858.450
09/24/2014  21:58:00      -16.238     -108.001      -18.072       50.536       41.597       26.068     2553.934     1730.320      679.539        0.861        0.248      109.215       18.515        0.029      344.369       21.138      858.567
09/24/2014  21:59:00       23.166      -94.002       13.224       62.310       40.784       36.899     3882.585     1663.331     1361.510        0.823        0.345       96.814       19.571        0.041      344.299       21.018      858.569
09/24/2014  22:00:00      -89.058      -42.301        0.898       72.546       52.803       33.202     5262.987     2788.157     1102.393        0.944        0.458       98.594       39.426        0.160      344.276       20.979      858.486
09/24/2014  22:01:00     -102.281      -70.498        0.130       51.420       58.702       22.639     2644.037     3445.906      512.503        1.102        0.330      124.223       22.278        0.032      344.347       21.100      858.438
09/24/2014  22:02:00     -127.580     -188.379       -2.073       68.423       84.142       39.786     4681.682     7079.938     1582.903        3.255        0.667      227.516       36.674        0.026      344.495       21.352      858.475
09/24/2014  22:03:00     -121.883      -99.659      -10.310       89.159       54.096       32.164     7949.331     2926.362     1034.530        1.840        0.596      157.440       28.057        0.032      344.597       21.528      858.411
09/24/2014  22:04:00     -215.955      -12.889      -13.166       81.156       66.121       44.334     6586.289     4372.004     1965.462        2.995        0.646      216.340       45.526        0.044      344.264       20.957      858.339
09/24/2014  22:05:00     -112.943      -61.792       16.632       90.829       68.965       49.370     8249.830     4756.202     2437.379        1.614        0.772      128.741       48.323        0.141      344.244       20.923      858.345
09/24/2014  22:06:00     -175.958     -158.967        3.662       93.978       75.478       48.781     8831.904     5696.863     2379.543        3.657        0.845      237.133       50.992        0.046      344.508       21.371      858.433
09/24/2014  22:07:00     -119.924     -161.724       -4.460       62.269       71.779       34.264     3877.435     5152.207     1174.036        2.538        0.510      201.336       32.416        0.026      344.471       21.310      858.477
09/24/2014  22:08:00      -76.695     -139.702       -5.722       63.185       56.260       27.314     3992.341     3165.210      746.054        1.667        0.395      159.369       30.093        0.036      344.308       21.033      858.466
09/24/2014  22:09:00      -82.024     -134.192       -4.794       53.600       55.589       28.522     2872.990     3090.167      813.530        1.577        0.339      157.276       12.848        0.007      344.231       20.903      858.432
09/24/2014  22:10:00      -89.741     -115.862        1.350       73.136       45.245       26.867     5348.845     2047.071      721.826        1.480        0.406      146.552       26.890        0.034      344.328       21.068      858.418
09/24/2014  22:11:00        2.072     -136.699       -9.864       45.327       36.297       31.082     2054.552     1317.478      966.073        1.156        0.217      136.714       20.383        0.022      344.210       20.865      858.426
09/24/2014  22:12:00       -8.792     -104.433      -15.082       86.350       50.804       30.823     7456.380     2581.067      950.079        1.110        0.549      104.803       23.465        0.050      344.222       20.888      858.490
09/24/2014  22:13:00       -9.769      -80.228        3.163       38.138       66.548       29.539     1454.513     4428.598      872.555        0.665        0.338       80.820       27.078        0.112      344.144       20.755      858.542
09/24/2014  22:14:00      -81.819      -60.092        2.524       59.982       50.201       29.007     3597.850     2520.152      841.394        0.863        0.348      101.515       28.965        0.081      344.120       20.713      858.548
09/24/2014  22:15:00     -108.082      -46.107       -6.795       67.439       41.977       23.944     4548.038     1762.050      573.304        1.037        0.344      117.505       19.598        0.028      344.090       20.661      858.511
09/24/2014  22:16:00     -117.749      -88.559       -4.249       41.208       35.652       25.640     1698.082     1271.068      657.406        1.268        0.181      147.334       20.181        0.019      344.026       20.554      858.455
09/24/2014  22:17:00      -83.295     -101.443        0.382       45.146       46.021       23.735     2038.154     2117.952      563.349        1.097        0.236      131.259       20.161        0.024      344.019       20.542      858.444
09/24/2014  22:18:00     -113.520      -58.208        0.742       55.726       39.702       29.746     3105.332     1576.221      884.819        1.092        0.278      127.574       23.612        0.034      343.924       20.379      858.448
09/24/2014  22:19:00      -50.801     -119.513       -3.881       46.122       63.530       30.900     2127.196     4036.043      954.793        1.200        0.356      129.862       23.074        0.032      344.038       20.573      858.456
09/24/2014  22:20:00      -72.907      -60.372       -3.462       68.900       37.466       31.897     4747.168     1403.690     1017.426        0.807        0.358       94.659       19.035        0.040      344.018       20.539      858.461
09/24/2014  22:21:00     -215.749      -85.992       -8.550       49.782       53.614       30.581     2478.277     2874.458      935.189        3.015        0.314      232.254       24.005        0.011      343.861       20.267      858.432
09/24/2014  22:22:00     -106.536      -54.629        5.255       85.376       47.488       31.651     7289.060     2255.129     1001.811        1.245        0.527      119.726       37.350        0.097      343.759       20.095      858.427
09/24/2014  22:23:00      -41.068      -77.424        7.467       54.938       49.611       25.652     3018.162     2461.295      658.040        0.694        0.307       87.642       24.167        0.076      343.798       20.165      858.494
09/24/2014  22:24:00      -66.706     -132.993        2.639       45.611       66.411       24.016     2080.347     4410.391      576.757        1.460        0.353      148.784       29.088        0.038      343.826       20.209      858.533
09/24/2014  22:25:00     -144.629     -114.561       -4.832       93.789       72.169       41.285     8796.394     5208.422     1704.439        2.488        0.785      184.504       53.738        0.085      343.747       20.074      858.557
09/24/2014  22:26:00     -163.522      -66.373       -2.291       69.388       41.306       33.809     4814.725     1706.185     1143.069        1.941        0.383      176.479       36.688        0.043      343.591       19.811      858.488
09/24/2014  22:27:00     -160.194      -72.099        8.301       76.430       73.166       36.232     5841.562     5353.198     1312.754        2.172        0.625      175.671       38.238        0.047      343.599       19.823      858.478
09/24/2014  22:28:00     -125.599      -70.200        4.738       52.902       43.913       27.773     2798.578     1928.374      771.335        1.311        0.275      143.885       16.052        0.012      343.730       20.048      858.430
09/24/2014  22:29:00     -104.627     -120.248        1.000       51.660       79.300       31.081     2668.712     6288.516      966.033        1.766        0.496      159.394       35.031        0.048      343.811       20.184      858.471
09/24/2014  22:30:00     -105.309     -132.883        5.365       88.704       74.811       46.924     7868.458     5596.682     2201.859        2.222        0.783      169.552       43.409        0.066      343.928       20.383      858.506
09/24/2014  22:31:00      -73.725     -180.280       -3.579       40.508       67.225       40.278     1640.862     4519.185     1622.347        2.286        0.389      194.772       37.625        0.037      343.995       20.498      858.529
09/24/2014  22:32:00     -100.031      -45.348        2.832       57.681       54.061       26.100     3327.140     2922.592      681.187        0.950        0.347      109.830       28.130        0.066      343.881       20.303      858.473
09/24/2014  22:33:00     -184.239      -85.041       -7.432       54.526       30.598       21.771     2973.056      936.211      473.982        2.281        0.219      202.919       16.334        0.006      343.906       20.345      858.434
09/24/2014  22:34:00     -239.139      -36.704       -2.651      107.460       72.204       50.130    11547.727     5213.421     2513.039        3.890        0.964      241.939       57.634        0.057      343.858       20.262      858.428
09/24/2014  22:35:00     -382.373      -37.011      -18.794      158.799       98.474       58.243    25217.144     9697.196     3392.229        9.311        1.915      384.160       75.152        0.038      343.669       19.941      858.327
09/24/2014  22:36:00     -418.257     -155.501       -3.727      149.716      129.289       65.765    22414.938    16715.609     4325.046       12.129        2.173      446.228       69.972        0.025      343.899       20.332      858.302
09/24/2014  22:37:00     -299.892     -106.826        2.462      116.584      102.082       57.946    13591.898    10420.700     3357.710        6.436        1.369      318.350       58.771        0.034      344.082       20.647      858.340
09/24/2014  22:38:00     -120.060      -84.788       10.446       93.881       98.623       51.850     8813.708     9726.518     2688.375        2.147        1.061      146.981       54.269        0.136      344.297       21.015      858.426
09/24/2014  22:39:00       25.812      -57.945        4.608       51.633       52.872       55.567     2665.997     2795.476     3087.746        0.630        0.427       63.434       37.499        0.349      343.823       20.206      858.458
09/24/2014  22:40:00       52.700      -36.424        7.936       68.518       57.104       43.647     4694.702     3260.861     1905.093        0.701        0.493       64.063       41.130        0.412      343.919       20.368      858.443
09/24/2014  22:41:00       11.046      -58.130       -1.868       62.703       48.498       43.177     3931.710     2352.073     1864.233        0.582        0.407       59.170       19.990        0.114      343.965       20.448      858.456
09/24/2014  22:42:00       -6.042      -42.069       -1.287       46.047       43.509       20.988     2120.317     1893.030      440.484        0.313        0.223       42.501       12.797        0.091      344.175       20.808      858.459
09/24/2014  22:43:00      -19.755      -59.876        4.466       85.047       39.163       22.810     7233.051     1533.729      520.304        0.664        0.464       63.050       34.338        0.297      344.295       21.012      858.445
09/24/2014  22:44:00      -80.615      -28.442       -0.386       60.270       51.720       26.911     3632.518     2674.994      724.189        0.717        0.352       85.485       28.549        0.112      344.222       20.887      858.391
09/24/2014  22:45:00     -163.357      -82.951       -1.431       71.033       47.575       29.592     5045.632     2263.367      875.702        2.088        0.409      183.211       22.952        0.016      344.499       21.359      858.381
09/24/2014  22:46:00      -64.256     -101.346       -0.891       41.957       33.839       23.405     1760.428     1145.047      547.817        0.893        0.173      119.999       19.861        0.027      344.355       21.114      858.377
09/24/2014  22:47:00      -40.543      -78.530       -0.715       51.112       38.920       26.263     2612.467     1514.794      689.746        0.631        0.241       88.378       26.949        0.093      344.248       20.933      858.380
09/24/2014  22:48:00       97.086     -155.327      -46.281       67.900       52.393       30.596     4610.401     2745.055      936.116        2.199        0.415      183.172       17.752        0.009      343.973       20.460      858.369
09/24/2014  22:49:00       86.560     -158.623      -40.479       57.877       75.722       45.017     3349.769     5733.750     2026.501        2.270        0.556      180.704       34.263        0.036      343.989       20.488      858.373
09/24/2014  22:50:00       10.702      -95.558      -16.925       42.444       59.612       31.977     1801.481     3553.636     1022.503        0.795        0.319       96.155       29.582        0.095      343.934       20.396      858.399
09/24/2014  22:51:00      -28.849      -81.233        3.000       51.430       59.962       33.761     2645.051     3595.463     1139.783        0.741        0.369       86.204       29.884        0.120      343.947       20.419      858.423
09/24/2014  22:52:00      -56.038     -145.174       -7.053       80.159       70.895       32.896     6425.494     5026.092     1082.173        1.840        0.627      155.614       27.422        0.031      344.109       20.693      858.444
09/24/2014  22:53:00     -166.539     -150.604       -9.940       85.438       92.934       39.945     7299.680     8636.807     1595.564        3.402        0.877      224.537       41.754        0.035      343.907       20.345      858.435
09/24/2014  22:54:00     -163.353     -139.472       -2.753       73.478       77.841       37.238     5398.949     6059.166     1386.687        2.949        0.642      214.794       45.362        0.045      343.875       20.291      858.445
09/24/2014  22:55:00      -54.477     -124.744        2.783       54.514       56.900       27.820     2971.745     3237.600      773.950        1.276        0.349      136.120       30.315        0.050      343.848       20.248      858.443
09/24/2014  22:56:00       -1.392      -74.244        5.873       50.583       54.092       31.567     2558.630     2925.971      996.485        0.601        0.324       74.257       13.405        0.033      343.613       19.848      858.453
09/24/2014  22:57:00        7.417      -40.403        1.339       35.605       40.975       24.955     1267.689     1678.927      622.748        0.263        0.178       41.079       22.956        0.312      343.593       19.814      858.458
09/24/2014  22:58:00       -0.071      -98.289        2.374       46.169       58.189       30.719     2131.617     3385.996      943.646        0.806        0.323       98.289       20.855        0.045      343.729       20.044      858.455
09/24/2014  22:59:00      -29.366     -111.925        5.715       40.362       73.106       33.808     1629.082     5344.503     1142.965        1.077        0.406      115.714       37.121        0.103      343.901       20.337      858.445
09/24/2014  23:00:00     -104.463      -68.319       -1.697       67.227       42.741       31.533     4519.411     1826.806      994.361        1.146        0.367      124.819       37.071        0.088      343.781       20.135      858.436
09/24/2014  23:01:00     -122.450     -133.335      -10.322       50.219       70.694       21.953     2521.959     4997.596      481.927        2.044        0.400      181.031       24.519        0.018      343.856       20.260      858.426
09/24/2014  23:02:00      -11.324     -122.596      -20.508       78.371       52.365       38.632     6141.967     2742.046     1492.461        1.298        0.519      123.118       27.860        0.051      344.052       20.597      858.409
09/24/2014  23:03:00      -55.678      -97.222        0.221       36.556       33.270       25.901     1336.366     1106.886      670.837        0.783        0.156      112.036       14.817        0.017      344.055       20.602      858.435
09/24/2014  23:04:00      -47.525      -79.212        0.723       60.940       67.197       36.547     3713.711     4515.402     1335.689        0.905        0.478       92.375       29.509        0.102      343.874       20.292      858.453
09/24/2014  23:05:00      -78.230      -47.725       -7.007       53.054       41.091       33.086     2814.695     1688.447     1094.694        0.702        0.280       91.638       29.124        0.101      343.803       20.172      858.402
09/24/2014  23:06:00     -239.376      -72.175       -0.831       93.834       74.750       35.726     8804.892     5587.533     1276.327        3.909        0.783      250.021       26.829        0.012      343.617       19.853      858.365
09/24/2014  23:07:00     -190.586      -59.482        2.533      109.145       71.600       40.068    11912.638     5126.630     1605.417        2.925        0.932      199.652       37.927        0.036      343.612       19.844      858.377
09/24/2014  23:08:00      -75.906      -39.512       13.080       58.280       48.925       34.045     3396.576     2393.701     1159.038        0.722        0.347       85.574       29.209        0.117      343.534       19.714      858.380
09/24/2014  23:09:00     -103.234      -90.639        7.808       90.989       51.888       35.171     8279.084     2692.338     1237.021        1.557        0.610      137.378       32.978        0.058      343.602       19.828      858.430
09/24/2014  23:10:00     -109.059     -206.800       -1.831       69.289       53.467       36.235     4800.952     2858.732     1312.990        3.182        0.449      233.795       30.038        0.017      343.588       19.801      858.474
09/24/2014  23:11:00      -31.776     -127.448       -1.964       57.014       47.337       36.183     3250.642     2240.800     1309.175        1.203        0.340      131.349       33.696        0.066      343.578       19.788      858.452
09/24/2014  23:12:00      -46.006      -74.990       -6.281       32.669       43.118       18.312     1067.251     1859.177      335.339        0.552        0.163       87.977       14.493        0.027      343.587       19.802      858.425
09/24/2014  23:13:00     -109.160      -51.674      -13.303       55.476       30.594       28.424     3077.570      935.978      807.930        0.979        0.241      120.773       26.880        0.050      343.551       19.742      858.416
09/24/2014  23:14:00     -137.241      -84.502        4.169       80.102       57.937       44.690     6416.376     3356.711     1997.180        1.888        0.589      161.170       51.200        0.101      343.352       19.402      858.410
09/24/2014  23:15:00     -161.533      -85.488        1.658       70.993       61.642       34.805     5040.050     3799.792     1211.401        2.173        0.503      182.760       34.302        0.035      343.295       19.304      858.396
09/24/2014  23:16:00     -151.344      -90.965       -3.976       50.534       40.483       28.874     2553.731     1638.886      833.706        1.811        0.251      176.578       24.607        0.019      343.367       19.426      858.394
09/24/2014  23:17:00      -79.430      -76.060        1.256       60.580       42.872       33.149     3669.941     1837.970     1098.871        0.935        0.330      109.974       32.236        0.086      343.342       19.386      858.423
09/24/2014  23:18:00      -65.675     -140.203       -0.298       60.577       66.565       39.453     3669.618     4430.885     1556.530        1.681        0.483      154.823       33.674        0.047      343.419       19.517      858.443
09/24/2014  23:19:00      -54.844     -186.565        0.961       42.528       63.526       29.437     1808.625     4035.580      866.552        2.226        0.336      194.459       30.251        0.024      343.449       19.567      858.443
09/24/2014  23:20:00      -55.716      -58.361        0.719       41.029       64.907       27.194     1683.419     4212.967      739.516        0.657        0.332       80.686       18.859        0.055      343.389       19.464      858.439
09/24/2014  23:21:00       -9.882      -34.516       -4.993       19.742       29.666       16.708      389.727      880.069      279.159        0.143        0.077       35.903       13.981        0.152      343.251       19.230      858.415
09/24/2014  23:22:00      -43.745      -25.925       -8.015       40.706       25.815       14.765     1656.960      666.421      218.003        0.260        0.127       50.850       19.895        0.153      343.323       19.352      858.402
09/24/2014  23:23:00     -111.426      -43.582       -3.615       48.698       40.050       20.873     2371.454     1604.030      435.675        0.937        0.221      119.646       16.706        0.019      343.253       19.235      858.391
09/24/2014  23:24:00     -127.425      -43.622       -0.899       51.655       44.480       20.677     2668.268     1978.463      427.522        1.161        0.254      134.685       22.752        0.029      343.250       19.229      858.364
09/24/2014  23:25:00      -49.530      -17.191        3.500       64.336       33.737       29.150     4139.075     1138.190      849.695        0.444        0.306       52.429       30.856        0.346      343.160       19.077      858.334
09/24/2014  23:26:00     -134.701      -70.356        3.994       62.704       46.053       27.243     3931.767     2120.900      742.155        1.495        0.340      151.968       22.919        0.023      343.226       19.187      858.361
09/24/2014  23:27:00      -90.864     -105.151        3.220       57.021       41.360       29.461     3251.420     1710.668      867.965        1.258        0.292      138.971       31.750        0.052      343.334       19.371      858.414
09/24/2014  23:28:00     -104.190     -137.182       -0.401       58.776       61.314       36.259     3454.628     3759.434     1314.749        1.910        0.426      172.263       27.597        0.026      343.439       19.547      858.479
09/24/2014  23:29:00     -102.063     -189.725      -15.880       65.931       74.777       26.553     4346.856     5591.556      705.064        2.865        0.532      215.435       18.560        0.007      343.322       19.348      858.500
09/24/2014  23:30:00     -145.743      -89.146      -20.620       52.478       76.881       30.983     2753.975     5910.649      959.931        1.962        0.481      170.845       29.723        0.030      343.213       19.165      858.465
09/24/2014  23:31:00     -199.857     -130.188       -6.421       88.001       64.051       43.603     7744.101     4102.498     1901.253        3.534        0.687      238.520       34.278        0.021      343.159       19.072      858.428
09/24/2014  23:32:00     -191.185      -89.732       -0.830       86.339       62.933       39.313     7454.406     3960.508     1545.535        2.878        0.648      211.196       37.534        0.032      343.263       19.248      858.405
09/24/2014  23:33:00     -153.469     -116.509        6.684      107.585       75.893       46.374    11574.578     5759.818     2150.509        2.833        0.974      192.684       50.968        0.070      343.262       19.248      858.397
09/24/2014  23:34:00     -197.460      -95.564        8.281       93.009       67.983       49.308     8650.709     4621.747     2431.242        3.195        0.785      219.370       51.198        0.054      343.339       19.378      858.383
09/24/2014  23:35:00     -223.715     -152.708       -8.229       94.190       70.437       44.279     8871.799     4961.343     1960.631        4.461        0.790      270.866       49.385        0.033      343.545       19.730      858.360
09/24/2014  23:36:00     -176.426     -137.628       -4.274       64.696       52.600       34.994     4185.546     2766.781     1224.577        2.913        0.409      223.758       26.746        0.014      343.545       19.730      858.351
09/24/2014  23:37:00     -208.522     -152.034       -4.023       90.451       74.329       46.224     8181.418     5524.861     2136.683        4.122        0.792      258.061       46.382        0.032      343.533       19.709      858.398
09/24/2014  23:38:00     -255.109     -142.931      -11.359      106.036       67.948       46.402    11243.528     4616.908     2153.173        5.182        0.901      292.421       46.305        0.025      343.339       19.377      858.463
09/24/2014  23:39:00     -205.379     -103.835       -7.161       99.058       78.511       48.515     9812.562     6163.899     2353.716        3.567        0.917      230.136       48.374        0.044      343.242       19.213      858.480
09/24/2014  23:40:00     -232.791      -96.594       -7.971      102.416       88.003       41.407    10489.035     7744.507     1714.499        4.176        0.997      252.036       47.295        0.035      343.247       19.222      858.445
09/24/2014  23:41:00     -200.692      -48.569       11.828      104.922       90.709       56.220    11008.534     8228.166     3160.716        3.258        1.120      206.486       55.851        0.073      343.218       19.171      858.402
09/24/2014  23:42:00     -185.486      -73.800        3.758      117.641       64.285       46.035    13839.373     4132.580     2119.235        2.998        1.005      199.629       49.244        0.061      343.214       19.167      858.380
09/24/2014  23:43:00      -76.919     -101.736       -6.500       53.254       66.374       30.472     2835.963     4405.563      928.552        1.224        0.409      127.542       19.388        0.023      343.167       19.088      858.371
09/24/2014  23:44:00      -71.539     -175.489        2.705       50.244       65.637       29.875     2524.507     4308.199      892.509        2.182        0.386      189.511       24.404        0.017      343.202       19.145      858.440
09/24/2014  23:45:00      -75.290     -103.332       -0.560       52.984       63.279       33.490     2807.314     4004.286     1121.556        1.214        0.397      127.852       33.664        0.069      343.049       18.888      858.481
09/24/2014  23:46:00       54.357     -150.082      -11.878       79.356       60.599       41.840     6297.410     3672.280     1750.601        1.867        0.586      159.622       35.262        0.049      342.840       18.530      858.488
09/24/2014  23:47:00      -35.925     -146.816       -0.372       70.196       51.042       41.533     4927.482     2605.329     1725.023        1.605        0.463      151.148       31.070        0.042      342.722       18.330      858.493
09/24/2014  23:48:00        6.099     -137.721       -3.809       56.857       83.328       51.799     3232.731     6943.532     2683.155        1.594        0.643      137.856       46.539        0.114      342.827       18.506      858.509
09/24/2014  23:49:00      -62.364     -125.330        8.010       70.718       80.136       35.300     5001.104     6421.811     1246.092        1.616        0.633      139.989       38.340        0.075      342.771       18.412      858.496
09/24/2014  23:50:00      -18.861     -117.287       12.341       47.487       47.079       33.423     2255.031     2216.439     1117.123        0.993        0.279      118.794       29.248        0.061      342.740       18.360      858.507
09/24/2014  23:51:00      -41.645     -147.294      -13.954       64.178       58.820       43.951     4118.844     3459.753     1931.682        1.657        0.476      153.068       31.459        0.042      342.775       18.420      858.528
09/24/2014  23:52:00      -48.394      -75.520       -2.665       54.263       62.981       35.049     2944.485     3966.606     1228.430        0.809        0.407       89.695       15.400        0.029      342.680       18.258      858.507
09/24/2014  23:53:00     -145.153      -61.360      -13.082       79.682       50.969       25.573     6349.283     2597.837      654.002        1.730        0.480      157.589       20.806        0.017      342.595       18.113      858.451
09/24/2014  23:54:00     -196.247      -66.260       -7.275       65.769       54.364       32.817     4325.545     2955.413     1076.972        2.566        0.418      207.131       32.819        0.025      342.541       18.019      858.412
09/24/2014  23:55:00     -260.292      -61.834       -5.072      108.697       69.285       48.957    11814.936     4800.436     2396.806        4.530        0.951      267.535       50.833        0.036      342.543       18.022      858.349
09/24/2014  23:56:00     -281.472      -90.676       11.423      119.165       81.441       48.040    14200.207     6632.649     2307.811        5.536        1.157      295.717       56.267        0.036      342.692       18.276      858.336
09/24/2014  23:57:00     -299.114      -82.256       -3.263      126.599       85.610       47.427    16027.287     7329.056     2249.345        6.092        1.280      310.218       51.007        0.027      342.594       18.109      858.327
09/24/2014  23:58:00     -344.098      -63.049       -5.576      142.165       99.188       57.716    20210.924     9838.186     3331.082        7.789        1.669      349.827       67.703        0.037      342.667       18.235      858.315
09/24/2014  23:59:00     -336.071      -45.778      -23.376      116.026      103.089       51.865    13461.988    10627.242     2690.017        7.118        1.339      339.174       50.659        0.022      342.792       18.446      858.288
